[[{"header":{"parameterUnit":"m.s-1","parameterCategory":1,"la1":30.6,"la2":28.766,"lo1":-90.7593,"lo2":-88.6598,"dy":0.0162,"dx":0.0183,"nx":116,"ny":114,"refTime":"2023-06-22T06:00:00:Z","depth":0,"parameterNumber":2,"parameterNumberName":"U-component_of_WINDS"},"data":[0.0,0.0,0.0,0.0,0.0,0.0,0.0,0.0,0.0,0.0,0.0,0.0,0.0,0.0,0.0,0.0,0.0,0.0,0.0,0.0,0.0,0.0,0.0,0.0,0.0,0.0,0.0,0.0,0.0,0.0,0.0,0.0,0.0,0.0,0.0,0.0,0.0,0.0,0.0,0.0,0.0,0.0,0.0,0.0,0.0,0.0,0.0,0.0,0.0,0.0,0.0,0.0,0.0,0.0,0.0,0.0,0.0,0.0,0.0,0.0,0.0,0.0,0.0,0.0,0.0,0.0,0.0,0.0,0.0,0.0,0.0,0.0,0.0,0.0,0.0,0.0,0.0,0.0,0.0,0.0,0.0,0.0,0.0,0.0,0.0,0.0,0.0,0.0,0.0,0.0,0.0,0.0,0.0,0.0,0.0,0.0,0.0,0.0,0.0,0.0,0.0,0.0,0.0,0.0,0.0,0.0,0.0,0.0,0.0,0.0,0.0,0.0,0.0,0.0,0.0,0.0,0.0,0.0,0.0,0.0,0.0,0.0,0.0,0.0,0.0,0.0,0.0,0.0,0.0,0.0,0.0,0.0,0.0,0.0,0.0,0.0,0.0,0.0,0.0,0.0,0.0,0.0,0.0,0.0,0.0,0.0,0.0,0.0,0.0,0.0,0.0,0.0,0.0,0.0,0.0,0.0,0.0,0.0,0.0,0.0,0.0,0.0,0.0,0.0,0.0,0.0,0.0,0.0,0.0,0.0,0.0,0.0,0.0,0.0,0.0,0.0,0.0,0.0,0.0,0.0,0.0,0.0,0.0,0.0,0.0,0.0,0.0,0.0,0.0,0.0,0.0,0.0,0.0,0.0,0.0,0.0,0.0,0.0,0.0,0.0,0.0,0.0,0.0,0.0,0.0,0.0,0.0,0.0,0.0,0.0,0.0,0.0,0.0,0.0,0.0,0.0,0.0,0.0,0.0,0.0,0.0,0.0,0.0,0.0,0.0,0.0,0.0,0.0,0.0,0.0,0.0,0.0,0.0,0.0,0.0,0.0,0.0,0.0,0.0,0.0,0.0,0.0,0.0,0.0,0.0,0.0,0.0,0.0,0.0,0.0,0.0,0.0,0.0,0.0,0.0,0.0,0.0,0.0,0.0,0.0,0.0,0.0,0.0,0.0,0.0,0.0,0.0,0.0,0.0,0.0,0.0,0.0,0.0,0.0,0.0,0.0,0.0,0.0,0.0,0.0,0.0,0.0,0.0,0.0,0.0,0.0,0.0,0.0,0.0,0.0,0.0,0.0,0.0,0.0,0.0,0.0,0.0,0.0,0.0,0.0,0.0,0.0,0.0,0.0,0.0,0.0,0.0,0.0,0.0,0.0,0.0,0.0,0.0,0.0,0.0,0.0,0.0,0.0,0.0,0.0,0.0,0.0,0.0,0.0,0.0,0.0,0.0,0.0,0.0,0.0,0.0,0.0,0.0,0.0,0.0,0.0,0.0,0.0,0.0,0.0,0.0,0.0,0.0,0.0,0.0,0.0,0.0,0.0,0.0,0.0,0.0,0.0,0.0,0.0,0.0,0.0,0.0,0.0,0.0,0.0,0.0,0.0,0.0,0.0,0.0,0.0,0.0,0.0,0.0,0.0,0.0,0.0,0.0,0.0,0.0,0.0,0.0,0.0,0.0,0.0,0.0,0.0,0.0,0.0,0.0,0.0,0.0,0.0,0.0,0.0,0.0,0.0,0.0,0.0,0.0,0.0,0.0,0.0,0.0,0.0,0.0,0.0,0.0,0.0,0.0,0.0,0.0,0.0,0.0,0.0,0.0,0.0,0.0,0.0,0.0,0.0,0.0,0.0,0.0,0.0,0.0,0.0,0.0,0.0,0.0,0.0,0.0,0.0,0.0,0.0,0.0,0.0,0.0,0.0,0.0,0.0,0.0,0.0,0.0,0.0,0.0,0.0,0.0,0.0,0.0,0.0,0.0,0.0,0.0,0.0,0.0,0.0,0.0,0.0,0.0,0.0,0.0,0.0,0.0,0.0,0.0,0.0,0.0,0.0,0.0,0.0,0.0,0.0,0.0,0.0,0.0,0.0,0.0,0.0,0.0,0.0,0.0,0.0,0.0,0.0,0.0,0.0,0.0,0.0,0.0,0.0,0.0,0.0,0.0,0.0,0.0,0.0,0.0,0.0,0.0,0.0,0.0,0.0,0.0,0.0,0.0,0.0,0.0,0.0,0.0,0.0,0.0,0.0,0.0,0.0,0.0,0.0,0.0,0.0,0.0,0.0,0.0,0.0,0.0,0.0,0.0,0.0,0.0,0.0,0.0,0.0,0.0,0.0,0.0,0.0,0.0,0.0,0.0,0.0,0.0,0.0,0.0,0.0,0.0,0.0,0.0,0.0,0.0,0.0,0.0,0.0,0.0,0.0,0.0,0.0,0.0,0.0,0.0,0.0,0.0,0.0,0.0,0.0,0.0,0.0,0.0,0.0,0.0,0.0,0.0,0.0,0.0,0.0,0.0,0.0,0.0,0.0,0.0,0.0,0.0,0.0,0.0,0.0,0.0,0.0,0.0,0.0,0.0,0.0,0.0,0.0,0.0,0.0,0.0,0.0,0.0,0.0,0.0,0.0,0.0,0.0,0.0,0.0,0.0,0.0,0.0,0.0,0.0,0.0,0.0,0.0,0.0,0.0,0.0,0.0,0.0,0.0,0.0,0.0,0.0,0.0,0.0,0.0,0.0,0.0,0.0,0.0,0.0,0.0,0.0,0.0,0.0,0.0,0.0,0.0,0.0,0.0,0.0,0.0,0.0,0.0,0.0,0.0,0.0,0.0,0.0,0.0,0.0,0.0,0.0,0.0,0.0,0.0,0.0,0.0,0.0,0.0,0.0,0.0,0.0,0.0,0.0,0.0,0.0,0.0,0.0,0.0,0.0,0.0,0.0,0.0,0.0,0.0,0.0,0.0,0.0,0.0,0.0,0.0,0.0,0.0,0.0,0.0,0.0,0.0,0.0,0.0,0.0,0.0,0.0,0.0,0.0,0.0,0.0,0.0,0.0,0.0,0.0,0.0,0.0,0.0,0.0,0.0,0.0,0.0,0.0,0.0,0.0,0.0,0.0,0.0,0.0,0.0,0.0,0.0,0.0,0.0,0.0,0.0,0.0,0.0,0.0,0.0,0.0,0.0,0.0,0.0,0.0,0.0,0.0,0.0,0.0,0.0,0.0,0.0,0.0,0.0,0.0,0.0,0.0,0.0,0.0,0.0,0.0,0.0,0.0,0.0,0.0,0.0,0.0,0.0,0.0,0.0,0.0,0.0,0.0,0.0,0.0,0.0,0.0,0.0,0.0,0.0,0.0,0.0,0.0,0.0,0.0,0.0,0.0,0.0,0.0,0.0,0.0,0.0,0.0,0.0,0.0,0.0,0.0,0.0,0.0,0.0,0.0,0.0,0.0,0.0,0.0,0.0,0.0,0.0,0.0,0.0,0.0,0.0,0.0,0.0,0.0,0.0,0.0,0.0,0.0,0.0,0.0,0.0,0.0,0.0,0.0,0.0,0.0,0.0,0.0,0.0,0.0,0.0,0.0,0.0,0.0,0.0,0.0,0.0,0.0,0.0,0.0,0.0,0.0,0.0,0.0,0.0,0.0,0.0,0.0,0.0,0.0,0.0,0.0,0.0,0.0,0.0,0.0,0.0,0.0,0.0,0.0,0.0,0.0,0.0,0.0,0.0,0.0,0.0,0.0,0.0,0.0,0.0,0.0,0.0,0.0,0.0,0.0,0.0,0.0,0.0,0.0,0.0,0.0,0.0,0.0,0.0,0.0,0.0,0.0,0.0,0.0,0.0,0.0,0.0,0.0,0.0,0.0,0.0,0.0,0.0,0.0,0.0,0.0,0.0,0.0,0.0,0.0,0.0,0.0,0.0,0.0,0.0,0.0,0.0,0.0,0.0,0.0,0.0,0.0,0.0,0.0,0.0,0.0,0.0,0.0,0.0,0.0,0.0,0.0,0.0,0.0,0.0,0.0,0.0,0.0,0.0,0.0,0.0,0.0,0.0,0.0,0.0,0.0,0.0,0.0,0.0,0.0,0.0,0.0,0.0,0.0,0.0,0.0,0.0,0.0,0.0,0.0,0.0,0.0,0.0,0.0,0.0,0.0,0.0,0.0,0.0,0.0,0.0,0.0,0.0,0.0,0.0,0.0,0.0,0.0,0.0,0.0,0.0,0.0,0.0,0.0,0.0,0.0,0.0,0.0,0.0,0.0,0.0,0.0,0.0,0.0,0.0,0.0,0.0,0.0,0.0,0.0,0.0,0.0,0.0,0.0,0.0,0.0,0.0,0.0,0.0,0.0,0.0,0.0,0.0,0.0,0.0,0.0,0.0,0.0,0.0,0.0,0.0,0.0,0.0,0.0,0.0,0.0,0.0,0.0,0.0,0.0,0.0,0.0,0.0,0.0,0.0,0.0,0.0,0.0,0.0,0.0,0.0,0.0,0.0,0.0,0.0,0.0,0.0,0.0,0.0,0.0,0.0,0.0,0.0,0.0,0.0,0.0,0.0,0.0,0.0,0.0,0.0,0.0,0.0,0.0,0.0,0.0,0.0,0.0,0.0,0.0,0.0,0.0,0.0,0.0,0.0,0.0,0.0,0.0,0.0,0.0,0.0,0.0,0.0,0.0,0.0,0.0,0.0,0.0,0.0,0.0,0.0,0.0,0.0,0.0,0.0,0.0,0.0,0.0,0.0,0.0,0.0,0.0,0.0,0.0,0.0,0.0,0.0,0.0,0.0,0.0,0.0,0.0,0.0,0.0,0.0,0.0,0.0,0.0,0.0,0.0,0.0,0.0,0.0,0.0,0.0,0.0,0.0,0.0,0.0,0.0,0.0,0.0,0.0,0.0,0.0,0.0,0.0,0.0,0.0,0.0,0.0,0.0,0.0,0.0,0.0,0.0,0.0,0.0,0.0,0.0,0.0,0.0,0.0,0.0,0.0,0.0,0.0,0.0,0.0,0.0,0.0,0.0,0.0,0.0,0.0,0.0,0.0,0.0,0.0,0.0,0.0,0.0,0.0,0.0,0.0,0.0,0.0,0.0,0.0,0.0,0.0,0.0,0.0,0.0,0.0,0.0,0.0,0.0,0.0,0.0,0.0,0.0,0.0,0.0,0.0,0.0,0.0,0.0,0.0,0.0,0.0,0.0,0.0,0.0,0.0,0.0,0.0,0.0,0.0,0.0,0.0,0.0,0.0,0.0,0.0,0.0,0.0,0.0,0.0,0.0,0.0,0.0,0.0,0.0,0.0,0.0,0.0,0.0,0.0,0.0,0.0,0.0,0.0,0.0,0.0,0.0,0.0,0.0,0.0,0.0,0.0,0.0,0.0,0.0,0.0,0.0,0.0,0.0,0.0,0.0,0.0,0.0,0.0,0.0,0.0,0.0,0.0,0.0,0.0,0.0,0.0,0.0,0.0,0.0,0.0,0.0,0.0,0.0,0.0,0.0,0.0,0.0,0.0,0.0,0.0,0.0,0.0,0.0,0.0,0.0,0.0,0.0,0.0,0.0,0.0,0.0,0.0,0.0,0.0,0.0,0.0,0.0,0.0,0.0,0.0,0.0,0.0,0.0,0.0,0.0,0.0,0.0,0.0,0.0,0.0,0.0,0.0,0.0,0.0,0.0,0.0,0.0,0.0,0.0,0.0,0.0,0.0,0.0,0.0,0.0,0.0,0.0,0.0,0.0,0.0,0.0,0.0,0.0,0.0,0.0,0.0,0.0,0.0,0.0,0.0,0.0,0.0,0.0,0.0,0.0,0.0,0.0,0.0,0.0,0.0,0.0,0.0,0.0,0.0,0.0,0.0,0.0,0.0,0.0,0.0,0.0,0.0,0.0,0.0,0.0,0.0,0.0,0.0,0.0,0.0,0.0,0.0,0.0,0.0,0.0,0.0,0.0,0.0,0.0,0.0,0.0,0.0,0.0,0.0,0.0,0.0,0.0,0.0,0.0,0.0,0.0,0.0,0.0,0.0,0.0,0.0,0.0,0.0,0.0,0.0,0.0,0.0,0.0,0.0,0.0,0.0,0.0,0.0,0.0,0.0,-5.2266,-5.1593,0.0,0.0,0.0,0.0,0.0,0.0,0.0,0.0,0.0,0.0,0.0,0.0,0.0,0.0,0.0,0.0,0.0,0.0,0.0,0.0,0.0,0.0,0.0,0.0,0.0,0.0,0.0,0.0,0.0,0.0,0.0,0.0,0.0,0.0,0.0,0.0,0.0,0.0,0.0,0.0,0.0,0.0,0.0,0.0,0.0,0.0,0.0,0.0,0.0,0.0,0.0,0.0,0.0,0.0,0.0,0.0,0.0,0.0,0.0,0.0,0.0,0.0,0.0,0.0,0.0,0.0,0.0,0.0,0.0,0.0,0.0,0.0,0.0,0.0,0.0,0.0,0.0,0.0,0.0,0.0,0.0,0.0,0.0,0.0,0.0,0.0,0.0,0.0,0.0,0.0,0.0,0.0,0.0,0.0,0.0,0.0,0.0,0.0,0.0,0.0,0.0,0.0,0.0,0.0,0.0,0.0,0.0,0.0,0.0,0.0,0.0,0.0,0.0,0.0,-5.2422,-5.1904,0.0,0.0,0.0,0.0,0.0,0.0,0.0,0.0,0.0,0.0,0.0,0.0,0.0,0.0,0.0,0.0,0.0,0.0,0.0,0.0,0.0,0.0,0.0,0.0,0.0,0.0,0.0,0.0,0.0,0.0,0.0,0.0,0.0,0.0,0.0,0.0,0.0,0.0,0.0,0.0,0.0,0.0,0.0,0.0,0.0,0.0,0.0,0.0,0.0,0.0,0.0,0.0,0.0,0.0,0.0,0.0,0.0,0.0,0.0,0.0,0.0,0.0,0.0,0.0,0.0,0.0,0.0,0.0,0.0,0.0,0.0,0.0,0.0,0.0,0.0,0.0,0.0,0.0,0.0,0.0,0.0,0.0,0.0,0.0,0.0,0.0,0.0,0.0,0.0,0.0,0.0,0.0,0.0,0.0,0.0,0.0,0.0,0.0,0.0,0.0,0.0,0.0,0.0,0.0,0.0,0.0,0.0,0.0,-5.3185,-5.3185,-5.3185,-5.3185,-5.3185,-5.3164,-5.2554,-5.2136,-5.1832,-5.0672,0.0,0.0,0.0,0.0,0.0,0.0,0.0,0.0,0.0,0.0,0.0,0.0,0.0,0.0,0.0,0.0,0.0,0.0,0.0,0.0,0.0,0.0,0.0,0.0,0.0,0.0,0.0,0.0,0.0,0.0,0.0,0.0,0.0,0.0,0.0,0.0,0.0,0.0,-3.7905,-3.7905,-3.8007,-3.8227,-3.8853,0.0,0.0,0.0,0.0,0.0,0.0,0.0,0.0,0.0,0.0,0.0,0.0,0.0,0.0,0.0,0.0,0.0,0.0,0.0,0.0,0.0,0.0,0.0,0.0,0.0,0.0,0.0,0.0,0.0,0.0,0.0,0.0,0.0,0.0,0.0,0.0,0.0,0.0,0.0,0.0,0.0,0.0,0.0,-5.372,-5.372,0.0,0.0,0.0,0.0,0.0,0.0,0.0,0.0,0.0,0.0,0.0,0.0,0.0,-5.3185,-5.3185,-5.3185,-5.3185,-5.3185,-5.3185,-5.3185,-5.3185,-5.3185,-5.3185,-5.3185,-5.3103,0.0,-5.1215,-5.1034,0.0,0.0,0.0,0.0,0.0,0.0,0.0,0.0,0.0,0.0,0.0,0.0,0.0,0.0,0.0,0.0,0.0,0.0,0.0,0.0,0.0,0.0,0.0,0.0,0.0,0.0,0.0,0.0,0.0,0.0,0.0,0.0,0.0,0.0,0.0,0.0,-3.6968,-3.7043,-3.6597,-3.6597,-3.6597,-3.6631,-3.7415,-3.7771,-3.7761,-3.7713,0.0,0.0,0.0,0.0,0.0,0.0,0.0,0.0,0.0,0.0,0.0,0.0,0.0,0.0,0.0,0.0,0.0,0.0,0.0,0.0,0.0,0.0,0.0,0.0,0.0,0.0,0.0,0.0,0.0,0.0,0.0,0.0,0.0,0.0,0.0,0.0,0.0,0.0,0.0,-5.3564,-5.372,-5.3504,-5.3663,-5.3796,0.0,0.0,0.0,0.0,0.0,0.0,0.0,0.0,0.0,-5.3185,-5.3185,-5.3185,-5.3185,-5.3185,-5.3185,-5.3185,-5.3185,-5.3185,-5.3185,-5.3185,-5.3185,-5.3185,-5.3185,-5.2617,-5.1618,-5.1266,-5.049,-4.9504,0.0,0.0,0.0,0.0,-4.9001,-4.9001,0.0,0.0,0.0,0.0,0.0,0.0,0.0,0.0,0.0,0.0,0.0,0.0,0.0,0.0,0.0,-3.5504,0.0,0.0,0.0,0.0,0.0,0.0,0.0,0.0,0.0,0.0,0.0,0.0,-3.6155,-3.6026,-3.56,-3.56,-3.56,-3.5616,-3.6231,-3.6511,-3.6521,-3.6523,-3.6135,0.0,0.0,0.0,0.0,0.0,0.0,0.0,0.0,0.0,0.0,0.0,0.0,0.0,0.0,0.0,0.0,0.0,0.0,0.0,0.0,0.0,0.0,0.0,0.0,0.0,0.0,0.0,0.0,0.0,0.0,0.0,0.0,0.0,0.0,0.0,0.0,0.0,0.0,-5.3564,-5.3683,-5.3381,-5.372,-5.3923,0.0,0.0,0.0,0.0,0.0,0.0,-5.3185,-5.3185,-5.3185,-5.3185,-5.3185,-5.3185,-5.3185,-5.3185,-5.3185,-5.3185,-5.3185,-5.3185,-5.3185,-5.3185,-5.3185,-5.3185,-5.3185,-5.2769,-5.2047,-5.1368,-5.0662,-4.9919,-4.9256,-4.9001,-4.9001,-4.9001,-4.9001,-4.9001,0.0,0.0,0.0,0.0,0.0,0.0,0.0,0.0,0.0,0.0,0.0,0.0,0.0,0.0,-3.5504,-3.5504,-3.5504,-3.5235,0.0,0.0,0.0,0.0,0.0,0.0,0.0,0.0,0.0,-3.3774,-3.4399,-3.5015,-3.56,-3.56,-3.56,-3.56,-3.5633,-3.57,-3.5753,-3.5754,-3.5368,-3.469,0.0,0.0,0.0,0.0,0.0,0.0,0.0,0.0,0.0,0.0,0.0,0.0,0.0,0.0,0.0,0.0,0.0,0.0,0.0,0.0,0.0,0.0,0.0,0.0,0.0,0.0,0.0,0.0,0.0,0.0,0.0,0.0,0.0,0.0,0.0,0.0,0.0,0.0,0.0,-5.3777,-5.417,0.0,0.0,0.0,0.0,-5.3251,-5.3206,-5.3185,-5.3185,-5.3185,-5.3185,-5.3185,-5.3185,-5.3185,-5.3185,-5.3185,-5.3185,-5.3185,-5.3185,-5.3185,-5.3185,-5.3185,-5.3185,-5.3185,-5.3185,-5.2769,-5.2047,-5.1368,-5.0662,-4.9919,-4.9256,-4.9001,-4.9001,-4.9001,-4.9001,-4.9001,0.0,0.0,0.0,0.0,0.0,0.0,0.0,0.0,0.0,0.0,0.0,0.0,0.0,-3.4341,-3.5504,-3.5504,-3.51,-3.4773,-3.4518,0.0,0.0,0.0,0.0,0.0,0.0,0.0,-3.3556,-3.4235,-3.4918,-3.5362,-3.56,-3.56,-3.56,-3.56,-3.56,-3.5131,-3.4367,-3.4368,-3.3968,-3.3287,-3.2506,-3.2198,0.0,0.0,0.0,0.0,0.0,0.0,0.0,0.0,0.0,0.0,0.0,0.0,0.0,0.0,0.0,0.0,0.0,0.0,0.0,0.0,0.0,0.0,0.0,0.0,0.0,0.0,0.0,0.0,0.0,0.0,0.0,0.0,0.0,0.0,0.0,0.0,0.0,-5.3796,-5.4204,0.0,-5.4272,-5.3977,-5.3869,-5.4033,-5.3522,-5.3316,-5.3565,-5.3339,-5.3185,-5.3185,-5.3185,-5.3185,-5.3185,-5.3185,-5.3185,-5.3185,-5.3185,-5.3185,-5.3185,-5.3185,-5.3185,-5.3185,-5.3185,-5.2769,-5.2047,-5.1368,-5.0662,-4.9919,-4.9256,-4.9001,-4.9001,-4.9001,-4.9001,-4.9001,0.0,0.0,0.0,0.0,0.0,0.0,0.0,0.0,0.0,0.0,0.0,-3.2249,-3.2558,-3.4041,-3.5044,-3.5143,-3.4773,-3.4324,-3.3844,0.0,0.0,0.0,0.0,0.0,0.0,-3.2906,-3.3582,-3.426,-3.4918,-3.5385,-3.56,-3.56,-3.56,-3.56,-3.5362,-3.4776,-3.3912,-3.3469,-3.2853,-3.2203,-3.1697,-3.1511,-3.1511,0.0,0.0,0.0,0.0,0.0,0.0,0.0,0.0,0.0,0.0,0.0,0.0,0.0,0.0,0.0,0.0,0.0,0.0,0.0,0.0,0.0,0.0,0.0,0.0,0.0,0.0,0.0,0.0,0.0,0.0,0.0,0.0,0.0,0.0,-5.3442,-5.3604,-5.3604,-5.3996,-5.4204,-5.4086,-5.4049,-5.4031,-5.4068,-5.3643,-5.3464,-5.3585,-5.3339,-5.3185,-5.3185,-5.3185,-5.3185,-5.3185,-5.3185,-5.3185,-5.3185,-5.3185,-5.3185,-5.3185,-5.3185,-5.3185,-5.3185,-5.3185,-5.2769,-5.2047,-5.1368,-5.0662,-4.9919,-4.9256,-4.9001,-4.9001,-4.9001,-4.9001,-4.9001,0.0,0.0,0.0,0.0,0.0,0.0,0.0,0.0,0.0,0.0,-3.062,-3.1536,-3.2464,-3.338,-3.4084,-3.4422,-3.4457,-3.3888,-3.2572,-3.2497,0.0,0.0,0.0,0.0,-3.1511,-3.2216,-3.2922,-3.3572,-3.4235,-3.4894,-3.5554,-3.5554,-3.5554,-3.5515,-3.4871,-3.4552,-3.4455,-3.3145,-3.216,-3.1511,-3.1511,-3.1511,-3.1511,0.0,0.0,0.0,0.0,0.0,0.0,0.0,0.0,0.0,0.0,0.0,0.0,0.0,0.0,0.0,0.0,0.0,0.0,0.0,0.0,0.0,0.0,0.0,0.0,0.0,0.0,0.0,0.0,0.0,0.0,0.0,0.0,0.0,-5.3059,-5.3167,-5.3206,-5.3227,-5.3565,-5.3644,-5.3251,-5.3979,-5.4138,-5.3293,-5.3565,-5.3624,-5.323,-5.3206,-5.3185,-5.3185,-5.3185,-5.3185,-5.3185,-5.3185,-5.3185,-5.3185,-5.3185,-5.3185,-5.3185,-5.3185,-5.3185,-5.3185,-5.3185,-5.2769,-5.2047,-5.1368,-5.0662,-4.9919,-4.9256,-4.9001,-4.9001,-4.9001,-4.9001,-4.9001,0.0,0.0,0.0,0.0,0.0,0.0,0.0,0.0,0.0,0.0,-3.062,-3.1278,-3.1573,-3.2429,-3.3105,-3.3456,-3.3027,-3.27,-3.2512,0.0,0.0,0.0,0.0,0.0,-3.1511,-3.2216,-3.2695,-3.2868,-3.3547,-3.3962,-3.4153,-3.4153,-3.4153,-3.4137,-3.3962,-3.3608,-3.3119,-3.2776,-3.216,-3.1511,-3.1511,-3.1511,-3.1511,0.0,0.0,0.0,0.0,0.0,0.0,0.0,0.0,0.0,0.0,0.0,0.0,0.0,0.0,0.0,0.0,0.0,0.0,0.0,0.0,0.0,0.0,0.0,0.0,0.0,0.0,0.0,0.0,0.0,0.0,0.0,-5.0951,-5.2068,-5.2289,-5.2839,-5.3316,-5.3604,-5.3739,-5.3758,-5.3644,-5.3851,-5.3888,-5.3663,-5.3464,-5.3444,-5.3643,-5.3359,-5.3185,-5.3185,-5.3185,-5.3185,-5.3185,-5.3185,-5.3185,-5.3185,-5.3185,-5.3185,-5.3185,-5.3185,-5.3185,-5.3185,-5.3185,-5.2769,-5.2047,-5.1368,-5.0662,-4.9919,-4.9256,-4.9001,-4.9001,-4.9001,-4.9001,-4.9001,0.0,0.0,0.0,0.0,0.0,0.0,0.0,0.0,0.0,0.0,-3.0279,-3.0758,-3.1143,-3.1669,-3.205,-3.2145,-3.2129,-3.1956,-3.1618,0.0,0.0,0.0,0.0,-3.1511,-3.1511,-3.2216,-3.2586,-3.2586,-3.3261,-3.3582,-3.3582,-3.3582,-3.3582,-3.3582,-3.3313,-3.296,-3.2574,-3.2272,-3.1881,-3.1511,-3.1511,-3.1511,-3.1511,-3.1511,-3.1511,-3.1511,-3.1511,-3.1511,-3.1511,-3.1511,0.0,0.0,0.0,0.0,0.0,0.0,0.0,0.0,0.0,0.0,0.0,0.0,0.0,0.0,0.0,0.0,0.0,0.0,0.0,0.0,0.0,0.0,0.0,0.0,-5.0675,-5.161,-5.194,-5.2692,-5.3293,-5.3525,-5.3702,-5.3721,-5.3584,-5.3869,-5.3942,-5.3565,-5.3504,-5.3484,-5.3545,-5.3336,-5.3185,-5.3185,-5.3185,-5.3185,-5.3185,-5.3185,-5.3185,-5.3185,-5.3185,-5.3185,-5.3185,-5.3185,-5.3185,-5.3185,-5.3185,-5.2617,-5.1643,-5.1266,-5.0517,0.0,0.0,0.0,0.0,0.0,-4.9001,-4.9001,0.0,0.0,0.0,0.0,0.0,0.0,0.0,0.0,0.0,0.0,0.0,-3.0101,-3.0932,-3.1044,-3.0924,-3.0671,-3.1345,-3.1322,0.0,0.0,0.0,-3.0329,-3.097,-3.1409,-3.1511,-3.2148,-3.2492,-3.2492,-3.3066,-3.3349,-3.3349,-3.3349,-3.3349,-3.3339,-3.2734,-3.2492,-3.2437,-3.1768,-3.1511,-3.1511,-3.1409,-3.1409,-3.1511,-3.1511,-3.1511,-3.1511,-3.1409,-3.1409,-3.1511,-3.1409,0.0,0.0,0.0,0.0,0.0,0.0,0.0,0.0,0.0,0.0,0.0,0.0,0.0,0.0,0.0,0.0,0.0,0.0,0.0,0.0,0.0,0.0,0.0,0.0,-5.0343,-5.1187,-5.1885,-5.2692,-5.3185,-5.3185,-5.3505,-5.3604,-5.323,-5.3907,-5.4033,-5.3269,-5.3525,-5.3585,-5.3227,-5.3185,0.0,0.0,0.0,-5.3185,-5.3185,-5.3185,-5.3185,-5.3185,-5.3185,-5.3185,-5.3185,-5.3185,-5.3185,-5.3185,-5.3185,-5.2504,-5.1317,-5.1164,-5.0258,-4.9001,-4.9001,-4.9001,-4.9001,-4.9001,-4.9001,-4.9001,0.0,0.0,0.0,0.0,0.0,0.0,0.0,0.0,0.0,-2.9792,-2.9792,-2.9869,-3.0037,-3.0075,-2.9969,-2.9684,-2.9822,-2.972,0.0,0.0,-2.9721,-3.0269,-3.045,-3.0837,-3.1511,-3.164,-3.171,-3.171,-3.1838,-3.1923,-3.1923,-3.1923,-3.1923,-3.1894,-3.1768,-3.171,-3.1682,-3.1553,-3.1511,-3.1438,-3.0807,-3.0925,-3.1511,-3.1511,-3.1511,-3.1409,-3.0777,-3.097,-3.1409,-3.0748,-3.097,-3.1511,-3.1511,0.0,0.0,0.0,0.0,0.0,0.0,0.0,0.0,0.0,0.0,0.0,0.0,0.0,0.0,0.0,0.0,0.0,0.0,0.0,0.0,-4.9574,-5.0822,-5.1811,-5.1977,-5.2692,-5.3185,-5.3185,-5.3272,-5.3293,-5.3206,-5.3357,-5.338,-5.3206,-5.3272,-5.3274,-5.3206,-5.3185,-5.3185,-5.3185,-5.3185,-5.3185,-5.3185,-5.3185,-5.3185,-5.3185,0.0,0.0,-5.3185,-5.3185,-5.3185,-5.3185,-5.3185,-5.306,-5.2721,-5.1562,-5.0258,-4.9001,-4.9001,-4.9001,-4.9001,-4.9001,-4.9001,-4.9001,0.0,0.0,0.0,0.0,0.0,0.0,0.0,0.0,0.0,0.0,-2.9792,-2.9792,-2.9792,-2.9528,-2.9201,-2.8787,-2.8625,0.0,0.0,-2.8748,-2.9002,-2.9002,-2.9411,-2.9858,-3.0238,-3.0673,-3.0896,-3.0896,-3.1307,-3.1511,-3.1511,-3.1511,-3.1511,-3.1511,-3.1511,-3.1511,-3.1467,-3.1058,-3.0896,-3.0837,-2.9981,-2.9889,-3.0299,-3.0748,-3.0614,-3.0299,-3.0748,-3.0896,-3.0896,-3.0896,-3.1161,-3.1511,-3.1511,-3.1959,-3.2691,0.0,0.0,0.0,0.0,0.0,0.0,0.0,0.0,0.0,0.0,0.0,0.0,0.0,0.0,-4.8434,-4.8875,0.0,-4.9867,-5.0675,-5.1483,-5.2142,-5.2546,-5.2949,-5.3185,-5.3185,-5.338,-5.3422,-5.3227,-5.3381,-5.3422,-5.3206,-5.3185,-5.3185,-5.3185,-5.3185,-5.3185,-5.3185,-5.3185,-5.3185,-5.3185,-5.3185,-5.3185,-5.3185,-5.3185,-5.3185,-5.3185,-5.3185,-5.3185,-5.3185,-5.3185,-5.2999,-5.2531,-5.1138,-4.9936,-4.9001,-4.9001,-4.9001,-4.9001,-4.9001,-4.9001,-4.9001,0.0,0.0,0.0,0.0,0.0,0.0,0.0,0.0,0.0,0.0,0.0,-2.9792,-2.9792,-2.9377,-2.8825,0.0,0.0,0.0,0.0,-2.8117,-2.8266,-2.7736,-2.8363,-2.8844,-2.9002,-2.969,-3.0042,-3.0042,-3.0866,-3.119,-3.1029,-3.119,-3.119,-3.0999,-3.0999,-3.0999,-3.097,-3.0329,-3.0042,-2.9981,-2.9097,-2.8748,-2.8812,-2.9535,-2.9473,-2.916,-3.0329,-3.0554,-3.0359,-3.0837,-3.1219,-3.1511,-3.1511,-3.1585,-3.2045,-3.3761,-3.3999,0.0,0.0,0.0,0.0,0.0,0.0,0.0,0.0,-4.3823,-4.4943,-4.6923,-4.7994,-4.8765,-4.9482,-4.9867,-5.0492,-5.1775,-5.2123,-5.2454,-5.3115,-5.3185,-5.3185,-5.3185,-5.3484,-5.3564,-5.323,-5.3485,-5.3564,-5.3227,-5.3185,-5.3185,-5.3185,-5.3185,-5.3185,-5.3185,-5.3185,-5.3185,-5.3185,-5.3185,-5.3185,-5.3185,-5.3185,-5.3185,-5.3185,-5.3185,-5.3185,-5.3185,-5.3185,-5.2702,-5.1832,-5.0672,-4.9722,-4.9001,-4.9001,-4.9001,-4.9001,-4.9001,-4.9001,-4.9001,0.0,0.0,0.0,0.0,0.0,0.0,0.0,0.0,0.0,0.0,0.0,0.0,0.0,0.0,0.0,0.0,0.0,0.0,-2.6624,-2.6714,-2.7074,-2.767,-2.7802,-2.8214,-2.8971,-2.9097,-2.916,-2.916,-3.0011,-3.0042,-2.9286,-3.0072,-3.0011,-2.9286,-2.9286,-2.9286,-2.9286,-2.9192,-2.916,-2.9066,-2.8214,-2.7855,-2.7855,-2.7953,-2.8395,-2.8907,-2.833,-2.9066,-3.0208,-2.9504,-3.0269,-3.1511,-3.1511,-3.1914,-3.2437,-3.2661,0.0,-3.4773,-3.6543,-3.8403,-3.9876,-4.0045,-4.0449,-4.1377,0.0,-4.4557,-4.5596,-4.7732,-4.8838,-4.9482,-4.9574,-5.0785,-5.1775,-5.1958,-5.2601,-5.3093,-5.3206,-5.3185,-5.3185,-5.3185,-5.323,-5.3251,-5.3206,-5.323,-5.3251,-5.3206,-5.3185,-5.3185,-5.3185,-5.3185,-5.3185,-5.3185,-5.3185,-5.3185,-5.3185,-5.3185,-5.3185,-5.3185,-5.3185,-5.3185,-5.3185,-5.3185,-5.3185,-5.3185,-5.3185,-5.244,-5.1189,-5.1034,-5.0202,-4.9001,-4.9001,-4.9001,-4.9001,-4.9001,-4.9001,-4.9001,0.0,0.0,0.0,0.0,0.0,0.0,0.0,0.0,0.0,0.0,0.0,0.0,0.0,0.0,0.0,0.0,0.0,0.0,-2.6512,-2.6499,-2.6658,-2.7007,-2.7007,-2.7162,-2.7537,-2.7986,-2.8247,-2.8247,-2.9129,-2.9348,-2.9002,-2.938,-2.9348,-2.9002,-2.9002,-2.9002,-2.8971,-2.846,-2.8247,-2.8182,-2.7351,-2.7007,-2.7007,-2.7007,-2.7229,-2.7637,-2.8247,-2.8907,0.0,0.0,-3.0524,-3.1511,-3.1511,-3.169,-3.2062,-3.2859,-3.3797,-3.5102,-3.7399,-3.903,-4.0096,-4.0096,-4.0602,-4.1498,-4.3124,-4.4373,-4.568,-4.7272,-4.8636,-4.9682,-5.0196,-5.1224,-5.2142,-5.2619,-5.2986,-5.3185,-5.3185,-5.3185,-5.3185,-5.3185,-5.3185,-5.3185,-5.3185,-5.3185,-5.3185,-5.3185,-5.3185,-5.3185,-5.3185,-5.3185,-5.3185,-5.3185,-5.3185,-5.3185,-5.3185,-5.3185,-5.3185,-5.3185,-5.3185,-5.3185,-5.3185,-5.3185,-5.3185,-5.3185,-5.3185,-5.2617,-5.1643,-5.1266,-5.0517,-4.9534,-4.9152,-4.9001,-4.9001,-4.9001,-4.9001,-4.9001,0.0,0.0,0.0,0.0,0.0,0.0,0.0,0.0,0.0,0.0,0.0,0.0,0.0,0.0,0.0,0.0,0.0,0.0,0.0,-2.6575,-2.6499,-2.6499,-2.6499,-2.6499,-2.6499,-2.7061,-2.7384,-2.7384,-2.8214,-2.8524,-2.833,-2.8524,-2.8524,-2.8298,-2.8298,-2.8298,-2.8266,-2.7637,-2.7384,-2.7317,-2.6714,-2.6499,-2.6499,-2.6499,-2.6658,-2.7007,-2.8214,-2.8812,0.0,0.0,-3.0837,-3.1511,-3.1511,-3.1511,-3.173,-3.2908,-3.4213,-3.582,-3.8243,-3.9489,-4.0096,-4.0096,-4.0781,-4.177,-4.3049,-4.4485,-4.591,-4.7161,-4.8728,-5.005,-5.0692,-5.1646,-5.2527,-5.3115,-5.3185,-5.3185,-5.3185,-5.3185,-5.3185,-5.3185,-5.3185,-5.3185,-5.3185,-5.3185,-5.3185,-5.3185,-5.3185,-5.3185,-5.3185,-5.3185,-5.3185,-5.3185,-5.3185,-5.3185,-5.3185,-5.3185,-5.3185,-5.3185,-5.3185,-5.3185,-5.3185,-5.3185,-5.3185,-5.3185,-5.3185,-5.268,-5.1783,-5.1292,-5.0572,-4.9664,-4.9182,-4.9001,-4.9001,-4.9001,-4.9001,-4.9001,0.0,0.0,0.0,0.0,0.0,0.0,0.0,0.0,0.0,0.0,0.0,0.0,0.0,0.0,0.0,0.0,0.0,0.0,0.0,-2.6788,-2.6499,-2.6499,-2.6499,-2.6499,-2.6499,-2.6521,-2.6521,-2.6521,-2.7351,-2.7351,-2.6589,-2.7384,-2.7317,-2.6589,-2.6589,-2.6589,-2.6555,-2.6555,-2.6521,-2.6521,-2.6499,-2.6499,-2.6499,-2.6499,-2.6973,-2.767,-2.7736,0.0,0.0,0.0,-3.0837,-3.1511,-3.1511,-3.1511,0.0,-3.2398,-3.4563,-3.7047,-3.8513,-3.9489,-4.0096,-4.0096,-4.1096,-4.2449,-4.385,-4.5219,-4.6571,-4.797,-4.9609,-5.0765,-5.0802,-5.2105,-5.3167,-5.3185,-5.3185,-5.3185,-5.3185,-5.3185,-5.3185,-5.3185,-5.3185,-5.3185,0.0,-5.3185,-5.3185,-5.3185,-5.3185,-5.3185,-5.3185,-5.3185,-5.3185,-5.3185,-5.3185,-5.3185,-5.3185,-5.3185,-5.3185,-5.3185,-5.3185,-5.3185,-5.3185,-5.3185,-5.3185,-5.3185,-5.3185,-5.2417,-5.1138,-5.1112,-5.0286,-4.9032,-4.9001,-4.9001,-4.9001,-4.9001,-4.9001,-4.9001,0.0,0.0,0.0,0.0,0.0,0.0,0.0,0.0,0.0,0.0,0.0,0.0,0.0,0.0,0.0,0.0,0.0,0.0,0.0,-2.5654,-2.5274,-2.6008,-2.5051,-2.4803,-2.5476,-2.5511,-2.5838,-2.6499,-2.6092,-2.5767,-2.5511,-2.5098,-2.4755,-2.4505,-2.4505,-2.4505,-2.4505,-2.4505,-2.4886,-2.5511,-2.5511,-2.5908,-2.6499,-2.6499,-2.6692,-2.704,0.0,0.0,0.0,0.0,-3.0837,-3.1511,-3.1511,-3.1511,-3.1933,-3.4097,-3.6055,-3.7843,-3.9302,-3.9901,-4.0096,-4.0096,-4.118,-4.2475,-4.3398,-4.5023,-4.6588,-4.75,-4.935,-5.0802,-5.0802,-5.2123,-5.3185,-5.3185,-5.3185,-5.3185,-5.3185,-5.3185,-5.3185,-5.3185,-5.3185,-5.3185,0.0,0.0,0.0,-5.3185,-5.3185,-5.3185,-5.3185,-5.3185,-5.3185,-5.3185,-5.3185,-5.3185,-5.3185,-5.3185,-5.3185,-5.3185,-5.3185,-5.3185,-5.3185,-5.3185,-5.3185,-5.3185,-5.3185,-5.2915,-5.2417,-5.1487,-5.0823,-5.0314,-4.9359,-4.9001,-4.9001,-4.9001,-4.9001,-4.9001,0.0,0.0,0.0,0.0,0.0,0.0,0.0,0.0,0.0,0.0,0.0,0.0,0.0,0.0,0.0,0.0,0.0,0.0,0.0,0.0,-2.4702,-2.5408,-2.4377,-2.4053,-2.4687,-2.4885,-2.5146,-2.5429,-2.5146,-2.4826,-2.4456,-2.3818,-2.3514,-2.3514,-2.3514,-2.3514,-2.3514,-2.3514,-2.4072,-2.5004,-2.5004,-2.5594,-2.6499,-2.6499,-2.6692,0.0,0.0,0.0,0.0,0.0,-3.1058,-3.1511,-3.1511,-3.1838,-3.2724,-3.5099,-3.6783,-3.8227,-3.9706,-4.0096,-4.0096,-4.0096,-4.123,-4.2481,-4.316,-4.4909,-4.6594,-4.7259,-4.9209,-5.0802,-5.0802,-5.2123,-5.3185,-5.3185,-5.3185,-5.3185,-5.3185,-5.3185,-5.3185,-5.3185,-5.3185,-5.3185,-5.3185,-5.3185,0.0,-5.3185,-5.3185,-5.3185,-5.3185,-5.3185,-5.3185,-5.3185,-5.3185,-5.3185,-5.3185,-5.3185,-5.3185,-5.3185,-5.3185,-5.3185,-5.3185,-5.3185,-5.3185,-5.3185,-5.3185,-5.3042,-5.2725,-5.1562,-5.0955,-5.0581,-4.9449,-4.9001,-4.9001,-4.9001,-4.9001,-4.9001,0.0,0.0,0.0,0.0,0.0,0.0,0.0,0.0,0.0,0.0,0.0,0.0,0.0,0.0,0.0,0.0,0.0,0.0,0.0,0.0,0.0,-2.4781,-2.4337,-2.4109,-2.4147,-2.4661,-2.4478,-2.3522,-2.4455,-2.4396,-2.3404,-2.3368,-2.3331,-2.3331,-2.3331,-2.3331,-2.3331,-2.3331,-2.3963,-2.4933,-2.4933,-2.5558,-2.6499,-2.6499,0.0,0.0,0.0,0.0,0.0,0.0,-3.1525,-3.1555,-3.1613,-3.2594,-3.3992,-3.546,-3.6874,-3.8278,-3.9723,-4.0096,-4.0096,-4.0096,-4.123,-4.2454,-4.3093,-4.4885,-4.6571,-4.7216,-4.9188,-5.0802,-5.0802,-5.2123,-5.3185,-5.3185,-5.3185,-5.3185,-5.3185,-5.3185,-5.3185,-5.3185,-5.3185,-5.3185,-5.3185,-5.3185,0.0,-5.3185,0.0,-5.3185,-5.3185,-5.3185,-5.3185,-5.3185,-5.3185,-5.3185,-5.3185,-5.3185,-5.3185,-5.3185,-5.3185,-5.3185,-5.3185,-5.3185,-5.3185,-5.3185,-5.3185,-5.2791,-5.2112,-5.1393,-5.0689,-4.9976,-4.9286,-4.9001,-4.9001,-4.9001,-4.9001,-4.9001,0.0,0.0,0.0,0.0,0.0,0.0,0.0,0.0,0.0,0.0,0.0,0.0,0.0,0.0,0.0,0.0,0.0,0.0,0.0,0.0,0.0,0.0,0.0,0.0,0.0,0.0,0.0,0.0,0.0,-2.2983,-2.2366,-2.168,-2.1346,-2.1346,-2.1346,-2.1346,-2.1346,-2.1346,-2.2339,-2.3891,0.0,-2.4909,-2.6499,0.0,0.0,0.0,0.0,0.0,0.0,-3.1219,-3.1824,-3.2346,-3.2951,-3.4073,-3.546,-3.6986,-3.8052,-3.892,-3.9859,-4.0096,-4.0096,-4.0096,-4.123,-4.2339,-4.2507,-4.4543,-4.6454,-4.6618,-4.8876,-5.0802,-5.0802,-5.2123,-5.3185,-5.3185,-5.3185,-5.3185,-5.3185,-5.3185,-5.3185,-5.3185,-5.3185,-5.3185,-5.3185,-5.3185,-5.3185,0.0,-5.3185,-5.3185,-5.3185,-5.3185,-5.3185,-5.3185,-5.3185,-5.3185,-5.3185,-5.3185,-5.3185,-5.3185,-5.3185,-5.3185,-5.3185,-5.3185,-5.3185,-5.3185,-5.3185,-5.3103,-5.2831,-5.1586,-5.0981,-5.0689,-4.9479,-4.9001,-4.9001,-4.9001,-4.9001,-4.9001,0.0,0.0,0.0,0.0,0.0,0.0,0.0,0.0,0.0,0.0,0.0,0.0,0.0,0.0,0.0,0.0,0.0,0.0,0.0,0.0,0.0,0.0,0.0,0.0,0.0,0.0,0.0,0.0,0.0,0.0,0.0,-2.1412,-2.1182,-2.1182,-2.0947,-2.0859,-2.0879,-2.1091,0.0,0.0,0.0,0.0,0.0,0.0,0.0,0.0,0.0,0.0,0.0,-3.2189,-3.2918,-3.3525,-3.4001,-3.5074,-3.6413,-3.7646,-3.848,-3.9157,-3.991,-4.0096,-4.018,-4.0493,-4.1441,-4.2371,-4.2709,-4.4678,-4.6407,-4.6407,-4.875,-5.0802,-5.0802,-5.2123,-5.3185,-5.3185,-5.3185,-5.3185,-5.3185,-5.3185,-5.3185,-5.3185,-5.3185,-5.3185,-5.3185,-5.3185,-5.3185,-5.3185,-5.3185,-5.3185,-5.3185,-5.3185,-5.3185,-5.3185,-5.3185,-5.3185,-5.3185,-5.3185,-5.3185,-5.3185,-5.3185,-5.3185,-5.3185,-5.3185,-5.3185,-5.3185,0.0,-5.302,-5.264,-5.1562,-5.0903,-5.05,-4.9419,-4.9001,-4.9001,-4.9001,-4.9001,-4.9001,0.0,0.0,0.0,0.0,0.0,0.0,0.0,0.0,0.0,0.0,0.0,0.0,0.0,0.0,0.0,0.0,0.0,0.0,0.0,0.0,0.0,0.0,0.0,0.0,0.0,0.0,0.0,0.0,0.0,0.0,0.0,0.0,0.0,0.0,0.0,0.0,0.0,0.0,0.0,0.0,0.0,0.0,0.0,0.0,0.0,0.0,0.0,0.0,0.0,0.0,-3.4346,-3.4858,-3.5073,-3.6038,-3.7239,-3.8037,-3.869,-3.9292,-4.0062,-4.0248,-4.0434,-4.1153,-4.1897,-4.2608,-4.324,-4.4965,-4.6407,-4.6407,-4.875,-5.0802,-5.0802,-5.2123,-5.3185,-5.3185,-5.3185,-5.3185,-5.3185,-5.3185,-5.3185,-5.3185,-5.3185,-5.3185,-5.3185,-5.3185,-5.3185,-5.3185,-5.3185,-5.3185,-5.3185,-5.3185,-5.3185,-5.3185,-5.3185,-5.3185,-5.3185,-5.3185,-5.3185,-5.3185,-5.3185,-5.3185,-5.3185,-5.3185,-5.3185,-5.3185,-5.3185,-5.2769,-5.2047,-5.1368,-5.0662,-4.9919,-4.9256,-4.9001,-4.9001,-4.9001,-4.9001,-4.8984,0.0,0.0,0.0,0.0,0.0,0.0,0.0,0.0,0.0,0.0,-2.5166,0.0,0.0,0.0,0.0,0.0,0.0,0.0,0.0,0.0,0.0,0.0,0.0,0.0,0.0,0.0,0.0,0.0,0.0,0.0,0.0,0.0,0.0,0.0,0.0,0.0,0.0,0.0,0.0,0.0,0.0,0.0,0.0,0.0,0.0,0.0,0.0,0.0,0.0,0.0,-3.5358,-3.5687,-3.7004,-3.7951,-3.8695,-3.9512,-3.9834,-4.0079,-4.0798,-4.1018,-4.1187,-4.1914,-4.2658,-4.3223,-4.3358,-4.4965,-4.6407,-4.6407,-4.875,-5.0802,-5.0802,-5.2123,-5.3185,-5.3185,-5.3185,-5.3185,-5.3185,-5.3185,-5.3185,-5.3185,-5.3185,-5.3185,-5.3185,-5.3185,-5.3185,0.0,-5.3185,-5.3185,-5.3185,-5.3185,-5.3185,-5.3185,-5.3185,-5.3185,-5.3185,-5.3185,-5.3185,-5.3185,-5.3185,-5.3185,-5.3185,-5.3185,-5.3185,-5.3185,-5.3185,0.0,-5.2047,-5.1368,-5.0662,-4.9919,-4.9256,-4.9001,-4.9001,-4.9001,-4.9001,-4.8917,0.0,0.0,0.0,0.0,0.0,0.0,0.0,0.0,0.0,0.0,-2.5547,-2.5176,0.0,0.0,0.0,0.0,0.0,0.0,0.0,0.0,0.0,0.0,0.0,0.0,0.0,0.0,-2.6154,-2.5387,0.0,0.0,0.0,-2.4292,0.0,0.0,0.0,0.0,0.0,0.0,0.0,0.0,0.0,0.0,0.0,0.0,0.0,0.0,0.0,0.0,0.0,0.0,-3.7058,-3.746,-3.8226,-3.897,-3.961,-3.9995,-4.0383,-4.0747,-4.1102,-4.1474,-4.1948,-4.2692,-4.3149,-4.3521,-4.3927,-4.526,-4.6407,-4.6407,-4.875,-5.0802,-5.0802,-5.2123,-5.3185,-5.3185,-5.3185,-5.3185,-5.3185,-5.3185,-5.3185,-5.3185,-5.3185,-5.3185,-5.3185,-5.3185,-5.3185,-5.3185,-5.3185,-5.3185,-5.3185,-5.3185,-5.3185,-5.3185,-5.3185,-5.3185,-5.3185,-5.3185,-5.3185,-5.3185,-5.3185,-5.3185,-5.3185,-5.3185,-5.3185,-5.3185,-5.3185,-5.2595,-5.1544,-5.1241,-5.0462,-4.9449,-4.9138,-4.9001,-4.9001,-4.9001,-4.8765,-4.8392,0.0,0.0,0.0,0.0,0.0,0.0,0.0,-2.5693,-2.5693,-2.5693,-2.5693,-2.5605,-2.5254,-2.4521,0.0,0.0,0.0,0.0,0.0,0.0,0.0,0.0,0.0,0.0,0.0,0.0,0.0,-2.6842,-2.6842,0.0,0.0,0.0,0.0,0.0,-2.6109,0.0,0.0,0.0,0.0,0.0,0.0,0.0,0.0,0.0,0.0,0.0,0.0,0.0,0.0,0.0,-3.8506,-3.8968,-3.9295,-3.9702,-4.013,-4.0299,-4.0747,-4.1271,-4.1593,-4.21,-4.2726,-4.347,-4.3673,-4.3826,-4.4479,-4.5433,-4.6293,-4.6595,-4.8752,-5.0678,-5.1002,-5.2234,-5.3185,-5.3185,-5.3185,-5.3185,-5.3185,-5.3185,-5.3185,-5.3185,-5.3185,-5.3185,-5.3185,-5.3185,0.0,-5.3185,-5.3185,-5.3185,-5.3185,-5.3185,-5.3185,-5.3185,-5.3185,-5.3185,-5.3185,-5.3185,-5.3185,-5.3185,-5.3185,-5.3185,-5.3185,-5.3185,-5.3185,-5.3185,-5.3185,-5.2417,-5.1086,-5.1086,-5.0258,-4.9001,-4.9001,-4.9001,-4.8984,-4.8832,-4.8409,-4.7838,0.0,0.0,0.0,0.0,0.0,0.0,0.0,-2.5693,-2.5693,-2.5693,-2.5693,-2.5674,-2.5635,-2.5244,0.0,0.0,0.0,0.0,0.0,0.0,0.0,0.0,0.0,0.0,0.0,0.0,0.0,-2.7964,-2.7964,0.0,0.0,0.0,0.0,0.0,0.0,-2.6457,-2.6487,0.0,0.0,0.0,0.0,0.0,0.0,0.0,0.0,0.0,0.0,-3.646,-3.675,-3.83,-3.8859,-3.9131,-4.0563,-4.0577,-4.0231,-4.0899,-4.1153,-4.1491,-4.2817,-4.324,-4.3504,-4.4282,-4.4496,-4.4513,-4.4581,-4.5115,-4.5966,-4.7314,-4.8796,-5.0308,-5.1637,-5.2619,-5.3185,-5.3185,-5.3185,-5.3185,-5.3185,-5.3185,-5.3185,-5.3185,-5.3185,-5.3185,-5.3185,-5.3185,-5.3185,-5.3185,-5.3185,-5.3185,-5.3185,-5.3185,-5.3185,-5.3185,-5.3185,-5.3185,-5.3185,-5.3185,-5.3185,-5.3185,-5.3185,-5.3185,-5.3185,-5.3185,-5.3185,-5.3185,-5.3185,-5.2417,0.0,-5.1086,-5.0258,-4.9001,-4.9001,-4.9001,-4.8934,-4.8257,-4.7939,-4.7703,0.0,0.0,0.0,0.0,0.0,0.0,0.0,-2.5693,-2.5693,-2.5693,-2.5693,-2.5965,-2.6754,-2.6686,-2.6496,0.0,0.0,0.0,0.0,0.0,0.0,0.0,0.0,0.0,0.0,0.0,0.0,-2.9106,-2.9106,0.0,0.0,0.0,0.0,0.0,0.0,-2.8502,-2.8502,0.0,0.0,0.0,0.0,0.0,0.0,0.0,0.0,0.0,0.0,0.0,-3.8157,-3.9262,-3.9912,-4.0383,-4.1024,-4.1305,0.0,-4.1779,-4.2185,-4.2632,-4.324,-4.3758,-4.4198,-4.453,-4.4615,-4.4733,-4.5162,-4.5747,-4.6586,-4.8067,-4.9483,-5.0782,-5.182,-5.2656,-5.3185,-5.3185,-5.3185,0.0,-5.3185,-5.3185,-5.3185,-5.3185,-5.3185,-5.3185,-5.3185,0.0,-5.3185,-5.3185,-5.3185,-5.3185,-5.3185,-5.3185,-5.3185,-5.3185,-5.3185,-5.3185,-5.3185,-5.3185,-5.3185,-5.3185,-5.3185,-5.3185,-5.3185,-5.3185,-5.3185,-5.3185,-5.3185,-5.2617,0.0,-5.1266,-5.0517,-4.9529,-4.8676,-4.8359,-4.8257,-4.7513,-4.6972,-4.6498,0.0,0.0,0.0,0.0,0.0,0.0,-2.5693,-2.5693,-2.5693,-2.5693,-2.5693,-2.6207,-2.7458,-2.7908,-2.8132,-2.8154,0.0,0.0,0.0,0.0,0.0,0.0,0.0,0.0,0.0,0.0,0.0,-2.9792,-2.9792,-2.9792,0.0,0.0,-2.9792,-2.9792,0.0,0.0,0.0,0.0,0.0,0.0,0.0,0.0,0.0,0.0,0.0,0.0,0.0,0.0,0.0,0.0,0.0,-4.1288,-4.1711,0.0,0.0,0.0,-4.2997,-4.3443,-4.3707,-4.4164,-4.4649,-4.4886,-4.4925,-4.5111,-4.5855,-4.634,-4.7084,-4.853,-4.9795,-5.0924,-5.1854,-5.2657,-5.3185,0.0,0.0,-5.3185,-5.3185,-5.3185,-5.3185,-5.3185,-5.3185,-5.3185,-5.3185,-5.3185,-5.3185,-5.3185,-5.3185,-5.3185,-5.3185,-5.3185,-5.3185,-5.3185,-5.3185,-5.3185,-5.3185,-5.3185,-5.3185,-5.3185,-5.3185,-5.3185,-5.3185,-5.3185,-5.3185,-5.3185,-5.3185,-5.2769,0.0,-5.1368,-5.0539,-4.9567,-4.8371,-4.7753,-4.7496,-4.6752,-4.6143,-4.5669,0.0,0.0,0.0,0.0,0.0,0.0,0.0,-2.5693,-2.5693,-2.5693,-2.5693,-2.6207,-2.7458,-2.868,-2.9852,-3.1033,0.0,0.0,0.0,0.0,0.0,0.0,0.0,0.0,0.0,0.0,0.0,0.0,0.0,-2.9792,-2.9792,-2.9792,-2.9792,-2.9792,0.0,0.0,0.0,0.0,0.0,0.0,0.0,0.0,0.0,0.0,0.0,0.0,0.0,0.0,0.0,0.0,0.0,0.0,0.0,0.0,0.0,0.0,-4.3375,-4.3561,-4.435,-4.4598,-4.4784,-4.5517,-4.5703,-4.5889,-4.6616,-4.6798,-4.7219,-4.8622,-4.9495,-5.0435,-5.1856,-5.2707,-5.3185,-5.3185,-5.3185,0.0,-5.3185,-5.3185,-5.3185,-5.3185,-5.3185,-5.3185,-5.3185,-5.3185,-5.3185,-5.3185,-5.3185,0.0,-5.3185,-5.3185,-5.3185,-5.3185,-5.3185,-5.3185,-5.3185,-5.3185,-5.3185,-5.3185,-5.3185,-5.3185,-5.3185,-5.3185,-5.3185,-5.3185,-5.3185,-5.2769,0.0,-5.1368,-5.025,-4.8834,-4.815,-4.7462,-4.6718,-4.5974,-4.572,-4.5602,0.0,0.0,0.0,0.0,0.0,0.0,0.0,-2.5693,-2.6014,-2.6897,-2.6982,-2.7767,-2.9863,-3.0406,-3.1134,-3.2382,0.0,0.0,0.0,0.0,0.0,0.0,0.0,0.0,0.0,0.0,0.0,0.0,0.0,0.0,0.0,0.0,-3.0357,-3.0371,-3.0624,-3.0758,0.0,0.0,0.0,0.0,0.0,0.0,0.0,0.0,0.0,0.0,0.0,0.0,0.0,0.0,0.0,0.0,0.0,0.0,0.0,0.0,0.0,-4.4384,-4.5145,-4.5348,-4.5534,-4.6261,-4.6447,-4.6633,-4.7394,-4.7564,-4.7942,-4.9361,-5.0258,-5.1033,-5.194,-5.2707,-5.3185,-5.3185,-5.3185,-5.3185,-5.3185,-5.3185,-5.3185,-5.3185,-5.3185,-5.3185,-5.3185,-5.3185,-5.3185,-5.3185,-5.3185,-5.3185,-5.3185,-5.3185,-5.3185,-5.3185,-5.3185,-5.3185,-5.3185,-5.3185,-5.3185,-5.3185,-5.3185,-5.3185,-5.3185,-5.3185,-5.3185,-5.3185,-5.3185,-5.2752,-5.1949,-5.0825,-4.9745,-4.8679,-4.7033,-4.6261,-4.5957,-4.5213,-4.4942,-4.4891,0.0,0.0,0.0,0.0,0.0,0.0,0.0,-2.5693,-2.6159,-2.7447,-2.7589,-2.8495,-3.0944,-3.1223,-3.1733,-3.2982,0.0,0.0,0.0,0.0,0.0,0.0,0.0,0.0,0.0,0.0,0.0,0.0,0.0,0.0,0.0,0.0,0.0,0.0,-3.2377,0.0,0.0,0.0,0.0,0.0,0.0,0.0,-3.7468,0.0,0.0,0.0,0.0,0.0,0.0,0.0,0.0,0.0,0.0,0.0,0.0,0.0,-4.5196,-4.5449,-4.5652,-4.5906,-4.6295,-4.7039,-4.7225,-4.7411,-4.8156,-4.8342,-4.8548,-4.9448,-5.0407,-5.1215,-5.1661,-5.2531,-5.3185,-5.3185,-5.3185,-5.3185,-5.3185,-5.3185,-5.3185,-5.3185,-5.3185,-5.3185,-5.3185,-5.3185,-5.3185,-5.3185,-5.3185,-5.3185,-5.3185,-5.3185,-5.3185,-5.3185,-5.3185,-5.3185,-5.3185,-5.3185,-5.3185,-5.3185,-5.3185,-5.3185,-5.3185,-5.3185,-5.3041,-5.2726,-5.248,-5.1901,0.0,-4.9735,-4.8721,-4.7838,-4.6287,-4.5534,-4.5229,-4.4784,-4.4615,-4.4615,0.0,0.0,0.0,0.0,0.0,0.0,0.0,0.0,0.0,0.0,-2.7899,-2.8872,-3.1196,-3.1475,-3.193,0.0,0.0,0.0,0.0,0.0,0.0,0.0,0.0,0.0,0.0,0.0,0.0,0.0,-3.4807,-3.4807,-3.4719,0.0,0.0,0.0,0.0,0.0,0.0,0.0,0.0,0.0,0.0,0.0,0.0,0.0,0.0,0.0,0.0,0.0,0.0,0.0,0.0,0.0,0.0,0.0,0.0,0.0,0.0,0.0,0.0,-4.6363,-4.7056,-4.777,-4.7973,-4.8173,-4.8849,-4.9001,0.0,-4.9001,-5.0135,-5.1086,-5.1086,-5.226,-5.3185,-5.3185,-5.3185,-5.3185,-5.3185,-5.3185,-5.3185,-5.3185,-5.3185,-5.3185,-5.3185,-5.3185,-5.3185,-5.3185,-5.3185,-5.3185,-5.3185,-5.3185,-5.3185,-5.3185,-5.3185,-5.3185,-5.3185,-5.3185,-5.3185,-5.3185,-5.3185,-5.3185,-5.3185,-5.313,-5.269,0.0,-5.1197,-5.0426,-4.9545,-4.8267,-4.728,-4.6551,-4.588,-4.5196,-4.4615,-4.4615,-4.4615,-4.4615,0.0,0.0,0.0,0.0,0.0,0.0,0.0,0.0,0.0,0.0,0.0,-3.2204,-3.3716,-3.3863,0.0,0.0,0.0,0.0,0.0,0.0,0.0,0.0,0.0,0.0,0.0,0.0,0.0,-3.5822,-3.6636,-3.6636,-3.5822,-3.5418,0.0,0.0,0.0,0.0,0.0,0.0,0.0,0.0,0.0,0.0,0.0,0.0,0.0,0.0,-4.3067,-4.3538,0.0,0.0,0.0,0.0,0.0,0.0,0.0,0.0,-4.7056,-4.7614,-4.7415,0.0,-4.7834,-4.8562,-4.8748,-4.8798,0.0,-4.9001,-4.9001,-4.9001,-5.0135,-5.1086,-5.1086,-5.226,-5.3185,-5.3185,-5.3185,-5.3185,-5.3185,-5.3185,-5.3185,-5.3185,-5.3185,-5.3185,-5.3185,-5.3185,-5.3185,-5.3185,-5.3185,-5.3185,-5.3185,-5.3185,-5.3185,-5.3185,-5.3185,-5.3185,-5.3185,-5.3185,-5.3185,-5.3185,-5.3185,-5.3185,-5.3167,-5.2564,-5.1895,-5.1193,-5.0421,-4.9364,-4.8134,-4.7299,-4.6499,-4.5719,-4.5097,-4.4767,-4.4615,-4.4615,-4.4615,-4.4615,0.0,0.0,0.0,0.0,0.0,0.0,0.0,0.0,0.0,0.0,0.0,0.0,0.0,0.0,0.0,0.0,0.0,0.0,0.0,0.0,0.0,0.0,0.0,0.0,0.0,0.0,0.0,0.0,0.0,-3.8256,0.0,0.0,0.0,0.0,0.0,0.0,0.0,0.0,0.0,0.0,-3.938,0.0,0.0,0.0,0.0,0.0,-4.3944,-4.4215,0.0,-4.4615,-4.4835,-4.5162,0.0,0.0,0.0,0.0,-4.7834,-4.8379,-4.8379,-4.8379,-4.8511,-4.89,-4.9001,-4.9001,-4.9001,-4.9001,-4.9001,-4.9001,-5.0135,-5.1086,-5.1086,-5.226,-5.3185,-5.3185,-5.3185,-5.3185,-5.3185,-5.3185,-5.3185,-5.3185,-5.3185,-5.3185,0.0,-5.3185,-5.3185,-5.3185,-5.3185,-5.3185,-5.3185,-5.3185,-5.3185,-5.3185,-5.3185,-5.3185,-5.3185,-5.3185,-5.3185,-5.3185,-5.3185,-5.3023,-5.2637,-5.2197,-5.1391,-5.0311,-4.9293,-4.817,-4.7037,-4.6118,-4.5476,-4.5035,-4.472,-4.4615,-4.4615,-4.4615,-4.4615,-4.4615,0.0,0.0,0.0,0.0,0.0,0.0,0.0,0.0,0.0,0.0,0.0,0.0,0.0,0.0,0.0,0.0,0.0,0.0,0.0,0.0,0.0,0.0,0.0,0.0,0.0,0.0,0.0,0.0,0.0,0.0,0.0,0.0,-3.9514,0.0,0.0,0.0,0.0,0.0,0.0,0.0,-4.0683,0.0,0.0,0.0,0.0,0.0,0.0,0.0,0.0,-4.4733,-4.5179,-4.5737,-4.5974,0.0,0.0,0.0,0.0,0.0,-4.9001,-4.9001,-4.9001,-4.9001,-4.9001,-4.9001,-4.9001,0.0,0.0,0.0,0.0,0.0,-5.1086,-5.226,-5.3185,-5.3185,-5.3185,-5.3185,-5.3185,-5.3185,-5.3185,-5.3185,-5.3185,0.0,-5.3185,-5.3185,-5.3185,-5.3185,-5.3185,-5.3185,-5.3185,-5.3185,-5.3185,-5.3185,-5.3185,-5.3185,-5.3185,-5.3185,-5.3185,-5.3185,-5.3096,-5.2656,-5.1977,-5.1759,-5.0776,-4.9257,0.0,0.0,-4.6046,-4.5115,-4.4665,-4.4615,-4.4615,-4.4615,-4.4615,-4.4615,-4.4615,-4.4581,0.0,0.0,0.0,0.0,0.0,0.0,0.0,0.0,0.0,0.0,0.0,0.0,0.0,0.0,0.0,0.0,0.0,0.0,0.0,0.0,0.0,0.0,0.0,0.0,0.0,0.0,0.0,0.0,0.0,0.0,-4.107,-4.0502,-3.9948,0.0,0.0,0.0,-3.9373,-3.9305,-3.9334,-3.9538,-4.117,0.0,0.0,0.0,0.0,0.0,0.0,0.0,0.0,-4.5314,-4.5618,-4.5923,-4.7162,0.0,0.0,0.0,0.0,0.0,-4.9001,-4.9001,-4.9001,-4.9001,-4.9001,-4.9001,-4.9001,-4.9001,0.0,0.0,0.0,0.0,0.0,-5.226,-5.3185,-5.3185,-5.3185,-5.3185,-5.3185,-5.3185,-5.3185,-5.3185,0.0,-5.3185,-5.3185,-5.3185,-5.3185,-5.3185,-5.3185,-5.3185,-5.3185,-5.3185,-5.3185,-5.3185,-5.3185,-5.3185,-5.3185,-5.3185,-5.3185,-5.3185,-5.2509,-5.2105,-5.194,-5.0602,-4.925,-4.7973,0.0,-4.6477,-4.4906,-4.5232,-4.5062,-4.4615,-4.4615,-4.4615,-4.4615,-4.4615,-4.4615,-4.4513,0.0,0.0,0.0,0.0,0.0,0.0,0.0,0.0,0.0,0.0,0.0,0.0,0.0,0.0,0.0,0.0,0.0,0.0,0.0,0.0,0.0,0.0,0.0,0.0,0.0,0.0,0.0,0.0,0.0,-4.1422,-4.1407,-4.107,-4.0771,-4.0472,0.0,0.0,-3.9948,-3.9948,-3.9738,-3.9538,0.0,0.0,0.0,0.0,0.0,0.0,0.0,0.0,0.0,0.0,-4.6566,-4.7022,-4.7669,0.0,0.0,0.0,0.0,0.0,-4.9001,-4.9001,-4.9001,-4.9001,-4.9001,-4.9001,-4.9001,-4.9001,-4.9001,0.0,0.0,0.0,-5.1086,-5.226,-5.3185,-5.3185,-5.3185,-5.3185,-5.3185,-5.3185,-5.3185,0.0,0.0,-5.3185,-5.3185,-5.3185,-5.3185,-5.3185,-5.3185,-5.3185,-5.3185,-5.3185,-5.3185,-5.3185,-5.3185,-5.3185,-5.3185,-5.2766,-5.2546,-5.2546,-5.2179,-5.1536,-5.0694,-4.9941,-4.8857,-4.7514,0.0,-4.6185,-4.5089,-4.5025,-4.4852,-4.4615,-4.4615,-4.4615,-4.4564,-4.4113,-4.369,-4.3234,0.0,0.0,0.0,0.0,0.0,0.0,0.0,0.0,0.0,0.0,0.0,0.0,0.0,0.0,0.0,0.0,0.0,0.0,0.0,0.0,0.0,0.0,0.0,0.0,0.0,0.0,-4.1833,-4.1833,-4.1833,-4.1758,-4.1647,-4.1647,-4.1572,0.0,0.0,0.0,-4.0621,-4.0621,-4.0337,-4.0004,0.0,0.0,0.0,0.0,0.0,0.0,0.0,0.0,0.0,0.0,0.0,0.0,0.0,0.0,0.0,-4.9001,-4.9001,-4.9001,-4.9001,-4.9001,-4.9001,-4.9001,-4.9001,-4.9001,-4.9001,-4.9001,-4.9001,0.0,0.0,0.0,-5.106,-5.226,-5.3185,-5.3185,-5.3185,-5.3185,-5.3185,-5.3185,-5.3185,-5.3185,-5.3185,-5.3185,-5.3185,-5.3185,-5.3185,-5.3185,-5.3185,-5.3185,-5.3185,-5.3185,-5.3185,-5.3185,-5.3185,-5.3185,-5.3185,-5.2399,-5.1995,-5.1995,-5.161,-5.0705,-4.9356,-4.9175,-4.8314,-4.6932,-4.6571,-4.5989,-4.5267,-4.4961,-4.472,-4.4615,-4.4615,-4.4496,-4.4215,-4.3436,-4.2675,-4.1965,0.0,0.0,0.0,0.0,0.0,0.0,0.0,0.0,0.0,0.0,0.0,0.0,0.0,0.0,0.0,0.0,0.0,0.0,0.0,0.0,0.0,0.0,0.0,0.0,0.0,-4.3155,-4.3155,-4.3155,-4.3155,-4.288,-4.2336,-4.2336,-4.2006,-4.1422,0.0,0.0,-4.1347,-4.1347,-4.128,-4.1408,-4.3214,0.0,0.0,0.0,0.0,0.0,0.0,0.0,0.0,0.0,0.0,0.0,0.0,0.0,-4.9001,-4.9001,-4.9001,-4.9001,-4.9001,-4.9001,-4.9001,-4.9001,-4.9001,-4.9001,-4.9001,-4.9001,0.0,-4.9001,0.0,0.0,-5.0981,-5.226,-5.3185,-5.3185,-5.3185,-5.3185,-5.3185,0.0,-5.3185,-5.3185,-5.3185,-5.3185,-5.3185,-5.3185,-5.3185,-5.3185,-5.3185,-5.3185,-5.3185,-5.3185,-5.3185,-5.3185,-5.3185,-5.3185,-5.3185,-5.2399,-5.1995,-5.1977,-5.0492,-4.9387,-4.8641,-4.7882,-4.685,-4.5673,-4.6167,-4.5732,-4.4692,-4.5232,-4.5115,-4.4615,-4.4615,-4.413,-4.3392,-4.2642,-4.1914,-4.1271,0.0,0.0,0.0,0.0,0.0,0.0,0.0,0.0,0.0,0.0,0.0,0.0,0.0,0.0,0.0,0.0,0.0,0.0,0.0,0.0,0.0,0.0,0.0,-4.329,-4.329,-4.329,-4.329,-4.329,-4.329,-4.317,-4.297,-4.297,0.0,0.0,0.0,0.0,-4.2036,-4.2036,-4.1796,-4.152,-4.2751,-4.3231,0.0,0.0,0.0,0.0,0.0,0.0,0.0,0.0,-4.8595,-4.8646,0.0,-4.9001,-4.9001,-4.9001,-4.9001,-4.9001,-4.9001,-4.9001,-4.9001,-4.9001,-4.9001,0.0,0.0,-4.9001,-4.9001,-4.9001,-4.9534,0.0,-5.1519,-5.2154,-5.2662,-5.3143,-5.3185,-5.3185,-5.3185,-5.3185,-5.3185,-5.3185,-5.3185,-5.3185,-5.3185,-5.3185,-5.3185,-5.3185,-5.3185,-5.3185,-5.3185,-5.3185,-5.3185,-5.3185,-5.3185,-5.2968,-5.2454,-5.1241,-5.0395,-4.9883,-4.9265,-4.8367,-4.7224,-4.6921,-4.6312,-4.5494,-4.5732,-4.5372,-4.4626,-4.4841,-4.4497,-4.3809,-4.3335,-4.2692,-4.2016,-4.1728,-4.1153,-4.0536,0.0,0.0,0.0,0.0,0.0,0.0,0.0,0.0,0.0,0.0,0.0,0.0,0.0,0.0,0.0,0.0,0.0,0.0,0.0,0.0,0.0,0.0,0.0,-4.329,-4.329,-4.329,-4.329,-4.329,-4.329,-4.329,-4.329,0.0,0.0,0.0,0.0,0.0,0.0,-4.2671,-4.2402,-4.2074,-4.2993,-4.3366,0.0,0.0,0.0,0.0,0.0,0.0,0.0,0.0,0.0,0.0,0.0,0.0,0.0,0.0,-4.9001,-4.9001,-4.9001,-4.9001,-4.9001,-4.9001,0.0,0.0,-4.9001,-4.9001,-4.9001,-4.9001,-4.9722,-5.0581,-5.13,0.0,-5.2271,-5.2769,-5.2853,-5.2937,-5.3164,-5.3185,-5.3185,-5.3185,-5.3185,-5.3185,-5.3185,-5.3185,-5.3185,-5.3185,-5.3185,-5.3185,-5.3185,-5.3185,-5.3185,-5.3185,-5.2968,-5.2462,-5.1691,-5.0174,-4.8942,-4.7997,-4.7747,-4.708,-4.6136,-4.6136,-4.5783,-4.5205,-4.5205,-4.4971,-4.4581,-4.4344,-4.3758,-4.298,-4.2236,-4.1644,-4.117,-4.0933,-4.0527,-4.0096,0.0,0.0,0.0,0.0,0.0,0.0,0.0,0.0,0.0,0.0,0.0,0.0,0.0,0.0,0.0,0.0,0.0,0.0,0.0,0.0,0.0,0.0,0.0,-4.329,-4.329,-4.329,-4.329,-4.329,-4.329,-4.329,-4.329,-4.329,0.0,0.0,0.0,0.0,0.0,0.0,-4.329,-4.3409,-4.4358,-4.4774,-4.4887,0.0,0.0,0.0,0.0,0.0,0.0,0.0,-4.9001,0.0,0.0,0.0,0.0,0.0,-4.9001,-4.9001,-4.9001,-4.9001,-4.9001,-4.9001,0.0,0.0,-4.9001,-4.9001,-4.9001,-4.9001,-5.0107,-5.085,-5.0129,-5.1146,-5.2089,-5.2089,-5.2089,-5.2358,-5.3082,-5.3185,-5.3185,-5.3185,-5.3185,-5.3185,-5.3185,-5.3185,-5.3185,-5.3185,-5.3185,-5.3185,-5.3185,-5.3185,-5.3185,-5.3185,-5.2417,-5.1651,-5.0972,-4.9392,-4.7932,-4.6682,-4.5884,-4.5485,-4.5485,-4.5485,-4.5169,-4.4615,-4.4615,-4.4615,-4.453,-4.3724,-4.2963,-4.2202,-4.1474,-4.1187,-4.1102,-4.0383,-4.0096,-4.0096,0.0,0.0,0.0,0.0,0.0,0.0,0.0,0.0,0.0,0.0,0.0,0.0,0.0,0.0,0.0,0.0,0.0,0.0,0.0,0.0,0.0,0.0,0.0,0.0,0.0,0.0,-4.329,-4.329,-4.329,-4.329,0.0,0.0,0.0,-4.329,0.0,0.0,0.0,0.0,0.0,-4.3329,-4.363,-4.3732,-4.3849,0.0,0.0,0.0,0.0,0.0,0.0,0.0,0.0,0.0,0.0,0.0,0.0,-4.9001,-4.9001,-4.9001,-4.9001,-4.9001,-4.9001,-4.9001,-4.9001,0.0,0.0,-4.9001,0.0,0.0,-4.9346,-4.971,-4.9947,-5.0335,-5.0779,-5.1317,-5.1393,-5.1469,-5.1703,-5.2131,-5.2445,-5.2445,-5.2445,-5.2445,-5.2445,-5.2012,-5.1922,-5.2381,-5.1988,-5.2149,-5.3143,-5.2707,-5.2191,-5.1673,-5.1419,-5.0444,-4.8687,-4.7749,-4.679,-4.5866,-4.5192,-4.4869,-4.4869,-4.4869,-4.4759,-4.4615,-4.4615,-4.4265,-4.3673,-4.2388,-4.1728,-4.1457,-4.0696,-4.0434,-4.0417,-4.018,-4.0096,-4.0096,0.0,0.0,0.0,0.0,0.0,0.0,0.0,0.0,0.0,0.0,0.0,0.0,0.0,0.0,0.0,0.0,0.0,0.0,0.0,0.0,0.0,0.0,0.0,0.0,0.0,-4.329,-4.329,0.0,0.0,0.0,0.0,0.0,0.0,-4.329,0.0,-4.329,0.0,0.0,0.0,-4.329,-4.329,-4.329,-4.3369,0.0,0.0,0.0,0.0,0.0,0.0,0.0,0.0,0.0,0.0,0.0,0.0,-4.8433,-4.8719,-4.9001,-4.9001,-4.9001,-4.9001,-4.9001,-4.9001,-4.9001,-4.9001,0.0,0.0,0.0,-4.9212,-4.9432,-4.9563,-4.9821,0.0,-5.0581,-5.0662,-5.077,-5.106,-5.1444,-5.1692,-5.1692,-5.1692,-5.1692,-5.1692,-5.1343,-5.1266,-5.1667,-5.1317,-5.1462,-5.2307,-5.1946,-5.1358,-5.0635,-5.0294,-4.9216,-4.7314,-4.6568,-4.5857,-4.5142,-4.4759,-4.4615,-4.4615,-4.4615,-4.4615,-4.4581,-4.4248,-4.3521,-4.2472,-4.1576,-4.1035,-4.0713,-4.0282,-4.0096,-4.0096,-4.0096,-4.0096,-4.0096,0.0,0.0,0.0,0.0,0.0,0.0,0.0,0.0,0.0,0.0,0.0,0.0,0.0,0.0,0.0,0.0,0.0,0.0,0.0,0.0,0.0,0.0,0.0,0.0,0.0,0.0,0.0,0.0,0.0,0.0,0.0,0.0,-4.329,-4.329,0.0,-4.329,0.0,0.0,0.0,0.0,-4.329,-4.329,0.0,0.0,0.0,0.0,0.0,0.0,0.0,0.0,0.0,0.0,-4.6208,-4.6781,-4.7473,-4.7473,-4.8161,-4.8861,-4.8861,-4.8923,-4.9001,-4.9001,-4.9001,-4.9001,-4.9001,-4.9001,-4.9001,-4.9001,0.0,-4.9722,-4.9107,-4.9492,-4.989,-4.989,-4.989,-5.0129,-5.0796,-5.0955,-5.1008,-5.1008,-5.1008,-5.1008,-5.1008,-5.0929,-5.0929,-5.0981,-5.0929,-5.0955,-5.1086,-5.0963,-5.0548,-4.9814,-4.9036,-4.794,-4.6533,-4.5779,-4.5125,-4.4615,-4.4615,-4.4615,-4.4615,-4.4615,-4.4564,-4.4445,-4.3589,-4.2455,-4.1204,-4.1136,-4.0696,-4.0096,-4.0096,-4.0096,-4.0096,-4.0096,-4.0096,-4.0096,0.0,0.0,0.0,0.0,0.0,0.0,0.0,0.0,0.0,0.0,0.0,0.0,0.0,0.0,0.0,0.0,0.0,0.0,0.0,0.0,0.0,0.0,0.0,0.0,0.0,0.0,0.0,0.0,0.0,0.0,0.0,0.0,0.0,-4.329,0.0,-4.329,0.0,0.0,0.0,0.0,-4.329,-4.329,-4.329,0.0,0.0,0.0,0.0,0.0,0.0,0.0,0.0,0.0,-4.6208,-4.6349,-4.6488,-4.6488,-4.7172,-4.7901,-4.7901,-4.8433,-4.9001,-4.9001,-4.9001,-4.9001,-4.9001,-4.9001,-4.9001,-4.9001,-4.9107,-4.9182,-4.9032,-4.9107,-4.9212,-4.9212,-4.9212,-4.9256,-4.9419,-4.9907,-5.0241,-5.0241,-5.0241,-5.0241,-5.0241,-4.9751,-4.9681,-5.0185,-4.9751,-4.9936,-5.1034,-5.0003,-4.9042,-4.8293,-4.7535,-4.6463,-4.5069,-4.4871,-4.472,-4.4615,-4.4615,-4.4615,-4.4615,-4.4615,-4.4248,-4.3589,-4.2252,-4.1491,-4.117,-4.0561,-4.0248,-4.0096,-4.0096,-4.0096,-4.0096,-4.0096,-4.0096,-4.0096,0.0,0.0,0.0,0.0,0.0,0.0,0.0,0.0,0.0,0.0,0.0,0.0,0.0,0.0,0.0,0.0,0.0,0.0,0.0,0.0,0.0,0.0,0.0,0.0,0.0,0.0,0.0,0.0,0.0,0.0,0.0,0.0,0.0,-4.329,0.0,-4.329,0.0,0.0,0.0,0.0,0.0,0.0,0.0,0.0,0.0,-4.329,-4.329,0.0,0.0,0.0,0.0,0.0,0.0,0.0,-4.5525,-4.5525,-4.6189,-4.6918,-4.6918,-4.7622,-4.8433,-4.8892,-4.9001,-4.9001,-4.9001,-4.9001,-4.9001,-4.9001,-4.9001,-4.9001,-4.9001,-4.9001,-4.9001,-4.9001,-4.9001,-4.9001,-4.9001,-4.9316,-4.9504,-4.9504,-4.9504,-4.9504,-4.9504,-4.9212,-4.9121,-4.9492,-4.9212,-4.9163,-4.953,-4.8856,-4.7923,-4.6837,-4.6426,-4.5712,-4.4615,-4.4615,-4.4615,-4.4615,-4.4615,-4.4412,-4.4028,-4.4028,-4.3606,-4.2811,-4.1694,-4.1001,-4.0629,-4.0265,-4.0096,-4.0096,-4.0096,-4.0096,-4.0096,-4.0096,-4.0096,-4.0096,0.0,0.0,0.0,0.0,0.0,0.0,0.0,0.0,0.0,0.0,0.0,0.0,0.0,0.0,0.0,0.0,0.0,0.0,0.0,0.0,0.0,0.0,0.0,0.0,0.0,0.0,0.0,0.0,0.0,0.0,0.0,0.0,0.0,-4.329,0.0,0.0,0.0,0.0,0.0,0.0,0.0,0.0,0.0,0.0,0.0,-4.329,-4.329,-4.329,-4.329,-4.329,0.0,0.0,0.0,0.0,-4.4548,-4.4548,-4.5211,-4.5977,-4.5977,-4.6747,-4.7803,-4.8576,-4.8892,-4.9001,-4.9001,-4.9001,-4.9001,-4.9001,-4.9001,-4.9001,-4.9001,-4.9001,-4.9001,-4.9001,-4.9001,-4.9001,-4.9001,-4.9001,-4.9001,-4.9001,-4.9001,-4.9001,-4.9001,-4.9001,-4.9001,-4.9001,-4.8883,-4.8545,-4.7922,-4.7652,-4.6942,-4.5737,-4.5585,-4.5213,-4.4615,-4.4615,-4.4615,-4.4615,-4.4479,-4.4045,-4.3375,-4.3122,-4.2692,-4.2066,-4.1322,-4.0646,-4.0096,-4.0096,-4.0096,-4.0096,-4.0096,-4.0096,-4.0096,-4.0096,-4.0096,-4.0096,0.0,0.0,0.0,0.0,0.0,0.0,0.0,0.0,0.0,0.0,0.0,0.0,0.0,0.0,0.0,0.0,0.0,0.0,0.0,0.0,0.0,0.0,0.0,0.0,0.0,0.0,0.0,0.0,0.0,0.0,0.0,0.0,0.0,-4.329,0.0,0.0,0.0,0.0,0.0,0.0,0.0,0.0,0.0,0.0,0.0,-4.329,-4.329,-4.329,-4.329,-4.329,-4.329,0.0,0.0,0.0,-4.3512,-4.3512,-4.422,-4.4983,-4.4983,0.0,-4.7622,0.0,-4.8401,-4.9001,0.0,0.0,-4.9001,0.0,-4.9001,-4.9001,-4.9001,-4.9001,-4.9001,-4.9001,-4.9001,-4.9001,-4.9001,-4.9001,-4.9001,-4.9001,-4.9001,-4.9001,-4.9001,-4.9001,-4.9001,-4.9001,-4.8426,-4.799,-4.7889,-4.6701,-4.5906,-4.572,-4.5077,-4.4699,-4.4615,-4.4615,-4.4615,-4.4598,-4.3893,-4.3494,-4.3341,-4.2083,-4.1441,-4.1305,-4.0587,-4.0197,-4.0096,-4.0096,-4.0096,-4.0096,-4.0096,-4.0096,-4.0096,-4.0096,-4.0096,-4.0096,0.0,0.0,0.0,0.0,0.0,0.0,0.0,0.0,0.0,0.0,0.0,0.0,0.0,0.0,0.0,0.0,0.0,0.0,0.0,0.0,0.0,0.0,-4.329,0.0,0.0,0.0,0.0,0.0,0.0,0.0,0.0,-4.329,-4.329,0.0,0.0,0.0,0.0,0.0,0.0,0.0,0.0,0.0,0.0,0.0,0.0,0.0,-4.329,-4.329,-4.329,-4.329,-4.329,-4.329,-4.329,0.0,0.0,0.0,-4.363,-4.4066,-4.4662,-4.5395,-4.617,0.0,-4.7523,-4.8225,-4.8225,-4.8608,-4.9001,-4.9001,-4.9001,-4.9001,-4.9001,-4.9001,-4.9001,-4.9001,-4.9001,-4.9001,-4.9001,-4.9001,-4.9001,-4.9001,-4.9001,-4.9001,-4.9001,-4.9001,-4.8832,-4.8426,-4.8075,-4.7534,-4.6718,-4.6058,-4.5517,-4.5094,-4.4784,-4.4615,-4.4615,-4.4615,-4.435,-4.3927,-4.3589,-4.2953,-4.2168,-4.1508,-4.1204,-4.117,-4.0434,-4.0096,-4.0096,-4.0096,-4.0096,-4.0096,-4.0096,-4.0096,-4.0096,-4.0096,-4.0096,-4.0096,0.0,0.0,0.0,0.0,0.0,0.0,0.0,0.0,0.0,0.0,0.0,0.0,0.0,0.0,0.0,0.0,0.0,0.0,0.0,0.0,0.0,-4.329,-4.329,-4.329,-4.329,0.0,0.0,0.0,0.0,0.0,-4.329,-4.329,-4.329,0.0,-4.329,-4.329,0.0,0.0,0.0,0.0,0.0,0.0,0.0,0.0,0.0,0.0,0.0,-4.329,-4.329,-4.329,-4.329,-4.329,-4.329,-4.329,0.0,0.0,0.0,-4.3472,-4.422,0.0,-4.4983,-4.567,-4.6539,-4.7239,0.0,0.0,-4.8289,0.0,-4.8289,-4.837,-4.8608,-4.8829,-4.9001,-4.9001,-4.9001,-4.9001,-4.9001,-4.9001,-4.9001,-4.9001,-4.9001,-4.9001,-4.9001,-4.8832,-4.8494,-4.7922,-4.7534,-4.6841,-4.5771,-4.5517,-4.5162,-4.4632,-4.4615,-4.4615,-4.4615,-4.4615,-4.4198,-4.3392,-4.3189,-4.2455,-4.1204,-4.1018,-4.0916,-4.0882,-4.035,-4.0096,-4.0096,-4.0096,-4.0096,-4.0096,-4.0096,-4.0096,-4.0096,-4.0096,-4.0096,-4.0079,0.0,0.0,0.0,0.0,0.0,0.0,0.0,0.0,0.0,0.0,0.0,0.0,-3.9768,-4.0873,-4.1988,-4.321,0.0,0.0,0.0,0.0,0.0,-4.329,-4.329,0.0,-4.329,0.0,0.0,0.0,0.0,0.0,-4.329,-4.329,-4.329,-4.329,-4.329,-4.329,-4.329,0.0,0.0,0.0,0.0,0.0,0.0,0.0,0.0,0.0,-4.329,-4.329,-4.329,-4.329,-4.329,-4.329,-4.329,-4.329,-4.329,0.0,0.0,0.0,-4.3369,-4.4066,0.0,-4.4849,-4.5561,-4.6279,0.0,0.0,-4.6349,-4.6349,-4.6349,-4.6627,-4.7523,-4.8401,-4.9001,-4.9001,-4.9001,-4.9001,-4.9001,-4.9001,-4.9001,-4.9001,-4.9001,-4.9001,-4.9001,-4.8392,-4.7922,-4.7889,-4.6616,-4.5788,-4.5703,-4.5026,-4.4649,-4.4615,-4.4615,-4.4615,-4.4615,-4.4615,-4.4198,-4.3375,-4.2692,-4.1948,-4.1187,-4.0485,-4.0163,-4.0163,-4.013,-4.0096,-4.0096,-4.0096,-4.0096,-4.0096,-4.0096,-4.0096,-4.0096,-4.0096,-4.0096,-4.0011,0.0,0.0,0.0,0.0,0.0,0.0,0.0,0.0,0.0,0.0,0.0,0.0,0.0,-4.0916,-4.207,-4.321,-4.329,0.0,0.0,0.0,0.0,-4.329,-4.329,-4.329,-4.329,0.0,0.0,0.0,0.0,-4.329,-4.329,-4.329,-4.329,-4.329,-4.329,-4.329,-4.329,-4.329,0.0,0.0,-4.329,0.0,0.0,-4.329,-4.329,-4.329,-4.329,-4.329,-4.329,-4.329,-4.329,-4.329,-4.329,-4.329,-4.329,-4.329,-4.329,-4.329,-4.329,0.0,0.0,-4.3849,-4.4571,-4.5285,-4.5285,-4.5778,-4.6208,-4.6208,-4.6208,-4.6314,-4.6627,-4.7489,-4.8289,-4.8892,-4.9001,-4.9001,-4.9001,-4.9001,-4.9001,-4.9001,-4.9001,-4.8815,-4.8359,-4.8071,-4.75,-4.6566,-4.6007,-4.55,-4.501,-4.475,-4.4615,-4.4615,-4.4615,-4.4615,-4.4615,-4.4079,-4.3453,-4.2692,-4.1948,-4.1204,-4.0476,-4.0231,-4.0096,-4.0096,-4.0096,-4.0096,-4.0096,-4.0096,-4.0096,-4.0096,-4.0096,-4.0096,-4.0096,-4.0096,-4.0096,-3.9994,0.0,0.0,0.0,0.0,0.0,0.0,0.0,0.0,0.0,-3.6405,0.0,0.0,0.0,0.0,-4.207,-4.321,-4.329,-4.329,-4.329,-4.329,-4.329,-4.329,-4.329,-4.329,0.0,0.0,0.0,0.0,0.0,0.0,0.0,-4.329,-4.329,-4.329,-4.329,-4.329,0.0,0.0,-4.329,-4.329,-4.329,-4.329,-4.329,-4.329,-4.329,-4.329,-4.329,-4.329,-4.329,-4.329,-4.329,-4.329,-4.329,-4.329,-4.329,-4.329,-4.329,-4.329,-4.329,0.0,0.0,0.0,-4.381,-4.4297,-4.4297,-4.4781,-4.5217,-4.5217,-4.5217,-4.5327,-4.567,-4.6224,-4.707,-4.8338,-4.8545,-4.8639,-4.897,-4.9001,-4.9001,-4.9001,-4.8781,-4.8443,-4.7939,-4.7432,-4.6769,-4.5771,-4.5466,0.0,-4.4632,-4.4615,-4.4615,-4.4615,-4.4615,-4.4615,-4.4615,-4.3809,-4.3031,-4.2286,-4.1542,-4.0798,-4.0096,-4.0096,-4.0096,-4.0096,-4.0096,-4.0096,-4.0096,-4.0096,-4.0096,-4.0096,-4.0096,-4.0096,-4.0096,-4.0096,-3.9943,-3.9639,0.0,0.0,0.0,0.0,0.0,0.0,0.0,0.0,-3.6405,-3.6405,0.0,0.0,0.0,0.0,0.0,-4.321,-4.329,-4.329,-4.329,-4.329,-4.329,-4.329,0.0,0.0,0.0,0.0,0.0,0.0,0.0,0.0,0.0,0.0,-4.329,-4.329,-4.329,-4.329,-4.329,0.0,-4.329,-4.329,-4.329,-4.329,-4.329,-4.3319,-4.3319,-4.3319,-4.3349,-4.3349,-4.3349,-4.3334,-4.3319,-4.3319,-4.3305,-4.329,-4.329,-4.329,-4.329,-4.329,0.0,0.0,0.0,-4.329,0.0,0.0,-4.329,0.0,-4.329,-4.329,-4.329,-4.3591,-4.4586,-4.4774,-4.5358,-4.7205,-4.7556,-4.7868,-4.8798,-4.894,-4.897,-4.897,-4.8328,-4.7872,-4.7855,-4.6566,-4.5703,-4.5669,-4.4993,-4.4615,-4.4615,-4.4615,-4.4615,-4.4615,-4.4615,-4.4615,-4.4615,-4.3792,-4.3014,-4.2286,-4.1525,-4.0781,-4.0096,-4.0096,-4.0096,-4.0096,-4.0096,-4.0096,-4.0096,-4.0096,-4.0096,-4.0096,-4.0096,-4.0096,-4.0096,-4.0096,-3.9639,-3.8886,0.0,0.0,0.0,0.0,0.0,0.0,-3.6405,-3.6405,-3.6405,0.0,0.0,0.0,-3.9768,-4.1657,-4.2941,-4.325,-4.329,-4.329,-4.329,-4.329,-4.329,-4.329,-4.329,-4.329,-4.329,0.0,0.0,0.0,0.0,0.0,0.0,0.0,0.0,0.0,-4.329,-4.329,-4.329,-4.329,0.0,-4.329,-4.329,-4.329,-4.3349,-4.3828,-4.4007,-4.4107,-4.4586,-4.4751,-4.4676,-4.4212,-4.4007,-4.3958,-4.3439,-4.329,-4.329,-4.329,-4.329,-4.329,-4.329,0.0,0.0,0.0,0.0,0.0,-4.329,0.0,-4.329,-4.329,-4.329,-4.3369,-4.3669,-4.3693,-4.4128,-4.5358,-4.6154,-4.6678,-4.6952,-4.7556,-4.7982,-4.7982,-4.7955,-4.7669,-4.7158,-4.6261,-4.5483,0.0,-4.4733,-4.4615,-4.4615,-4.4615,-4.4615,-4.4615,-4.4615,-4.4615,-4.4615,-4.3267,-4.2489,-4.2269,-4.1001,-4.0316,-4.0096,-4.0096,-4.0096,-4.0096,-4.0096,-4.0096,-4.0096,-4.0096,-4.0096,-4.0096,-4.0096,-4.0096,-4.0096,-4.0096,-3.9639,-3.8886,0.0,0.0,0.0,0.0,0.0,0.0,-3.6405,-3.6405,-3.6405,0.0,0.0,0.0,-4.0447,-4.2208,-4.329,-4.329,-4.329,-4.329,-4.329,-4.329,-4.329,-4.329,-4.329,-4.329,-4.329,0.0,0.0,0.0,0.0,0.0,0.0,0.0,0.0,0.0,0.0,0.0,0.0,0.0,0.0,-4.329,-4.329,-4.329,-4.3364,-4.4022,-4.4317,-4.4407,-4.5065,-4.5289,-4.52,-4.4541,-4.4122,-4.3798,-4.3409,-4.329,-4.329,-4.329,-4.329,-4.329,-4.329,-4.329,-4.329,-4.329,0.0,0.0,-4.329,-4.329,-4.329,0.0,-4.329,-4.329,-4.329,-4.329,-4.3472,-4.4066,-4.4631,-4.529,-4.6103,-4.6678,-4.6906,-4.6613,-4.6421,-4.6031,-4.5317,-4.491,-4.4503,-4.4097,-4.4384,-4.4615,-4.4615,-4.4615,-4.4615,-4.4615,-4.4615,-4.4615,-4.4615,-4.3064,-4.2286,-4.2269,-4.0807,-4.0096,-4.0096,-4.0096,-4.0096,-4.0096,-4.0096,-4.0096,-4.0096,-4.0096,-4.0096,-4.0096,-4.0096,-4.0096,-4.0062,-3.9757,-3.9157,-3.8447,0.0,0.0,0.0,-3.6405,-3.6405,-3.6405,-3.6405,-3.6405,-3.6405,0.0,-3.7507,-3.9067,-4.1155,-4.2548,-4.329,-4.329,-4.329,-4.329,-4.329,-4.329,-4.329,-4.329,-4.329,-4.329,-4.329,-4.329,0.0,0.0,0.0,0.0,0.0,0.0,0.0,0.0,0.0,0.0,0.0,0.0,0.0,-4.329,-4.329,-4.329,-4.3379,-4.4152,-4.4421,-4.4526,-4.5244,-4.5514,-4.5409,-4.4661,-4.3988,-4.3394,-4.3319,-4.329,-4.329,-4.329,-4.329,-4.329,-4.329,-4.329,-4.329,-4.329,-4.329,0.0,-4.329,-4.329,-4.329,0.0,-4.329,-4.329,-4.329,-4.329,-4.329,-4.329,-4.323,-4.3821,-4.5638,-4.5897,-4.5732,-4.5109,-4.4427,-4.3759,-4.3151,-4.313,-4.3216,-4.3306,-4.4109,-4.4615,-4.4615,-4.4615,-4.4615,-4.4615,-4.4615,-4.4615,-4.4615,-4.3064,-4.2286,-4.2269,-4.0807,-4.0096,-4.0096,-4.0096,-4.0096,-4.0096,-4.0096,-4.0096,-4.0096,-4.0096,-4.0096,-4.0096,-4.0096,-4.0096,-4.0011,-3.9259,-3.8466,-3.7675,0.0,0.0,0.0,-3.6405,-3.6405,-3.6405,-3.6405,-3.6405,-3.6405,-3.6405,-3.8225,-3.9711,-4.0189,-4.2085,-4.329,-4.329,-4.329,-4.329,-4.329,-4.329,-4.329,-4.329,-4.329,-4.329,-4.329,-4.329,-4.286,0.0,0.0,0.0,0.0,0.0,0.0,0.0,0.0,0.0,0.0,0.0,0.0,-4.329,-4.329,-4.329,-4.3424,-4.4646,-4.5095,-4.5259,-4.6486,-4.692,-4.6726,-4.5514,-4.4661,-4.3992,-4.3469,-4.329,-4.329,-4.329,-4.329,-4.329,-4.329,-4.329,-4.329,-4.329,-4.329,0.0,-4.329,-4.329,-4.329,0.0,-4.329,-4.329,-4.329,-4.329,-4.329,-4.329,-4.2895,-4.2872,-4.3758,-4.4115,-4.4211,-4.407,-4.359,-4.3231,-4.312,-4.2591,-4.2552,-4.3246,-4.4109,-4.4615,-4.4615,-4.4615,-4.4615,-4.4615,-4.4615,-4.4615,-4.4615,-4.3064,-4.2286,-4.2269,-4.0807,-4.0096,-4.0096,-4.0096,-4.0096,-4.0096,-4.0096,-4.0096,-4.0096,-4.0096,-4.0096,-4.0096,-4.0096,-4.0096,-4.0011,-3.9259,-3.817,-3.692,-3.6405,-3.6405,-3.6405,-3.6405,-3.6405,-3.6405,-3.6405,-3.6405,-3.6405,-3.6405,-3.7906,-3.9601,-4.1083,-4.2286,-4.3289,-4.4231,-4.4003,-4.3783,-4.3783,-4.3484,-4.329,-4.329,-4.329,-4.329,-4.329,-4.2725,-4.2152,-4.1587,0.0,0.0,0.0,0.0,0.0,0.0,0.0,0.0,0.0,0.0,-4.329,-4.329,-4.329,0.0,-4.3439,-4.4796,-4.5289,-4.5469,-4.6815,-4.71,-4.6711,-4.6037,-4.514,-4.4257,-4.3888,-4.3559,-4.329,-4.329,-4.329,-4.329,-4.329,-4.329,-4.329,-4.329,-4.329,0.0,0.0,-4.329,-4.329,-4.329,-4.329,-4.329,-4.329,-4.329,-4.3185,-4.2895,-4.262,-4.2396,-4.2357,-4.2486,-4.2474,-4.2138,-4.1899,-4.1608,-4.1302,-4.1317,-4.1707,-4.2583,-4.3456,-4.3948,-4.3948,-4.4355,-4.4615,-4.4615,-4.4615,-4.4615,-4.4615,-4.3064,-4.2286,-4.2269,-4.0807,-4.0096,-4.0096,-4.0096,-4.0096,-4.0096,-4.0096,-4.0096,-4.0096,-4.0096,-4.0096,-4.0096,-4.0096,-4.0096,-3.991,-3.8464,-3.7436,-3.6594,-3.6405,-3.6405,-3.6405,0.0,0.0,-3.6405,-3.6405,-3.6405,-3.6455,0.0,-3.7537,-3.9249,-4.1805,-4.2266,-4.2955,-4.4431,-4.4089,-4.3877,-4.4098,-4.3389,-4.3035,-4.3174,-4.2917,-4.2762,-4.2659,-4.1726,-4.1155,-4.0944,0.0,0.0,0.0,0.0,0.0,0.0,0.0,0.0,0.0,0.0,0.0,-4.3305,0.0,-4.3484,-4.3604,-4.484,-4.5379,-4.5648,-4.6875,-4.6965,-4.6444,-4.6324,-4.5514,-4.4481,-4.4347,-4.3828,-4.329,-4.329,-4.329,-4.329,-4.329,-4.329,-4.329,-4.329,-4.329,-4.329,0.0,0.0,0.0,-4.329,-4.329,-4.329,-4.329,0.0,0.0,-4.2515,0.0,0.0,0.0,-4.1085,0.0,-4.0442,-4.0292,-4.0008,-3.9433,-4.0185,-4.0979,-4.1707,-4.2552,-4.3047,-4.3047,-4.3873,-4.4355,-4.4355,-4.4514,-4.4615,-4.4615,-4.3064,-4.2286,-4.2269,-4.0807,-4.0096,-4.0096,-4.0096,-4.0096,-4.0096,-4.0096,-4.0096,-4.0096,-4.0096,-4.002,-3.9876,-4.0045,-4.002,-3.9623,-3.7551,-3.6631,-3.6108,-3.6405,-3.6405,-3.6405,0.0,0.0,0.0,-3.6405,-3.6405,0.0,0.0,0.0,-3.9144,-4.002,-4.1022,-4.1706,-4.1911,-4.1855,-4.232,-4.3416,-4.2382,-4.2012,-4.2662,-4.1579,-4.0761,-4.0303,-4.0159,-3.9579,-3.8501,0.0,0.0,0.0,0.0,0.0,0.0,-3.8243,0.0,0.0,0.0,-4.2371,0.0,-4.3932,-4.4212,0.0,-4.502,-4.5678,-4.6264,-4.704,-4.7249,-4.7115,0.0,-4.5813,-4.508,-4.4496,-4.3828,-4.329,-4.329,-4.329,-4.329,-4.329,-4.329,-4.329,-4.329,-4.329,-4.329,-4.329,0.0,-4.329,-4.329,0.0,-4.329,-4.329,0.0,0.0,0.0,0.0,0.0,-4.0606,-4.0008,-3.9828,-4.0337,-3.9888,-3.9463,-3.9388,-4.0185,-4.0743,-4.0844,-4.1674,-4.2157,-4.2157,-4.297,-4.3456,-4.3456,-4.4196,-4.4615,-4.4615,-4.3064,-4.2286,-4.2269,-4.0807,-4.0096,-4.0096,-4.0096,-4.0096,-4.0096,-4.0096,-4.0096,-4.0096,-4.0096,-3.9662,-3.9113,-3.9808,-3.9662,-3.8851,-3.7355,-3.6002,-3.4745,-3.6405,-3.6405,-3.6405,-3.6405,0.0,0.0,0.0,0.0,0.0,0.0,0.0,-3.8884,-4.0215,-4.0829,-4.1517,-4.2549,-4.2306,-4.2297,-4.2845,-4.1997,-4.1633,-4.1964,-4.1157,-4.0587,-4.0352,-3.9346,-3.8604,-3.8107,-3.7461,0.0,0.0,0.0,0.0,0.0,-3.7802,0.0,-3.9669,0.0,-4.2109,0.0,0.0,-4.4781,0.0,-4.5783,-4.6307,-4.6935,-4.7204,-4.7309,-4.7204,0.0,-4.5858,0.0,0.0,0.0,0.0,-4.329,-4.329,-4.329,-4.329,-4.329,-4.329,-4.329,-4.329,-4.329,-4.329,-4.329,-4.329,-4.329,0.0,0.0,0.0,0.0,0.0,0.0,-4.1602,-4.101,0.0,0.0,-3.9514,-3.9798,0.0,0.0,-3.9388,-3.9737,-3.9955,-3.9955,-4.0758,-4.1247,-4.1247,-4.2552,-4.3306,-4.3306,-4.4167,-4.4615,-4.4615,-4.3064,-4.2286,-4.2269,-4.0807,-4.0096,-4.0096,-4.0096,-4.0096,-4.007,-3.961,-3.9394,-3.9368,-3.8941,-3.8569,-3.8318,-3.8624,-3.8569,-3.8056,-3.6233,-3.52,-3.4446,-3.6405,-3.6405,-3.6405,-3.6405,0.0,0.0,0.0,0.0,0.0,0.0,0.0,-3.8827,-4.0343,-4.0507,-4.1057,-4.2323,-4.2022,-4.1862,-4.2242,-4.1491,-4.112,-4.1284,-4.0586,-4.007,-3.9733,-3.851,-3.7788,-3.7632,-3.6803,0.0,0.0,0.0,0.0,0.0,0.0,-3.7802,-3.8198,0.0,-4.1213,-4.2181,-4.3178,-4.4579,-4.6074,-4.6448,-4.689,-4.7309,-4.7309,-4.7189,-4.6965,-4.6444,-4.5738,0.0,-4.4466,-4.3828,-4.329,0.0,0.0,0.0,-4.329,0.0,0.0,0.0,0.0,0.0,-4.329,-4.329,-4.329,-4.329,-4.329,0.0,0.0,0.0,-4.2871,-4.1594,0.0,-4.092,0.0,-3.9388,0.0,-3.9388,0.0,0.0,0.0,-3.9388,-3.9388,-3.9388,-3.999,-4.0328,-4.0328,-4.1772,-4.2693,-4.2939,-4.3785,-4.4355,-4.4615,-4.3267,-4.2489,-4.2269,-4.1001,-4.0299,-4.0096,-4.0096,-3.9978,-3.9756,-3.9139,-3.8799,-3.8553,-3.8035,-3.7661,-3.7485,-3.7485,-3.7354,-3.6974,-3.5506,-3.4699,-3.4127,-3.6405,-3.6405,-3.6405,-3.6405,0.0,0.0,0.0,0.0,0.0,0.0,0.0,-3.9108,-3.9648,-3.9724,-3.9775,-3.9839,-3.9826,-4.0287,-4.1578,-4.0465,-4.007,-4.0782,-3.9618,-3.844,-3.7344,-3.7258,-3.6993,-3.6452,-3.6405,0.0,0.0,0.0,0.0,0.0,-3.6452,-3.7057,-3.8107,-3.8198,-3.9195,-4.081,-4.1508,-4.3223,-4.5555,0.0,-4.7294,-4.7309,-4.7309,0.0,0.0,-4.6294,-4.5439,0.0,0.0,0.0,0.0,0.0,0.0,0.0,0.0,0.0,0.0,-4.329,0.0,0.0,0.0,0.0,-4.329,-4.329,-4.329,-4.329,-4.329,-4.329,-4.2871,-4.1594,-4.1422,0.0,0.0,-3.9388,-3.9388,-3.9388,-3.9388,0.0,0.0,-3.9388,-3.9388,-3.9388,-3.9424,-3.9445,-3.9445,-4.0274,-4.118,-4.2029,-4.2878,-4.3756,-4.4598,-4.3792,-4.3014,-4.2286,-4.1525,-4.0781,-4.0096,-4.0096,-3.9662,-3.8935,-3.8908,-3.8497,-3.7835,-3.7806,-3.7338,-3.6646,-3.6646,-3.6196,-3.5561,-3.5584,-3.4713,-3.3425,0.0,-3.6405,-3.6405,-3.6405,0.0,0.0,0.0,-3.7374,0.0,0.0,-3.9069,-3.9484,-3.9672,-3.9697,-3.9697,-3.9697,-3.9697,-3.989,-4.0313,-3.9929,-3.9802,-4.0045,-3.9297,-3.8743,-3.8304,-3.7563,-3.7098,-3.6958,-3.6581,0.0,0.0,0.0,0.0,0.0,0.0,-3.6628,0.0,0.0,0.0,0.0,0.0,-4.5163,-4.6682,0.0,-4.7309,-4.7249,-4.6815,-4.6516,0.0,-4.5304,-4.4691,-4.4242,-4.3768,-4.3469,-4.329,-4.329,-4.2765,-4.2152,0.0,0.0,-4.1225,-4.1988,0.0,0.0,0.0,0.0,0.0,0.0,-4.2152,-4.2152,-4.2152,-4.156,-4.0644,-3.942,-3.9235,-3.8754,0.0,-3.7276,-3.7572,-3.8271,-3.898,-3.9388,0.0,0.0,-3.9388,-3.9388,-3.9388,-3.9388,-3.9388,-4.0239,-4.0844,-4.1147,-4.2552,-4.3426,-4.3756,-4.3525,-4.3031,-4.2286,-4.1542,-4.0798,-4.0096,-4.0096,-3.9662,-3.8881,-3.8386,-3.7732,-3.698,-3.6477,-3.6101,-3.5863,-3.5863,-3.5733,-3.5447,-3.5012,-3.4286,-3.3335,-3.6405,-3.6405,-3.6405,0.0,0.0,0.0,0.0,0.0,0.0,0.0,-3.9346,0.0,-3.9697,-3.9697,-3.9697,-3.9697,-3.9697,-3.9697,-3.9697,-3.9697,-3.9697,-3.9697,-3.9358,-3.912,-3.8881,-3.7952,-3.7374,-3.7186,-3.6681,-3.6405,0.0,0.0,0.0,0.0,0.0,-3.6405,-3.6452,-3.7196,-3.8039,0.0,0.0,-4.4203,0.0,0.0,-4.6367,-4.6905,0.0,-4.5965,-4.5484,-4.4601,-4.4152,-4.3858,-4.3424,-4.3036,-4.2684,-4.2684,-4.1906,-4.1,-4.1,-4.0447,0.0,-4.0831,-4.1,0.0,-4.1,0.0,-4.1864,0.0,0.0,0.0,-4.1,-4.0418,-3.9498,-3.8255,-3.8076,-3.7662,0.0,-3.6198,-3.6448,-3.7137,-3.8182,-3.898,-3.9337,-3.9388,-3.9388,-3.9388,-3.9388,-3.9388,-3.9388,-3.992,-4.0363,-4.069,-4.1804,-4.252,-4.2847,-4.3198,-4.2987,-4.2261,-4.1798,-4.1083,-4.0091,-3.9796,-3.9086,-3.8044,-3.7587,-3.6919,-3.6165,-3.5701,-3.5504,-3.5504,-3.5504,-3.5504,-3.5444,-3.4996,-3.4262,-3.3305,0.0,0.0,0.0,0.0,-3.643,0.0,0.0,0.0,-3.8253,0.0,-3.9371,-3.9697,-3.9697,-3.9697,-3.9697,-3.9697,-3.9697,-3.9697,-3.9697,-3.9697,-3.9697,-3.9697,-3.9697,-3.9446,-3.8969,-3.8316,-3.7751,-3.7224,-3.6694,0.0,0.0,0.0,0.0,0.0,-3.6405,0.0,-3.6405,-3.6405,-3.6767,-3.7465,-3.9198,-4.0622,-4.1831,-4.3065,-4.4558,-4.6032,-4.6175,-4.5394,-4.4302,-4.4272,-4.3813,-4.321,-4.321,-4.2412,-4.1504,-4.1504,-4.0703,-3.9812,-3.9812,-3.9768,-3.9724,-3.9812,-3.9812,0.0,0.0,0.0,-3.9899,0.0,0.0,0.0,0.0,-3.9768,-3.9312,-3.8046,-3.7868,-3.7414,-3.6218,-3.6053,-3.6093,-3.6132,-3.7021,-3.8069,-3.9228,-3.9301,-3.9337,-3.9388,-3.9388,-3.9388,0.0,-3.9388,-3.9773,-4.0622,-4.069,-4.1113,-4.1933,-4.2816,-4.2884,-4.2144,-4.2199,-4.1462,-4.0012,-3.9254,-3.8044,-3.6615,-3.6615,-3.6165,-3.5504,-3.5504,-3.5504,-3.5504,-3.5504,-3.5504,-3.5489,-3.5429,-3.4592,-3.3305,-3.6405,-3.6405,-3.6405,0.0,-3.6744,-3.7161,0.0,0.0,0.0,0.0,-3.9597,-3.9697,-3.9697,-3.9697,-3.9697,-3.9697,-3.9697,-3.9697,-3.9697,-3.9697,-3.9697,-3.9697,-3.9697,-3.9634,-3.9484,-3.8517,-3.7939,-3.7789,-3.6883,0.0,-3.6405,0.0,0.0,0.0,0.0,0.0,-3.6405,-3.6405,-3.7262,-3.8718,-3.9551,-4.0655,-4.1803,0.0,-4.2249,-4.2435,-4.4202,-4.4601,-4.4242,-4.3708,-4.2858,-4.2029,-4.2029,-4.1253,-4.0332,-4.0332,-3.9478,-3.8559,-3.8559,-3.7952,-3.7507,-3.8347,-3.8559,-3.8559,0.0,0.0,0.0,0.0,0.0,0.0,0.0,0.0,-3.6928,-3.5749,-3.4904,-3.4246,-3.3937,-3.3911,-3.4178,-3.5007,-3.5332,-3.6213,-3.8032,-3.8234,-3.8546,-3.9337,-3.9388,-3.9388,-3.9388,0.0,-3.9517,-3.9737,-4.0363,-4.0811,-4.1046,-4.1901,-4.1977,-4.1237,-4.1284,-4.0561,-3.9124,-3.8962,-3.8044,-3.6615,-3.6615,-3.6165,-3.5504,-3.5504,-3.5504,-3.5504,-3.5504,-3.5504,-3.5385,-3.4382,-3.3799,-3.3305,-3.6405,0.0,0.0,-3.6405,0.0,0.0,-3.7952,-3.8492,0.0,-3.9622,-3.9697,0.0,-3.9697,-3.9697,-3.9697,-3.9697,-3.9697,0.0,-3.9697,-3.9697,-3.9697,-3.9697,-3.9697,-3.9584,-3.9346,-3.8467,-3.7889,-3.7651,-3.6832,0.0,-3.6405,0.0,0.0,0.0,0.0,-3.6405,-3.6405,-3.6405,-3.6981,-3.7966,-3.823,-3.9084,0.0,-4.0192,-4.0271,-4.0602,-4.1923,-4.2359,-4.2301,-4.1953,-4.1393,-4.0873,-4.0873,-4.0045,-3.9094,-3.9094,-3.8302,-3.7368,-3.7368,-3.6883,-3.6534,-3.7196,-3.7368,-3.7368,-3.7368,-3.7861,-3.8179,0.0,-3.7368,-3.7368,0.0,0.0,-3.6053,-3.4901,-3.3796,-3.3124,-3.3124,-3.3124,-3.3313,-3.3911,-3.3995,-3.4622,-3.6292,-3.7281,-3.8032,-3.8671,-3.9141,0.0,0.0,0.0,-3.9388,-3.9388,-3.99,-4.0115,-4.0115,-4.0995,-4.1207,-4.0796,-4.0902,-4.0194,-3.8746,-3.8453,-3.7501,-3.6117,-3.6117,-3.5894,-3.5504,-3.5504,-3.5504,-3.5504,-3.5504,-3.5504,-3.534,-3.3993,-3.3499,-3.3305,0.0,0.0,0.0,0.0,0.0,0.0,0.0,-3.8517,0.0,-3.9634,0.0,-3.9697,-3.9697,-3.9697,-3.9697,-3.9697,-3.9697,-3.9697,-3.9697,-3.9697,-3.9697,-3.9697,-3.9622,-3.9371,-3.8932,-3.8228,-3.7663,-3.7186,-3.6681,-3.6405,-3.6405,0.0,0.0,0.0,0.0,0.0,0.0,-3.6405,-3.6405,-3.6405,-3.6405,-3.6977,-3.7893,-3.7893,-3.8527,-3.9461,-3.9461,-3.9637,-3.9899,-3.9899,-3.9812,-3.9667,-3.9667,-3.8827,-3.7893,-3.7893,-3.7196,-3.6405,-3.6405,-3.6405,-3.6405,-3.6405,-3.6405,-3.6405,-3.6405,-3.6405,-3.6405,-3.6405,-3.6405,-3.6405,-3.6405,0.0,0.0,-3.4876,-3.3796,-3.3124,-3.3124,-3.3124,-3.3124,-3.3124,-3.3124,0.0,-3.4387,-3.6253,-3.7434,-3.7587,-3.8583,0.0,0.0,0.0,-3.9388,-3.9388,-3.9388,-3.9388,-3.9388,-4.015,-4.0535,-4.0519,-4.0669,-3.9976,-3.85,-3.7869,-3.6824,-3.5504,-3.5504,-3.5504,-3.5504,-3.5504,-3.5504,-3.5504,-3.5504,-3.5504,-3.534,-3.3993,-3.3499,-3.3305,0.0,0.0,0.0,0.0,0.0,-3.7324,-3.7324,-3.8592,-3.9584,-3.9685,-3.9697,-3.9697,-3.9697,-3.9697,-3.9697,-3.9697,-3.9697,0.0,0.0,0.0,0.0,-3.9697,-3.9258,-3.902,-3.8919,-3.7864,-3.7274,-3.7186,-3.6681,-3.6405,-3.6405,0.0,0.0,0.0,0.0,0.0,-3.6405,-3.6405,0.0,-3.6405,-3.6405,-3.6546,-3.6709,-3.6709,-3.6849,-3.7023,-3.7023,-3.827,-3.9899,-3.9899,-3.9227,-3.8424,-3.8424,-3.7632,-3.6709,-3.6709,-3.6534,-3.6405,-3.6405,-3.6405,-3.6405,-3.6405,-3.6405,-3.6405,-3.6405,-3.6405,-3.6405,-3.6405,-3.6405,-3.6405,-3.6405,0.0,0.0,0.0,0.0,-3.3124,-3.3124,-3.3124,-3.3124,-3.3124,-3.3124,-3.3154,-3.3356,-3.4511,-3.5601,-3.6408,-3.7458,0.0,0.0,0.0,-3.9388,0.0,-3.9388,0.0,0.0,0.0,-3.9646,-3.9631,-3.977,-3.9059,-3.7647,-3.7611,-3.6824,-3.5504,-3.5504,-3.5504,-3.5504,-3.5504,-3.5504,-3.5504,-3.5504,-3.5504,-3.534,-3.3993,-3.3499,-3.3305,0.0,0.0,0.0,0.0,0.0,0.0,0.0,-3.8115,-3.8931,-3.9233,-3.927,-3.9371,-3.9659,-3.9697,-3.9584,-3.9295,-3.927,-3.9132,-3.8843,-3.8818,-3.8818,-3.8818,-3.8567,-3.8291,-3.8002,-3.7462,-3.7048,-3.6807,-3.6543,-3.6405,-3.6405,-3.6405,0.0,0.0,0.0,-3.6405,0.0,0.0,0.0,-3.6405,-3.6405,-3.6405,-3.6405,-3.6405,-3.6405,-3.6405,-3.6405,-3.7116,-3.8088,-3.8088,-3.7691,-3.7243,-3.7243,-3.6849,-3.6405,-3.6405,-3.6405,-3.6405,-3.6405,-3.6405,-3.6405,-3.6405,-3.6405,-3.6405,-3.6405,-3.6405,-3.6405,-3.6405,-3.6405,-3.6317,-3.5994,-3.5278,0.0,0.0,0.0,0.0,0.0,-3.3124,-3.3124,-3.3124,-3.3124,-3.3124,-3.3124,-3.3556,-3.4304,-3.5359,-3.6383,0.0,0.0,0.0,-3.8819,0.0,0.0,0.0,-3.9388,0.0,-3.9388,-3.9409,-3.9491,-3.8745,-3.7389,-3.7482,-3.6768,-3.5504,-3.5504,-3.5504,-3.5504,-3.5504,-3.5504,-3.5504,-3.5504,-3.5504,-3.534,-3.3993,-3.3499,-3.3305,0.0,-3.6405,0.0,0.0,-3.6769,0.0,-3.701,-3.7374,-3.7902,-3.8592,-3.8693,-3.8856,-3.9283,-3.9333,-3.9157,-3.873,-3.8693,-3.8492,-3.804,-3.8002,-3.8002,-3.8002,-3.7889,-3.7626,-3.7199,-3.7073,-3.6845,-3.6405,-3.6405,-3.6405,-3.6405,-3.6405,0.0,0.0,0.0,0.0,0.0,0.0,-3.6405,-3.6405,-3.6405,-3.6405,-3.6405,-3.6405,-3.6405,-3.6405,-3.6405,-3.6405,-3.6405,-3.6405,-3.6405,-3.6405,-3.6405,-3.6405,-3.6405,-3.6405,-3.6405,-3.6405,-3.6405,-3.6405,-3.6405,-3.6405,-3.6405,-3.6405,-3.6405,-3.6405,-3.6405,-3.6405,-3.6317,-3.6056,-3.5583,-3.4956,0.0,0.0,0.0,0.0,0.0,-3.3124,-3.3124,-3.3124,-3.3124,-3.3124,-3.3124,-3.3124,-3.3441,-3.4317,0.0,0.0,-3.742,0.0,0.0,0.0,0.0,-3.9388,-3.9388,0.0,-3.9388,-3.9388,-3.9388,-3.8706,-3.7404,-3.7404,-3.6701,-3.5504,-3.5504,-3.5504,-3.5504,-3.5504,-3.5504,-3.5504,-3.5504,-3.5415,-3.5113,-3.3731,-3.3134,-3.2806,0.0,0.0,0.0,0.0,0.0,0.0,-3.648,-3.6531,-3.6945,-3.7952,-3.809,-3.8103,-3.8153,-3.8165,-3.814,-3.809,-3.809,-3.8065,-3.8002,-3.8002,-3.8002,-3.8002,-3.7525,-3.7236,-3.7186,-3.6732,-3.6455,0.0,0.0,-3.6405,-3.6405,-3.6405,0.0,0.0,0.0,0.0,0.0,-3.6405,-3.6405,-3.6405,-3.6405,-3.6405,-3.6405,-3.6405,-3.6405,-3.6405,-3.6405,-3.6405,-3.6405,-3.6405,-3.6405,-3.6405,-3.6405,-3.6405,-3.6405,-3.6405,-3.6405,-3.6405,-3.6405,-3.6405,-3.6405,-3.6405,-3.6405,-3.6405,-3.6405,-3.6405,-3.6405,-3.6405,-3.5968,-3.5558,-3.5508,-3.4643,-3.396,0.0,0.0,0.0,0.0,0.0,-3.3124,-3.3124,-3.3124,-3.3124,-3.3124,-3.3124,-3.3154,0.0,-3.5075,0.0,0.0,0.0,0.0,-3.9388,-3.9388,-3.9388,-3.9388,-3.9388,-3.9388,-3.9388,-3.9388,-3.8706,-3.7404,-3.7404,-3.6701,-3.5504,-3.5504,-3.5504,-3.5504,-3.5504,-3.5504,-3.5504,-3.5504,-3.513,-3.4409,-3.2879,-3.1924,-3.1224,0.0,0.0,0.0,0.0,0.0,0.0,0.0,-3.6405,-3.6568,-3.696,-3.7312,-3.7638,-3.7965,-3.8002,-3.7877,-3.7538,-3.7513,-3.7374,-3.7048,-3.7023,-3.7023,-3.7023,-3.6857,-3.6732,-3.6732,-3.6518,-3.6405,0.0,0.0,-3.6405,-3.6405,-3.6405,0.0,0.0,0.0,-3.6405,-3.6405,-3.6405,-3.6405,-3.6405,-3.6405,-3.6405,-3.6405,-3.6405,-3.6405,-3.6405,-3.6405,-3.6405,-3.6405,-3.6405,-3.6405,-3.6405,-3.6405,-3.6405,-3.6405,-3.6405,-3.6405,-3.6405,-3.6405,-3.6405,-3.6405,-3.6405,-3.6405,-3.6405,-3.6405,-3.6405,-3.6405,-3.6405,-3.5931,-3.5295,-3.4675,-3.4198,-3.3796,-3.3458,0.0,0.0,0.0,0.0,0.0,-3.3124,-3.3124,-3.3124,-3.3124,-3.3124,-3.3124,0.0,0.0,0.0,0.0,0.0,0.0,-3.8383,0.0,-3.8745,-3.9388,-3.9388,-3.9388,-3.9388,-3.899,-3.8317,-3.7404,-3.703,-3.6357,-3.5504,-3.5504,-3.5504,-3.5504,-3.5504,-3.5504,-3.5504,-3.5504,-3.5085,-3.4319,-3.2786,-3.1786,-3.0998,-3.6405,0.0,-3.6405,0.0,-3.6405,-3.6405,-3.6405,-3.6405,-3.6405,-3.6405,-3.6744,-3.7098,-3.7475,-3.7525,-3.7362,-3.6973,-3.6948,-3.6772,-3.643,-3.6405,-3.6405,-3.6405,-3.6405,0.0,-3.6405,-3.6405,-3.6405,-3.6405,-3.6405,-3.6405,-3.6405,-3.6405,0.0,0.0,-3.6405,-3.6405,-3.6405,-3.6405,-3.6405,-3.6405,-3.6405,-3.6405,-3.6405,-3.6405,-3.6405,-3.6405,-3.6405,-3.6405,-3.6405,-3.6405,-3.6405,-3.6405,-3.6405,-3.6405,-3.6405,-3.6405,-3.6405,-3.6405,-3.6405,-3.6405,-3.6405,-3.6405,-3.6405,-3.6405,-3.6405,-3.6405,-3.6367,-3.6157,-3.5554,-3.4781,-3.4035,-3.3771,-3.3533,-3.3144,0.0,0.0,0.0,-3.3124,0.0,-3.3124,-3.3124,-3.3124,-3.3124,-3.3124,-3.3124,0.0,0.0,0.0,0.0,0.0,0.0,0.0,0.0,0.0,-3.8907,-3.9228,-3.9388,-3.9373,-3.8721,-3.8048,-3.7375,-3.6567,-3.5953,-3.5504,-3.5504,-3.5504,-3.5472,-3.518,-3.5067,-3.5019,-3.4739,-3.4145,-3.3244,-3.1895,-3.089,-3.0003,-3.6405,-3.6405,-3.6405,-3.6405,-3.6405,-3.6405,-3.6405,-3.6405,-3.6405,-3.6405,-3.6417,-3.6417,-3.643,-3.643,-3.643,-3.6417,-3.6417,-3.6417,-3.6405,-3.6405,-3.6405,0.0,0.0,-3.6405,-3.6405,-3.6405,-3.6405,-3.6405,0.0,0.0,-3.6405,0.0,-3.6405,-3.6405,-3.6405,-3.6405,-3.6405,-3.6405,-3.6405,-3.6405,-3.6405,-3.6405,-3.6405,-3.6405,-3.6405,-3.6405,-3.6405,-3.6405,-3.6405,-3.6405,-3.6405,-3.6405,-3.6405,-3.6405,-3.6405,-3.6405,-3.6405,-3.6405,-3.6405,-3.6405,-3.6405,-3.6405,-3.6405,-3.6405,-3.6405,-3.6405,-3.6207,-3.5621,-3.4675,-3.3922,-3.3897,-3.3458,-3.3124,-3.3124,0.0,0.0,0.0,-3.3124,0.0,-3.3124,-3.3124,-3.3124,-3.3124,-3.3124,0.0,0.0,0.0,0.0,0.0,0.0,0.0,-3.6237,-3.7266,0.0,-3.7829,-3.887,-3.9388,-3.9373,-3.8721,-3.8048,-3.736,-3.6103,-3.5519,-3.5504,-3.5504,-3.5504,-3.5424,-3.4428,-3.4027,-3.3925,-3.2996,-3.1896,-3.0744,-2.987,-2.876,-2.7617,-3.6405,-3.6405,-3.6405,-3.6405,-3.6405,-3.6405,-3.6405,-3.6405,-3.6405,-3.6405,-3.6405,-3.6405,-3.6405,-3.6405,-3.6405,0.0,-3.6405,-3.6405,0.0,-3.6405,-3.6405,-3.6405,-3.6405,-3.6405,-3.6405,-3.6405,-3.6405,-3.6405,0.0,0.0,0.0,-3.6405,-3.6405,-3.6405,-3.6405,-3.6405,-3.6405,-3.6405,-3.6405,-3.6405,-3.6405,-3.6405,-3.6405,-3.6405,-3.6405,-3.6405,-3.6405,-3.6405,-3.6405,-3.6405,-3.6405,-3.6405,-3.6405,-3.6405,-3.6405,-3.6405,-3.6405,-3.6405,-3.6405,-3.6405,-3.6405,-3.6405,-3.6405,-3.6304,-3.5893,-3.5516,-3.509,-3.4537,-3.4148,-3.3784,-3.3407,-3.3237,-3.3124,-3.3124,-3.3124,0.0,-3.3124,0.0,-3.3124,-3.3124,-3.3124,-3.3124,-3.3124,-3.3124,0.0,0.0,0.0,0.0,0.0,0.0,0.0,0.0,-3.5494,0.0,-3.6682,-3.7046,-3.7572,-3.8294,-3.7215,-3.6501,-3.6103,-3.5684,-3.5133,-3.4461,-3.4461,-3.4109,-3.3498,-3.3171,-3.3066,-3.2989,-3.2326,-3.1536,-3.0655,-2.9415,-2.8416,-2.7571,-3.6405,-3.6405,-3.6405,-3.6405,-3.6405,-3.6405,-3.6405,-3.6405,-3.6405,-3.6405,-3.6405,-3.6405,-3.6405,-3.6405,0.0,-3.6405,-3.6405,-3.6405,-3.6405,-3.6405,-3.6405,-3.6405,-3.6405,-3.6405,-3.6405,-3.6405,0.0,-3.6405,-3.6405,-3.6405,-3.6405,-3.6405,-3.6405,-3.6405,-3.6405,-3.6405,-3.6405,-3.6405,-3.6405,-3.6405,-3.6405,-3.6405,-3.6405,-3.6405,-3.6405,-3.6405,-3.6405,-3.6405,-3.6405,-3.6405,-3.6405,-3.6405,-3.6405,-3.6405,-3.6405,-3.6405,-3.6405,-3.6405,-3.6405,-3.6405,-3.6367,-3.6107,-3.6056,-3.5918,-3.532,-3.4768,-3.4311,-3.3972,-3.3734,-3.3483,-3.3144,-3.3124,-3.3124,-3.3124,-3.3124,-3.3124,-3.3124,0.0,-3.3124,-3.3124,-3.3124,-3.3124,0.0,-3.3124,-3.3124,0.0,0.0,0.0,0.0,0.0,0.0,-3.4066,-3.4511,-3.502,-3.5628,-3.6013,-3.6609,-3.7402,-3.6151,-3.5154,-3.4409,-3.4409,-3.4075,-3.3449,-3.3449,-3.3136,-3.2558,-3.2213,-3.1947,-3.1716,-3.0981,-3.0209,-2.9392,-2.8499,-2.7777,-2.7196,-3.6405,-3.6405,-3.6405,0.0,-3.6405,0.0,-3.6405,-3.6405,-3.6405,-3.6405,-3.6405,-3.6405,-3.6405,-3.6405,-3.6405,-3.6405,0.0,0.0,0.0,-3.6405,-3.6405,-3.6405,-3.6405,-3.6405,-3.6405,-3.6405,-3.6405,-3.6405,-3.6405,-3.6405,-3.6405,-3.6405,-3.6405,-3.6405,-3.6405,-3.6405,-3.6405,-3.6405,-3.6405,-3.6405,-3.6405,-3.6405,-3.6405,-3.6405,-3.6405,-3.6405,-3.6405,-3.6405,-3.6405,-3.6405,-3.6405,-3.6405,-3.6405,-3.638,-3.6367,-3.6405,-3.6405,-3.6405,-3.6367,-3.6355,-3.6169,-3.5571,-3.542,-3.5257,-3.4776,-3.4236,-3.3847,-3.3847,-3.3432,-3.3124,-3.3124,-3.3124,-3.3124,-3.3124,-3.3124,-3.3124,-3.3124,-3.3124,-3.3124,-3.3124,0.0,0.0,-3.3124,-3.3124,-3.3124,0.0,0.0,0.0,0.0,0.0,-3.3124,-3.3124,-3.4079,-3.4594,-3.4594,-3.5466,-3.6122,-3.647,-3.5404,-3.408,-3.2593,-3.2593,-3.2558,-3.25,-3.25,-3.2464,-3.2357,-3.1462,-3.079,-3.0217,-2.9212,-2.8222,-2.7316,-2.7278,-2.6939,-2.6499,0.0,0.0,-3.6405,-3.6405,-3.6405,-3.6405,-3.6405,-3.6405,-3.6405,-3.6405,-3.6405,-3.6405,-3.6405,-3.6405,-3.6405,-3.6405,-3.6405,-3.6405,-3.6405,-3.6405,-3.6405,-3.6405,-3.6405,-3.6405,-3.6405,-3.6405,-3.6405,-3.6405,-3.6405,-3.6405,-3.6405,-3.6405,-3.6405,-3.6405,-3.6405,-3.6405,-3.6405,-3.6405,-3.6405,-3.6405,-3.6405,-3.6405,-3.6405,-3.6405,-3.6405,-3.6405,-3.6405,-3.6405,-3.6405,-3.6405,-3.6405,-3.6405,-3.6405,-3.6069,-3.5818,-3.6279,-3.6405,-3.6317,-3.5855,-3.5683,-3.5558,-3.5006,-3.46,-3.4261,-3.4123,-3.3671,-3.3269,-3.3269,-3.3212,-3.3124,-3.3124,-3.3124,-3.3124,-3.3124,-3.3124,-3.3124,-3.3124,-3.3124,-3.3124,0.0,-3.3124,-3.3124,-3.3124,-3.3124,-3.3124,0.0,0.0,-3.3124,-3.3124,-3.3124,-3.3124,-3.3124,-3.3356,-3.3471,-3.3471,-3.3264,-3.3143,-3.3147,-3.3679,-3.3475,-3.2593,-3.2593,-3.2213,-3.1536,-3.1536,-3.1119,-3.047,-3.0203,-2.9808,-2.9174,-2.8535,-2.7883,-2.7231,-2.6851,-2.6612,-2.6499,-3.6405,-3.6405,-3.6405,-3.6405,-3.6405,-3.6405,-3.6405,-3.6405,-3.6405,-3.6405,-3.6405,-3.6405,-3.6405,-3.6405,-3.6405,-3.6405,-3.6405,-3.6405,-3.6405,-3.6405,-3.6405,-3.6405,-3.6405,-3.6405,-3.6405,-3.6405,-3.6405,-3.6405,-3.6405,-3.6405,-3.6405,-3.6405,-3.6405,-3.6405,-3.6405,-3.6405,-3.6405,-3.6405,-3.6405,-3.6405,-3.6405,-3.6405,-3.6405,-3.6405,-3.6405,-3.6405,-3.6405,-3.6194,-3.5994,-3.5994,-3.5818,-3.5604,-3.5604,-3.5416,-3.5182,-3.5529,-3.5604,-3.5542,-3.5207,-3.5119,-3.4994,-3.4487,-3.3935,-3.352,-3.352,-3.3294,-3.3124,-3.3124,-3.3124,-3.3124,-3.3124,-3.3124,-3.3124,-3.3124,-3.3124,-3.3124,-3.3124,-3.3124,-3.3124,-3.3124,-3.3124,-3.3124,-3.3124,-3.3124,-3.3124,-3.3124,-3.3124,0.0,-3.3124,-3.3124,-3.3124,-3.3124,-3.3124,-3.3124,-3.3124,-3.2686,-3.2102,-3.1358,-3.2137,-3.2102,-3.1304,-3.1304,-3.1057,-3.0558,-3.0558,-3.0279,-2.9779,-2.9503,-2.9063,-2.8461,-2.7946,-2.7394,-2.6901,-2.66,-2.6499,-2.6499,-3.6405,-3.6405,-3.6405,-3.6405,-3.6405,-3.6405,-3.6405,-3.6405,-3.6405,-3.6405,-3.6405,-3.6405,-3.6405,-3.6405,-3.6405,-3.6405,-3.6405,-3.6405,-3.6405,-3.6405,-3.6405,-3.6405,-3.6405,-3.6405,-3.6405,-3.6405,-3.6405,-3.6405,-3.6405,-3.6405,-3.6405,-3.6405,-3.6405,-3.6405,-3.6405,-3.6405,-3.6405,-3.6405,-3.6405,-3.6405,-3.6317,-3.6279,-3.6279,-3.6191,-3.6153,-3.6153,-3.6153,-3.5818,-3.537,-3.537,-3.5069,-3.468,-3.468,-3.4618,-3.46,-3.46,-3.4537,-3.45,-3.4575,-3.4537,-3.4361,-3.3884,-3.342,-3.3124,-3.3124,-3.3124,-3.3124,-3.3124,-3.3124,-3.3124,-3.3124,-3.3124,-3.3124,-3.3124,-3.3124,-3.3124,-3.3124,0.0,-3.3124,-3.3124,-3.3124,-3.3124,-3.3124,-3.3124,-3.3124,-3.3124,-3.3124,-3.3124,-3.3124,-3.2993,-3.2943,-3.2943,-3.2943,-3.2867,-3.2704,-3.2557,-3.1796,-3.0482,-3.0828,-3.0558,-2.9792,-2.9792,-2.9792,-2.9792,-2.9792,-2.9792,-2.9741,-2.9126,-2.8562,-2.8047,-2.7494,-2.6977,-2.6499,-2.6499,-2.6499,-2.6499,-3.6405,-3.6405,-3.6405,-3.6405,-3.6405,-3.6405,-3.6405,-3.6405,-3.6405,-3.6405,-3.6405,-3.6405,-3.6405,-3.6405,-3.6405,-3.6405,-3.6405,-3.6405,-3.6405,-3.6405,-3.6405,-3.6405,-3.6405,-3.6405,-3.6405,-3.6405,-3.6405,-3.6405,-3.6405,-3.6405,-3.6405,-3.6405,-3.6405,-3.6405,-3.6405,-3.6405,-3.6405,-3.6405,-3.6405,-3.6367,-3.5855,-3.5621,-3.5571,-3.5152,-3.4977,-3.4977,-3.4977,-3.4914,-3.4806,-3.4806,-3.4756,-3.468,-3.468,-3.4399,-3.4022,-3.4022,-3.3696,-3.3432,-3.3897,-3.3684,-3.3319,-3.3219,-3.3144,-3.3124,-3.3124,-3.3124,-3.3124,-3.3124,-3.3124,-3.3124,-3.3124,-3.3124,-3.3124,-3.3124,-3.3124,-3.3124,-3.3124,0.0,-3.3124,-3.3124,-3.3124,-3.3124,-3.3124,-3.3124,-3.3124,-3.3124,-3.3124,-3.3124,-3.3124,-3.2616,-3.2353,-3.2353,-3.2353,-3.1913,-3.1009,-3.0968,-3.0602,-2.9917,-2.9972,-2.9934,-2.9792,-2.9792,-2.9792,-2.9792,-2.9792,-2.9792,-2.9741,-2.9126,-2.8562,-2.8047,-2.7494,-2.6977,-2.6499,-2.6499,-2.6499,-2.6499,-3.6405,-3.6405,-3.6405,-3.6405,-3.6405,-3.6405,-3.6405,-3.6405,-3.6405,-3.6405,-3.6405,-3.6405,-3.6405,-3.6405,-3.6405,-3.6405,-3.6405,-3.6405,-3.6405,-3.6405,-3.6405,-3.6405,-3.6405,-3.6405,-3.6405,-3.6405,-3.6405,-3.6405,-3.6405,-3.6405,-3.6405,-3.6405,-3.6405,-3.6405,-3.6056,-3.5931,-3.5906,-3.5604,-3.5479,-3.5454,-3.5203,-3.5056,-3.5031,-3.4768,-3.468,-3.468,-3.468,-3.4525,-3.4274,-3.4274,-3.4085,-3.3834,-3.3834,-3.3658,-3.3458,-3.3458,-3.3269,-3.3131,-3.3382,-3.3269,-3.3124,-3.3124,-3.3124,-3.3124,-3.3124,-3.3124,-3.3124,-3.3124,-3.3124,-3.3124,-3.3124,-3.3124,-3.3124,-3.3124,-3.3124,0.0,-3.3124,-3.3124,-3.3124,-3.3124,-3.3124,-3.3124,-3.3124,-3.3124,-3.3124,-3.3124,-3.2792,-3.2616,-3.2616,-3.2077,-3.1763,-3.1763,-3.1763,-3.1399,-3.062,-3.062,-3.0331,-2.9792,-2.9792,-2.9792,-2.9792,-2.9792,-2.9792,-2.9792,-2.9792,-2.9616,-2.9289,-2.8712,-2.816,-2.7607,-2.709,-2.6713,-2.6499,-2.6499,-2.6499,-2.6499,-3.6405,-3.6405,-3.6405,-3.6405,-3.6405,-3.6405,-3.6405,-3.6405,-3.6405,-3.6405,-3.6405,-3.6405,-3.6405,-3.6405,-3.6405,-3.6405,-3.6405,-3.6405,-3.6405,-3.6405,-3.6405,-3.6405,-3.6405,-3.6405,-3.6405,-3.6405,-3.6405,-3.6405,-3.6405,-3.6342,-3.6169,-3.6169,-3.6107,-3.5956,-3.5542,-3.5307,-3.5282,-3.4856,-3.468,-3.4668,-3.4575,-3.4525,-3.4512,-3.4387,-3.4349,-3.4349,-3.4349,-3.406,-3.3709,-3.3709,-3.3432,-3.3124,-3.3124,-3.3124,-3.3124,-3.3124,-3.3124,-3.3124,-3.3124,-3.3124,-3.3124,-3.3124,-3.3124,-3.3124,-3.3124,-3.3124,-3.3124,-3.3124,-3.3124,-3.3124,-3.3124,-3.3124,-3.3124,-3.3124,0.0,-3.3124,-3.3124,-3.3124,-3.3124,-3.3124,-3.3124,-3.3018,-3.288,-3.288,-3.2817,-3.2692,-3.2277,-3.2026,-3.2026,-3.1512,-3.1148,-3.1022,-3.1148,-3.0959,-3.0432,-3.0419,-3.0218,-2.9792,-2.9792,-2.9792,-2.9792,-2.9792,-2.9792,-2.9779,-2.9654,-2.934,-2.8838,-2.8197,-2.7657,-2.7266,-2.6713,-2.6499,-2.6499,-2.6499,-2.6499,-2.6499,-3.6405,-3.6405,-3.6405,-3.6405,-3.6405,-3.6405,-3.6405,-3.6405,-3.6405,-3.6405,-3.6405,-3.6405,-3.6405,-3.6405,-3.6405,-3.6405,-3.6405,-3.6405,-3.6405,-3.6405,-3.6405,-3.6405,-3.6405,-3.6405,-3.6405,-3.6405,-3.6405,-3.6405,-3.6405,-3.6094,-3.5558,-3.5558,-3.5282,-3.4839,-3.4801,-3.4776,-3.4776,-3.4738,-3.468,-3.4675,-3.4161,-3.396,-3.3909,-3.3395,-3.3206,-3.3206,-3.3206,-3.3169,-3.3174,-3.3174,-3.3106,-3.3124,-3.3124,-3.3124,-3.3124,-3.3124,-3.3124,-3.3124,-3.3124,-3.3124,-3.3124,-3.3124,-3.3124,-3.3124,-3.3124,-3.3124,-3.3124,-3.3124,-3.3124,-3.3124,-3.3124,-3.3124,-3.3124,-3.3124,0.0,0.0,-3.3124,-3.3124,-3.3124,-3.3124,-3.3124,-3.2867,-3.2328,-3.2277,-3.2064,-3.1549,-3.1474,-3.1449,-3.1449,-3.0959,-3.0432,-2.993,-3.0407,-3.0407,-2.9854,-2.9854,-2.9829,-2.9792,-2.9792,-2.9792,-2.9792,-2.9792,-2.9792,-2.9767,-2.9227,-2.8938,-2.8813,-2.7783,-2.7354,-2.7266,-2.6713,-2.6499,-2.6499,-2.6499,-2.6499,-2.6499,-3.6405,-3.6405,-3.6405,-3.6405,-3.6405,-3.6405,-3.6405,-3.6405,-3.6405,-3.6405,-3.6405,-3.6405,-3.6405,-3.6405,-3.6405,-3.6405,-3.6405,-3.6405,-3.6405,-3.6405,-3.6405,-3.6405,-3.6405,-3.6405,-3.6405,-3.6031,-3.5855,-3.5855,-3.5516,-3.524,-3.4994,-3.4994,-3.4881,-3.4713,-3.4361,-3.4211,-3.4186,-3.3847,-3.3709,-3.3684,-3.347,-3.3382,-3.337,-3.3156,-3.3124,-3.3124,-3.3124,-3.3124,-3.3124,-3.3124,-3.3124,-3.3124,-3.3124,-3.3124,-3.3124,-3.3124,-3.3124,-3.3124,-3.3124,-3.3124,-3.3124,-3.3124,-3.3124,-3.3124,-3.3124,-3.3124,-3.3124,-3.3124,-3.3124,-3.3124,-3.3124,-3.3124,-3.3124,-3.3124,0.0,-3.3124,-3.3124,-3.3124,-3.2943,-3.2591,-3.2541,-3.2315,-3.175,-3.17,-3.1612,-3.1411,-3.1085,-3.0909,-3.0909,-3.0394,-3.0005,-2.9804,-2.9993,-3.0005,-2.9792,-2.9792,-2.9792,-2.9792,-2.9792,-2.9792,-2.9792,-2.9792,-2.9792,-2.9767,-2.9176,-2.87,-2.836,-2.7595,-2.7115,-2.6788,-2.6575,-2.6499,-2.6499,-2.6499,-2.6499,-2.6499,-3.6405,-3.6405,-3.6405,-3.6405,-3.6405,-3.6405,-3.6405,-3.6405,-3.6405,-3.6405,-3.6405,-3.6405,-3.6405,-3.6405,-3.6405,-3.6405,-3.6207,-3.6107,-3.6107,-3.5943,-3.5918,-3.6094,-3.5943,-3.5889,-3.5889,-3.5479,-3.5245,-3.5245,-3.4868,-3.4625,-3.4462,-3.4462,-3.4374,-3.4186,-3.3809,-3.3646,-3.3621,-3.3244,-3.3124,-3.3124,-3.3124,-3.3124,-3.3124,-3.3124,-3.3124,-3.3124,-3.3124,-3.3124,-3.3124,-3.3124,-3.3124,-3.3124,-3.3124,-3.3124,-3.3124,-3.3124,-3.3124,-3.3124,-3.3124,-3.3124,-3.3124,-3.3124,-3.3124,-3.3124,-3.3124,-3.3124,-3.3124,-3.3124,-3.3124,-3.3124,-3.3124,-3.3124,-3.3061,-3.283,-3.2805,-3.2742,-3.2566,-3.2596,-3.2403,-3.2001,-3.1951,-3.1738,-3.1198,-3.1148,-3.1072,-3.0896,-3.0557,-3.0357,-3.0357,-2.9993,-2.9792,-2.9792,-2.9792,-2.9792,-2.9792,-2.9792,-2.9792,-2.9792,-2.9792,-2.9792,-2.9792,-2.9792,-2.9691,-2.949,-2.8875,-2.836,-2.7808,-2.7291,-2.6839,-2.6499,-2.6499,-2.6499,-2.6499,-2.6499,-2.6499,-2.6499,-3.6405,-3.6405,-3.6405,-3.6405,-3.6405,-3.6405,-3.6405,-3.6405,-3.6405,-3.6405,-3.6405,-3.6405,-3.6405,-3.6405,-3.6405,-3.6405,-3.5855,-3.5495,-3.5495,-3.4969,-3.4919,-3.5458,-3.4969,-3.468,-3.468,-3.4713,-3.4668,-3.4668,-3.4668,-3.4424,-3.3884,-3.3884,-3.3608,-3.3124,-3.3124,-3.3124,-3.3124,-3.3124,-3.3124,-3.3124,-3.3124,-3.3124,-3.3124,-3.3124,-3.3124,-3.3124,-3.3124,-3.3124,-3.3124,-3.3124,-3.3124,-3.3124,-3.3124,-3.3124,-3.3124,-3.3124,-3.3124,-3.3124,-3.3124,-3.3124,-3.3124,-3.3124,-3.3124,-3.3124,-3.3124,-3.3124,-3.3124,-3.3111,-3.3111,-3.3111,-3.3111,-3.3111,-3.288,-3.2303,-3.2202,-3.2014,-3.1461,-3.1386,-3.1386,-3.1386,-3.1386,-3.1185,-3.0658,-3.0608,-3.0382,-2.9829,-2.9792,-2.9792,-2.9792,-2.9792,-2.9792,-2.9792,-2.9792,-2.9792,-2.9792,-2.9792,-2.9792,-2.9792,-2.9792,-2.9792,-2.9792,-2.9792,-2.9478,-2.8863,-2.8348,-2.7783,-2.7278,-2.6725,-2.6499,-2.6499,-2.6499,-2.6499,-2.6499,-2.6499,-2.6499,-2.6499,-3.6405,-3.6405,-3.6405,-3.6405,-3.6405,-3.6405,-3.6405,-3.6405,-3.6267,-3.583,-3.5793,-3.5642,-3.5253,-3.5215,-3.5215,-3.5215,-3.5064,-3.4919,-3.4919,-3.4449,-3.4223,-3.4387,-3.4555,-3.468,-3.468,-3.4349,-3.4148,-3.4148,-3.3759,-3.3483,-3.3319,-3.3319,-3.3232,-3.3124,-3.3124,-3.3124,-3.3124,-3.3124,-3.3124,-3.3124,-3.3124,-3.3124,-3.3124,-3.3124,-3.3124,-3.3124,-3.3124,-3.3124,-3.3124,-3.3124,-3.3124,-3.3124,-3.3124,-3.3124,-3.3124,-3.3124,-3.3124,-3.3124,-3.3124,-3.3124,-3.3124,-3.3124,-3.3124,-3.3124,-3.3124,-3.3124,-3.2968,-3.2554,-3.2466,-3.2353,-3.1964,-3.1901,-3.1838,-3.1662,-3.1637,-3.1574,-3.1411,-3.1386,-3.1248,-3.0884,-3.0846,-3.0633,-3.0093,-3.0043,-2.9967,-2.9804,-2.9792,-2.9792,-2.9792,-2.9792,-2.9792,-2.9792,-2.9792,-2.9792,-2.9792,-2.9792,-2.9792,-2.9792,-2.9792,-2.9792,-2.9779,-2.9365,-2.9051,-2.8838,-2.7934,-2.7431,-2.7278,-2.6725,-2.6499,-2.6499,-2.6499,-2.6499,-2.6499,-2.6499,-2.6499,-2.6499,-3.5717,-3.5717,-3.5717,-3.5717,-3.5717,-3.5717,-3.5717,-3.5717,-3.5592,-3.5219,-3.5169,-3.5044,-3.4763,-3.468,-3.468,-3.468,-3.4525,-3.4299,-3.4085,-3.3759,-3.3571,-3.3571,-3.3884,-3.4073,-3.4073,-3.3746,-3.3571,-3.3571,-3.3244,-3.3124,-3.3124,-3.3124,-3.3124,-3.3124,-3.3124,-3.3124,-3.3124,-3.3124,-3.3124,-3.3124,-3.3124,-3.3124,-3.3124,-3.3124,-3.3124,-3.3124,-3.3124,-3.3124,-3.3124,-3.3124,-3.3124,-3.3124,-3.3124,-3.3124,-3.3124,-3.3124,-3.3124,-3.3074,-3.2805,-3.2729,-3.2679,-3.2466,-3.2579,-3.2729,-3.2729,-3.2566,-3.2303,-3.1964,-3.1888,-3.1788,-3.1449,-3.1386,-3.1323,-3.1122,-3.1085,-3.1009,-3.0796,-3.0758,-3.0645,-3.0331,-3.0281,-3.0168,-2.9829,-2.9792,-2.9792,-2.9792,-2.9792,-2.9792,-2.9792,-2.9792,-2.9792,-2.9792,-2.9792,-2.9792,-2.9792,-2.9792,-2.9792,-2.9792,-2.9792,-2.9666,-2.944,-2.9089,-2.865,-2.8235,-2.757,-2.719,-2.6964,-2.6637,-2.6499,-2.6499,-2.6499,-2.6499,-2.6499,-2.6499,-2.6499,-2.6499,-3.468,-3.468,-3.468,-3.468,-3.468,-3.468,-3.468,-3.468,-3.4655,-3.4605,-3.465,-3.4625,-3.4575,-3.4575,-3.4575,-3.4575,-3.411,-3.3608,-3.3106,-3.3124,-3.3124,-3.3124,-3.3124,-3.3124,-3.3124,-3.3124,-3.3124,-3.3124,-3.3124,-3.3124,-3.3124,-3.3124,-3.3124,-3.3124,-3.3124,-3.3124,-3.3124,-3.3124,-3.3124,-3.3124,-3.3124,-3.3124,-3.3124,-3.3124,-3.3124,-3.3124,-3.3124,-3.3124,-3.3124,-3.3124,-3.3124,-3.3124,-3.3124,-3.3124,-3.3111,-3.3061,-3.3006,-3.2867,-3.229,-3.2139,-3.2014,-3.1512,-3.1738,-3.2077,-3.2127,-3.175,-3.1373,-3.1336,-3.1323,-3.1298,-3.126,-3.1248,-3.1097,-3.062,-3.0545,-3.0369,-2.9867,-2.9792,-2.9792,-2.9792,-2.9792,-2.9792,-2.9792,-2.9792,-2.9792,-2.9792,-2.9792,-2.9792,-2.9792,-2.9792,-2.9792,-2.9792,-2.9792,-2.9792,-2.9792,-2.9741,-2.9716,-2.9716,-2.9716,-2.9415,-2.8813,-2.8762,-2.8235,-2.7281,-2.7231,-2.6952,-2.6499,-2.6499,-2.6499,-2.6499,-2.6499,-2.6499,-2.6499,-2.6499,-2.6499,-2.6499,-3.468,-3.468,-3.468,-3.468,-3.468,-3.468,-3.468,-3.468,-3.4562,-3.4135,-3.4073,-3.3909,-3.3483,-3.3432,-3.3432,-3.3432,-3.3319,-3.3206,-3.3124,-3.3124,-3.3124,-3.3124,-3.3124,-3.3124,-3.3124,-3.3124,-3.3124,-3.3124,-3.3124,-3.3124,-3.3124,-3.3124,-3.3124,-3.3124,-3.3124,-3.3124,-3.3124,-3.3124,-3.3124,-3.3124,-3.3124,-3.3124,-3.3124,-3.3124,-3.3124,-3.3124,-3.3124,-3.3124,-3.3124,-3.3124,-3.3124,-3.3124,-3.3124,-3.3124,-3.2993,-3.2528,-3.2403,-3.2277,-3.1725,-3.1574,-3.1537,-3.1424,-3.1173,-3.1072,-3.1474,-3.1474,-3.1273,-3.0871,-3.0783,-3.0645,-3.0218,-3.0143,-3.0105,-2.9993,-2.9967,-2.993,-2.9817,-2.9792,-2.9792,-2.9792,-2.9792,-2.9792,-2.9792,-2.9792,-2.9792,-2.9792,-2.9792,-2.9792,-2.9792,-2.9792,-2.9792,-2.9792,-2.9792,-2.9792,-2.9792,-2.934,-2.9076,-2.9076,-2.9076,-2.8825,-2.8273,-2.7833,-2.7507,-2.7291,-2.6864,-2.66,-2.6499,-2.6499,-2.6499,-2.6499,-2.6499,-2.6499,-2.6499,-2.6499,-2.6499,-2.6499,-3.3935,-3.3935,-3.3935,-3.3935,-3.3935,-3.3935,-3.3935,-3.3935,-3.3834,-3.3545,-3.3508,-3.3395,-3.3106,-3.3124,-3.3124,-3.3124,-3.3124,-3.3124,-3.3124,-3.3124,-3.3124,-3.3124,-3.3124,-3.3124,-3.3124,-3.3124,-3.3124,-3.3124,-3.3124,-3.3124,-3.3124,-3.3124,-3.3124,-3.3124,-3.3124,-3.3124,-3.3124,-3.3124,-3.3124,-3.3124,-3.3124,-3.3124,-3.3124,-3.3124,-3.3124,-3.3124,-3.3124,-3.2893,-3.2667,-3.2667,-3.2491,-3.2277,-3.2277,-3.2277,-3.2215,-3.1913,-3.1813,-3.17,-3.116,-3.1022,-3.0959,-3.0696,-3.0432,-3.0369,-3.0896,-3.0821,-3.0545,-3.0281,-3.0218,-3.0131,-2.9842,-2.9792,-2.9792,-2.9792,-2.9792,-2.9792,-2.9792,-2.9792,-2.9792,-2.9792,-2.9792,-2.9792,-2.9792,-2.9792,-2.9792,-2.9792,-2.9792,-2.9792,-2.9792,-2.9792,-2.9792,-2.9792,-2.9792,-2.9666,-2.939,-2.9051,-2.8624,-2.8147,-2.8411,-2.8247,-2.7708,-2.7419,-2.7178,-2.6901,-2.6612,-2.6499,-2.6499,-2.6499,-2.6499,-2.6499,-2.6499,-2.6499,-2.6499,-2.6499,-2.6499,-2.6499,-3.3124,-3.3124,-3.3124,-3.3124,-3.3124,-3.3124,-3.3124,-3.3124,-3.3124,-3.3124,-3.3124,-3.3124,-3.3124,-3.3124,-3.3124,-3.3124,-3.3124,-3.3124,-3.3124,-3.3124,-3.3124,-3.3124,-3.3124,-3.3124,-3.3124,-3.3124,-3.3124,-3.3124,-3.3124,-3.3124,-3.3124,-3.3124,-3.3124,-3.3124,-3.3124,-3.3124,-3.3124,-3.3124,-3.3124,-3.3124,-3.3124,-3.3061,-3.293,-3.293,-3.2867,-3.2792,-3.2792,-3.2478,-3.2077,-3.2077,-3.1763,-3.1386,-3.1386,-3.1386,-3.1373,-3.1286,-3.126,-3.1148,-3.062,-3.047,-3.0369,-2.9905,-2.9792,-2.9917,-3.0369,-3.0118,-2.9792,-2.9792,-2.9792,-2.9792,-2.9792,-2.9792,-2.9792,-2.9792,-2.9792,-2.9792,-2.9792,-2.9792,-2.9792,-2.9792,-2.9792,-2.9792,-2.9792,-2.9792,-2.9792,-2.9792,-2.9792,-2.9792,-2.9792,-2.9792,-2.9792,-2.9792,-2.9691,-2.9415,-2.89,-2.87,-2.8185,-2.7293,-2.7657,-2.7582,-2.7178,-2.7178,-2.6927,-2.6499,-2.6499,-2.6499,-2.6499,-2.6499,-2.6499,-2.6499,-2.6499,-2.6499,-2.6499,-2.6499,-2.6499,-2.6499,-3.3124,-3.3124,-3.3124,-3.3124,-3.3124,-3.3124,-3.3124,-3.3124,-3.3124,-3.3124,-3.3124,-3.3124,-3.3124,-3.3124,-3.3124,-3.3124,-3.3124,-3.3124,-3.3124,-3.3124,-3.3124,-3.3124,-3.3124,-3.3124,-3.3124,-3.3124,-3.3124,-3.3124,-3.3124,-3.3124,-3.3124,-3.3124,-3.3124,-3.3124,-3.3124,-3.3124,-3.3124,-3.3124,-3.3124,-3.3124,-3.3124,-3.278,-3.2328,-3.2328,-3.2039,-3.1612,-3.1612,-3.1562,-3.1499,-3.1499,-3.1449,-3.1386,-3.1386,-3.1386,-3.1298,-3.0846,-3.0721,-3.0608,-3.0043,-2.9905,-2.988,-2.9817,-2.9792,-2.9817,-2.988,-2.9842,-2.9792,-2.9792,-2.9792,-2.9792,-2.9792,-2.9792,-2.9792,-2.9792,-2.9792,-2.9792,-2.9792,-2.9792,-2.9792,-2.9792,-2.9792,-2.9792,-2.9792,-2.9792,-2.9792,-2.9792,-2.9792,-2.9792,-2.9792,-2.9792,-2.9792,-2.9792,-2.9302,-2.8963,-2.8888,-2.7984,-2.7431,-2.7316,-2.6901,-2.6675,-2.6612,-2.6612,-2.6562,-2.6499,-2.6499,-2.6499,-2.6499,-2.6499,-2.6499,-2.6499,-2.6499,-2.6499,-2.6499,-2.6499,-2.6499,-2.6499,-3.3124,-3.3124,-3.3124,-3.3124,-3.3124,-3.3124,-3.3124,-3.3124,-3.3124,-3.3124,-3.3124,-3.3124,-3.3124,-3.3124,-3.3124,-3.3124,-3.3124,-3.3124,-3.3124,-3.3124,-3.3124,-3.3124,-3.3124,-3.3124,-3.3124,-3.3124,-3.3124,-3.3124,-3.3124,-3.3124,-3.3124,-3.3124,-3.3124,-3.3111,-3.2742,-3.2591,-3.2579,-3.2265,-3.2127,-3.2127,-3.2127,-3.1989,-3.175,-3.175,-3.1599,-3.1386,-3.1386,-3.1198,-3.0959,-3.0959,-3.0746,-3.0495,-3.0495,-3.0495,-3.0457,-3.0218,-3.0156,-3.0105,-2.9854,-2.9792,-2.9792,-2.9792,-2.9792,-2.9792,-2.9792,-2.9792,-2.9792,-2.9792,-2.9792,-2.9792,-2.9792,-2.9792,-2.9792,-2.9792,-2.9792,-2.9792,-2.9792,-2.9792,-2.9792,-2.9792,-2.9792,-2.9792,-2.9792,-2.9792,-2.9792,-2.9792,-2.9792,-2.9792,-2.9792,-2.9792,-2.9641,-2.9315,-2.9026,-2.8599,-2.8009,-2.7532,-2.7165,-2.6851,-2.6612,-2.6499,-2.6499,-2.6499,-2.6499,-2.6499,-2.6499,-2.6499,-2.6499,-2.6499,-2.6499,-2.6499,-2.6499,-2.6499,-2.6499,-2.6499,-2.6499,-2.6499]},{"header":{"parameterUnit":"m.s-1","parameterCategory":1,"la1":30.6,"la2":28.766,"lo1":-90.7593,"lo2":-88.6598,"dy":0.0162,"dx":0.0183,"nx":116,"ny":114,"refTime":"2023-06-22T06:00:00:Z","depth":0,"parameterNumber":3,"parameterNumberName":"V-component_of_WINDS"},"data":[0.0,0.0,0.0,0.0,0.0,0.0,0.0,0.0,0.0,0.0,0.0,0.0,0.0,0.0,0.0,0.0,0.0,0.0,0.0,0.0,0.0,0.0,0.0,0.0,0.0,0.0,0.0,0.0,0.0,0.0,0.0,0.0,0.0,0.0,0.0,0.0,0.0,0.0,0.0,0.0,0.0,0.0,0.0,0.0,0.0,0.0,0.0,0.0,0.0,0.0,0.0,0.0,0.0,0.0,0.0,0.0,0.0,0.0,0.0,0.0,0.0,0.0,0.0,0.0,0.0,0.0,0.0,0.0,0.0,0.0,0.0,0.0,0.0,0.0,0.0,0.0,0.0,0.0,0.0,0.0,0.0,0.0,0.0,0.0,0.0,0.0,0.0,0.0,0.0,0.0,0.0,0.0,0.0,0.0,0.0,0.0,0.0,0.0,0.0,0.0,0.0,0.0,0.0,0.0,0.0,0.0,0.0,0.0,0.0,0.0,0.0,0.0,0.0,0.0,0.0,0.0,0.0,0.0,0.0,0.0,0.0,0.0,0.0,0.0,0.0,0.0,0.0,0.0,0.0,0.0,0.0,0.0,0.0,0.0,0.0,0.0,0.0,0.0,0.0,0.0,0.0,0.0,0.0,0.0,0.0,0.0,0.0,0.0,0.0,0.0,0.0,0.0,0.0,0.0,0.0,0.0,0.0,0.0,0.0,0.0,0.0,0.0,0.0,0.0,0.0,0.0,0.0,0.0,0.0,0.0,0.0,0.0,0.0,0.0,0.0,0.0,0.0,0.0,0.0,0.0,0.0,0.0,0.0,0.0,0.0,0.0,0.0,0.0,0.0,0.0,0.0,0.0,0.0,0.0,0.0,0.0,0.0,0.0,0.0,0.0,0.0,0.0,0.0,0.0,0.0,0.0,0.0,0.0,0.0,0.0,0.0,0.0,0.0,0.0,0.0,0.0,0.0,0.0,0.0,0.0,0.0,0.0,0.0,0.0,0.0,0.0,0.0,0.0,0.0,0.0,0.0,0.0,0.0,0.0,0.0,0.0,0.0,0.0,0.0,0.0,0.0,0.0,0.0,0.0,0.0,0.0,0.0,0.0,0.0,0.0,0.0,0.0,0.0,0.0,0.0,0.0,0.0,0.0,0.0,0.0,0.0,0.0,0.0,0.0,0.0,0.0,0.0,0.0,0.0,0.0,0.0,0.0,0.0,0.0,0.0,0.0,0.0,0.0,0.0,0.0,0.0,0.0,0.0,0.0,0.0,0.0,0.0,0.0,0.0,0.0,0.0,0.0,0.0,0.0,0.0,0.0,0.0,0.0,0.0,0.0,0.0,0.0,0.0,0.0,0.0,0.0,0.0,0.0,0.0,0.0,0.0,0.0,0.0,0.0,0.0,0.0,0.0,0.0,0.0,0.0,0.0,0.0,0.0,0.0,0.0,0.0,0.0,0.0,0.0,0.0,0.0,0.0,0.0,0.0,0.0,0.0,0.0,0.0,0.0,0.0,0.0,0.0,0.0,0.0,0.0,0.0,0.0,0.0,0.0,0.0,0.0,0.0,0.0,0.0,0.0,0.0,0.0,0.0,0.0,0.0,0.0,0.0,0.0,0.0,0.0,0.0,0.0,0.0,0.0,0.0,0.0,0.0,0.0,0.0,0.0,0.0,0.0,0.0,0.0,0.0,0.0,0.0,0.0,0.0,0.0,0.0,0.0,0.0,0.0,0.0,0.0,0.0,0.0,0.0,0.0,0.0,0.0,0.0,0.0,0.0,0.0,0.0,0.0,0.0,0.0,0.0,0.0,0.0,0.0,0.0,0.0,0.0,0.0,0.0,0.0,0.0,0.0,0.0,0.0,0.0,0.0,0.0,0.0,0.0,0.0,0.0,0.0,0.0,0.0,0.0,0.0,0.0,0.0,0.0,0.0,0.0,0.0,0.0,0.0,0.0,0.0,0.0,0.0,0.0,0.0,0.0,0.0,0.0,0.0,0.0,0.0,0.0,0.0,0.0,0.0,0.0,0.0,0.0,0.0,0.0,0.0,0.0,0.0,0.0,0.0,0.0,0.0,0.0,0.0,0.0,0.0,0.0,0.0,0.0,0.0,0.0,0.0,0.0,0.0,0.0,0.0,0.0,0.0,0.0,0.0,0.0,0.0,0.0,0.0,0.0,0.0,0.0,0.0,0.0,0.0,0.0,0.0,0.0,0.0,0.0,0.0,0.0,0.0,0.0,0.0,0.0,0.0,0.0,0.0,0.0,0.0,0.0,0.0,0.0,0.0,0.0,0.0,0.0,0.0,0.0,0.0,0.0,0.0,0.0,0.0,0.0,0.0,0.0,0.0,0.0,0.0,0.0,0.0,0.0,0.0,0.0,0.0,0.0,0.0,0.0,0.0,0.0,0.0,0.0,0.0,0.0,0.0,0.0,0.0,0.0,0.0,0.0,0.0,0.0,0.0,0.0,0.0,0.0,0.0,0.0,0.0,0.0,0.0,0.0,0.0,0.0,0.0,0.0,0.0,0.0,0.0,0.0,0.0,0.0,0.0,0.0,0.0,0.0,0.0,0.0,0.0,0.0,0.0,0.0,0.0,0.0,0.0,0.0,0.0,0.0,0.0,0.0,0.0,0.0,0.0,0.0,0.0,0.0,0.0,0.0,0.0,0.0,0.0,0.0,0.0,0.0,0.0,0.0,0.0,0.0,0.0,0.0,0.0,0.0,0.0,0.0,0.0,0.0,0.0,0.0,0.0,0.0,0.0,0.0,0.0,0.0,0.0,0.0,0.0,0.0,0.0,0.0,0.0,0.0,0.0,0.0,0.0,0.0,0.0,0.0,0.0,0.0,0.0,0.0,0.0,0.0,0.0,0.0,0.0,0.0,0.0,0.0,0.0,0.0,0.0,0.0,0.0,0.0,0.0,0.0,0.0,0.0,0.0,0.0,0.0,0.0,0.0,0.0,0.0,0.0,0.0,0.0,0.0,0.0,0.0,0.0,0.0,0.0,0.0,0.0,0.0,0.0,0.0,0.0,0.0,0.0,0.0,0.0,0.0,0.0,0.0,0.0,0.0,0.0,0.0,0.0,0.0,0.0,0.0,0.0,0.0,0.0,0.0,0.0,0.0,0.0,0.0,0.0,0.0,0.0,0.0,0.0,0.0,0.0,0.0,0.0,0.0,0.0,0.0,0.0,0.0,0.0,0.0,0.0,0.0,0.0,0.0,0.0,0.0,0.0,0.0,0.0,0.0,0.0,0.0,0.0,0.0,0.0,0.0,0.0,0.0,0.0,0.0,0.0,0.0,0.0,0.0,0.0,0.0,0.0,0.0,0.0,0.0,0.0,0.0,0.0,0.0,0.0,0.0,0.0,0.0,0.0,0.0,0.0,0.0,0.0,0.0,0.0,0.0,0.0,0.0,0.0,0.0,0.0,0.0,0.0,0.0,0.0,0.0,0.0,0.0,0.0,0.0,0.0,0.0,0.0,0.0,0.0,0.0,0.0,0.0,0.0,0.0,0.0,0.0,0.0,0.0,0.0,0.0,0.0,0.0,0.0,0.0,0.0,0.0,0.0,0.0,0.0,0.0,0.0,0.0,0.0,0.0,0.0,0.0,0.0,0.0,0.0,0.0,0.0,0.0,0.0,0.0,0.0,0.0,0.0,0.0,0.0,0.0,0.0,0.0,0.0,0.0,0.0,0.0,0.0,0.0,0.0,0.0,0.0,0.0,0.0,0.0,0.0,0.0,0.0,0.0,0.0,0.0,0.0,0.0,0.0,0.0,0.0,0.0,0.0,0.0,0.0,0.0,0.0,0.0,0.0,0.0,0.0,0.0,0.0,0.0,0.0,0.0,0.0,0.0,0.0,0.0,0.0,0.0,0.0,0.0,0.0,0.0,0.0,0.0,0.0,0.0,0.0,0.0,0.0,0.0,0.0,0.0,0.0,0.0,0.0,0.0,0.0,0.0,0.0,0.0,0.0,0.0,0.0,0.0,0.0,0.0,0.0,0.0,0.0,0.0,0.0,0.0,0.0,0.0,0.0,0.0,0.0,0.0,0.0,0.0,0.0,0.0,0.0,0.0,0.0,0.0,0.0,0.0,0.0,0.0,0.0,0.0,0.0,0.0,0.0,0.0,0.0,0.0,0.0,0.0,0.0,0.0,0.0,0.0,0.0,0.0,0.0,0.0,0.0,0.0,0.0,0.0,0.0,0.0,0.0,0.0,0.0,0.0,0.0,0.0,0.0,0.0,0.0,0.0,0.0,0.0,0.0,0.0,0.0,0.0,0.0,0.0,0.0,0.0,0.0,0.0,0.0,0.0,0.0,0.0,0.0,0.0,0.0,0.0,0.0,0.0,0.0,0.0,0.0,0.0,0.0,0.0,0.0,0.0,0.0,0.0,0.0,0.0,0.0,0.0,0.0,0.0,0.0,0.0,0.0,0.0,0.0,0.0,0.0,0.0,0.0,0.0,0.0,0.0,0.0,0.0,0.0,0.0,0.0,0.0,0.0,0.0,0.0,0.0,0.0,0.0,0.0,0.0,0.0,0.0,0.0,0.0,0.0,0.0,0.0,0.0,0.0,0.0,0.0,0.0,0.0,0.0,0.0,0.0,0.0,0.0,0.0,0.0,0.0,0.0,0.0,0.0,0.0,0.0,0.0,0.0,0.0,0.0,0.0,0.0,0.0,0.0,0.0,0.0,0.0,0.0,0.0,0.0,0.0,0.0,0.0,0.0,0.0,0.0,0.0,0.0,0.0,0.0,0.0,0.0,0.0,0.0,0.0,0.0,0.0,0.0,0.0,0.0,0.0,0.0,0.0,0.0,0.0,0.0,0.0,0.0,0.0,0.0,0.0,0.0,0.0,0.0,0.0,0.0,0.0,0.0,0.0,0.0,0.0,0.0,0.0,0.0,0.0,0.0,0.0,0.0,0.0,0.0,0.0,0.0,0.0,0.0,0.0,0.0,0.0,0.0,0.0,0.0,0.0,0.0,0.0,0.0,0.0,0.0,0.0,0.0,0.0,0.0,0.0,0.0,0.0,0.0,0.0,0.0,0.0,0.0,0.0,0.0,0.0,0.0,0.0,0.0,0.0,0.0,0.0,0.0,0.0,0.0,0.0,0.0,0.0,0.0,0.0,0.0,0.0,0.0,0.0,0.0,0.0,0.0,0.0,0.0,0.0,0.0,0.0,0.0,0.0,0.0,0.0,0.0,0.0,0.0,0.0,0.0,0.0,0.0,0.0,0.0,0.0,0.0,0.0,0.0,0.0,0.0,0.0,0.0,0.0,0.0,0.0,0.0,0.0,0.0,0.0,0.0,0.0,0.0,0.0,0.0,0.0,0.0,0.0,0.0,0.0,0.0,0.0,0.0,0.0,0.0,0.0,0.0,0.0,0.0,0.0,0.0,0.0,0.0,0.0,0.0,0.0,0.0,0.0,0.0,0.0,0.0,0.0,0.0,0.0,0.0,0.0,0.0,0.0,0.0,0.0,0.0,0.0,0.0,0.0,0.0,0.0,0.0,0.0,0.0,0.0,0.0,0.0,0.0,0.0,0.0,0.0,0.0,0.0,0.0,0.0,0.0,0.0,0.0,0.0,0.0,0.0,0.0,0.0,0.0,0.0,0.0,0.0,0.0,0.0,0.0,0.0,0.0,0.0,0.0,0.0,0.0,0.0,0.0,0.0,0.0,0.0,0.0,0.0,0.0,0.0,0.0,0.0,0.0,0.0,0.0,0.0,0.0,0.0,0.0,0.0,0.0,0.0,0.0,0.0,0.0,0.0,0.0,0.0,0.0,0.0,0.0,0.0,0.0,0.0,0.0,0.0,0.0,0.0,0.0,0.0,0.0,0.0,0.0,0.0,0.0,0.0,0.0,0.0,0.0,0.0,0.0,0.0,0.0,0.0,0.0,0.0,0.0,0.0,0.0,0.0,0.0,0.0,0.0,0.0,0.0,0.0,0.0,0.0,0.0,0.0,0.0,0.0,0.0,0.0,0.0,0.0,0.0,0.0,0.0,0.0,0.0,0.0,0.0,0.0,0.0,0.0,0.0,0.0,0.0,0.0,0.0,0.0,0.0,0.0,0.0,0.0,0.0,0.0,0.0,0.0,-2.1316,-2.2702,0.0,0.0,0.0,0.0,0.0,0.0,0.0,0.0,0.0,0.0,0.0,0.0,0.0,0.0,0.0,0.0,0.0,0.0,0.0,0.0,0.0,0.0,0.0,0.0,0.0,0.0,0.0,0.0,0.0,0.0,0.0,0.0,0.0,0.0,0.0,0.0,0.0,0.0,0.0,0.0,0.0,0.0,0.0,0.0,0.0,0.0,0.0,0.0,0.0,0.0,0.0,0.0,0.0,0.0,0.0,0.0,0.0,0.0,0.0,0.0,0.0,0.0,0.0,0.0,0.0,0.0,0.0,0.0,0.0,0.0,0.0,0.0,0.0,0.0,0.0,0.0,0.0,0.0,0.0,0.0,0.0,0.0,0.0,0.0,0.0,0.0,0.0,0.0,0.0,0.0,0.0,0.0,0.0,0.0,0.0,0.0,0.0,0.0,0.0,0.0,0.0,0.0,0.0,0.0,0.0,0.0,0.0,0.0,0.0,0.0,0.0,0.0,0.0,0.0,-2.0981,-2.2032,0.0,0.0,0.0,0.0,0.0,0.0,0.0,0.0,0.0,0.0,0.0,0.0,0.0,0.0,0.0,0.0,0.0,0.0,0.0,0.0,0.0,0.0,0.0,0.0,0.0,0.0,0.0,0.0,0.0,0.0,0.0,0.0,0.0,0.0,0.0,0.0,0.0,0.0,0.0,0.0,0.0,0.0,0.0,0.0,0.0,0.0,0.0,0.0,0.0,0.0,0.0,0.0,0.0,0.0,0.0,0.0,0.0,0.0,0.0,0.0,0.0,0.0,0.0,0.0,0.0,0.0,0.0,0.0,0.0,0.0,0.0,0.0,0.0,0.0,0.0,0.0,0.0,0.0,0.0,0.0,0.0,0.0,0.0,0.0,0.0,0.0,0.0,0.0,0.0,0.0,0.0,0.0,0.0,0.0,0.0,0.0,0.0,0.0,0.0,0.0,0.0,0.0,0.0,0.0,0.0,0.0,0.0,0.0,-1.9424,-1.9424,-1.9424,-1.9424,-1.9424,-1.9482,-2.0702,-2.1529,-2.2202,-2.4646,0.0,0.0,0.0,0.0,0.0,0.0,0.0,0.0,0.0,0.0,0.0,0.0,0.0,0.0,0.0,0.0,0.0,0.0,0.0,0.0,0.0,0.0,0.0,0.0,0.0,0.0,0.0,0.0,0.0,0.0,0.0,0.0,0.0,0.0,0.0,0.0,0.0,0.0,-2.1885,-2.1885,-2.1943,-2.207,-2.2432,0.0,0.0,0.0,0.0,0.0,0.0,0.0,0.0,0.0,0.0,0.0,0.0,0.0,0.0,0.0,0.0,0.0,0.0,0.0,0.0,0.0,0.0,0.0,0.0,0.0,0.0,0.0,0.0,0.0,0.0,0.0,0.0,0.0,0.0,0.0,0.0,0.0,0.0,0.0,0.0,0.0,0.0,0.0,-1.7325,-1.7325,0.0,0.0,0.0,0.0,0.0,0.0,0.0,0.0,0.0,0.0,0.0,0.0,0.0,-1.9424,-1.9424,-1.9424,-1.9424,-1.9424,-1.9424,-1.9424,-1.9424,-1.9424,-1.9424,-1.9424,-1.9591,0.0,-2.3543,-2.3933,0.0,0.0,0.0,0.0,0.0,0.0,0.0,0.0,0.0,0.0,0.0,0.0,0.0,0.0,0.0,0.0,0.0,0.0,0.0,0.0,0.0,0.0,0.0,0.0,0.0,0.0,0.0,0.0,0.0,0.0,0.0,0.0,0.0,0.0,0.0,0.0,-2.1939,-2.1387,-2.1182,-2.1182,-2.1182,-2.1202,-2.1602,-2.2193,-2.2971,-2.368,0.0,0.0,0.0,0.0,0.0,0.0,0.0,0.0,0.0,0.0,0.0,0.0,0.0,0.0,0.0,0.0,0.0,0.0,0.0,0.0,0.0,0.0,0.0,0.0,0.0,0.0,0.0,0.0,0.0,0.0,0.0,0.0,0.0,0.0,0.0,0.0,0.0,0.0,0.0,-1.7987,-1.7325,-1.8227,-1.7566,-1.7026,0.0,0.0,0.0,0.0,0.0,0.0,0.0,0.0,0.0,-1.9424,-1.9424,-1.9424,-1.9424,-1.9424,-1.9424,-1.9424,-1.9424,-1.9424,-1.9424,-1.9424,-1.9424,-1.9424,-1.9424,-2.0594,-2.2645,-2.3431,-2.5105,-2.7159,0.0,0.0,0.0,0.0,-2.8291,-2.8291,0.0,0.0,0.0,0.0,0.0,0.0,0.0,0.0,0.0,0.0,0.0,0.0,0.0,0.0,0.0,-2.9792,0.0,0.0,0.0,0.0,0.0,0.0,0.0,0.0,0.0,0.0,0.0,0.0,-2.151,-2.1115,-2.0605,-2.0605,-2.0605,-2.0615,-2.0918,-2.183,-2.3154,-2.3549,-2.4316,0.0,0.0,0.0,0.0,0.0,0.0,0.0,0.0,0.0,0.0,0.0,0.0,0.0,0.0,0.0,0.0,0.0,0.0,0.0,0.0,0.0,0.0,0.0,0.0,0.0,0.0,0.0,0.0,0.0,0.0,0.0,0.0,0.0,0.0,0.0,0.0,0.0,0.0,-1.7987,-1.7443,-1.8642,-1.739,-1.655,0.0,0.0,0.0,0.0,0.0,0.0,-1.9424,-1.9424,-1.9424,-1.9424,-1.9424,-1.9424,-1.9424,-1.9424,-1.9424,-1.9424,-1.9424,-1.9424,-1.9424,-1.9424,-1.9424,-1.9424,-1.9424,-2.0256,-2.1692,-2.3207,-2.471,-2.6264,-2.7726,-2.8291,-2.8291,-2.8291,-2.8291,-2.8291,0.0,0.0,0.0,0.0,0.0,0.0,0.0,0.0,0.0,0.0,0.0,0.0,0.0,0.0,-2.9792,-2.9792,-2.9792,-2.9566,0.0,0.0,0.0,0.0,0.0,0.0,0.0,0.0,0.0,-2.3375,-2.2446,-2.151,-2.0605,-2.0605,-2.0605,-2.0605,-2.0625,-2.1397,-2.2832,-2.4287,-2.552,-2.6498,0.0,0.0,0.0,0.0,0.0,0.0,0.0,0.0,0.0,0.0,0.0,0.0,0.0,0.0,0.0,0.0,0.0,0.0,0.0,0.0,0.0,0.0,0.0,0.0,0.0,0.0,0.0,0.0,0.0,0.0,0.0,0.0,0.0,0.0,0.0,0.0,0.0,0.0,0.0,-1.7085,-1.5725,0.0,0.0,0.0,0.0,-1.9185,-1.9366,-1.9424,-1.9424,-1.9424,-1.9424,-1.9424,-1.9424,-1.9424,-1.9424,-1.9424,-1.9424,-1.9424,-1.9424,-1.9424,-1.9424,-1.9424,-1.9424,-1.9424,-1.9424,-2.0256,-2.1692,-2.3207,-2.471,-2.6264,-2.7726,-2.8291,-2.8291,-2.8291,-2.8291,-2.8291,0.0,0.0,0.0,0.0,0.0,0.0,0.0,0.0,0.0,0.0,0.0,0.0,0.0,-3.0921,-2.9792,-2.9792,-2.9453,-2.9113,-2.89,0.0,0.0,0.0,0.0,0.0,0.0,0.0,-2.3551,-2.2553,-2.1555,-2.0934,-2.0605,-2.0605,-2.0605,-2.0605,-2.0605,-2.1581,-2.3235,-2.3787,-2.4622,-2.5599,-2.6677,-2.7077,0.0,0.0,0.0,0.0,0.0,0.0,0.0,0.0,0.0,0.0,0.0,0.0,0.0,0.0,0.0,0.0,0.0,0.0,0.0,0.0,0.0,0.0,0.0,0.0,0.0,0.0,0.0,0.0,0.0,0.0,0.0,0.0,0.0,0.0,0.0,0.0,0.0,-1.7026,-1.5607,0.0,-1.537,-1.6374,-1.6791,-1.6326,-1.8233,-1.8946,-1.7923,-1.8823,-1.9424,-1.9424,-1.9424,-1.9424,-1.9424,-1.9424,-1.9424,-1.9424,-1.9424,-1.9424,-1.9424,-1.9424,-1.9424,-1.9424,-1.9424,-2.0256,-2.1692,-2.3207,-2.471,-2.6264,-2.7726,-2.8291,-2.8291,-2.8291,-2.8291,-2.8291,0.0,0.0,0.0,0.0,0.0,0.0,0.0,0.0,0.0,0.0,0.0,-3.2961,-3.2629,-3.1193,-3.0063,-2.9554,-2.9113,-2.8737,-2.8398,0.0,0.0,0.0,0.0,0.0,0.0,-2.4516,-2.3514,-2.2515,-2.1555,-2.0895,-2.0605,-2.0605,-2.0605,-2.0605,-2.0934,-2.1783,-2.3036,-2.3708,-2.4588,-2.5558,-2.6245,-2.6499,-2.6499,0.0,0.0,0.0,0.0,0.0,0.0,0.0,0.0,0.0,0.0,0.0,0.0,0.0,0.0,0.0,0.0,0.0,0.0,0.0,0.0,0.0,0.0,0.0,0.0,0.0,0.0,0.0,0.0,0.0,0.0,0.0,0.0,0.0,0.0,-1.8467,-1.7806,-1.7806,-1.638,-1.5607,-1.6149,-1.6203,-1.6197,-1.6208,-1.7689,-1.8344,-1.7864,-1.8823,-1.9424,-1.9424,-1.9424,-1.9424,-1.9424,-1.9424,-1.9424,-1.9424,-1.9424,-1.9424,-1.9424,-1.9424,-1.9424,-1.9424,-1.9424,-2.0256,-2.1692,-2.3207,-2.471,-2.6264,-2.7726,-2.8291,-2.8291,-2.8291,-2.8291,-2.8291,0.0,0.0,0.0,0.0,0.0,0.0,0.0,0.0,0.0,0.0,-3.461,-3.3671,-3.2749,-3.1815,-3.0623,-2.9076,-2.8913,-2.8436,-2.7392,-2.7268,0.0,0.0,0.0,0.0,-2.6499,-2.5511,-2.4528,-2.3562,-2.2553,-2.1593,-2.0683,-2.0683,-2.0683,-2.0712,-2.1631,-2.2065,-2.2215,-2.4192,-2.5581,-2.6499,-2.6499,-2.6499,-2.6499,0.0,0.0,0.0,0.0,0.0,0.0,0.0,0.0,0.0,0.0,0.0,0.0,0.0,0.0,0.0,0.0,0.0,0.0,0.0,0.0,0.0,0.0,0.0,0.0,0.0,0.0,0.0,0.0,0.0,0.0,0.0,0.0,0.0,-1.9312,-1.9417,-1.9366,-1.9307,-1.7923,-1.7624,-1.9185,-1.6503,-1.5972,-1.9068,-1.7923,-1.7747,-1.9243,-1.9366,-1.9424,-1.9424,-1.9424,-1.9424,-1.9424,-1.9424,-1.9424,-1.9424,-1.9424,-1.9424,-1.9424,-1.9424,-1.9424,-1.9424,-1.9424,-2.0256,-2.1692,-2.3207,-2.471,-2.6264,-2.7726,-2.8291,-2.8291,-2.8291,-2.8291,-2.8291,0.0,0.0,0.0,0.0,0.0,0.0,0.0,0.0,0.0,0.0,-3.461,-3.391,-3.3636,-3.2784,-3.1622,-3.0124,-2.9608,-2.874,-2.7402,0.0,0.0,0.0,0.0,0.0,-2.6499,-2.5511,-2.4862,-2.46,-2.3599,-2.2962,-2.2713,-2.2713,-2.2713,-2.2702,-2.2962,-2.3478,-2.4228,-2.4755,-2.5581,-2.6499,-2.6499,-2.6499,-2.6499,0.0,0.0,0.0,0.0,0.0,0.0,0.0,0.0,0.0,0.0,0.0,0.0,0.0,0.0,0.0,0.0,0.0,0.0,0.0,0.0,0.0,0.0,0.0,0.0,0.0,0.0,0.0,0.0,0.0,0.0,0.0,-1.8482,-1.8951,-1.9032,-1.9232,-1.8946,-1.7806,-1.7267,-1.7144,-1.7624,-1.685,-1.6733,-1.7566,-1.8344,-1.8402,-1.7689,-1.8765,-1.9424,-1.9424,-1.9424,-1.9424,-1.9424,-1.9424,-1.9424,-1.9424,-1.9424,-1.9424,-1.9424,-1.9424,-1.9424,-1.9424,-1.9424,-2.0256,-2.1692,-2.3207,-2.471,-2.6264,-2.7726,-2.8291,-2.8291,-2.8291,-2.8291,-2.8291,0.0,0.0,0.0,0.0,0.0,0.0,0.0,0.0,0.0,0.0,-3.4986,-3.4461,-3.4061,-3.3518,-3.2472,-3.0705,-2.9896,-2.89,-2.7545,0.0,0.0,0.0,0.0,-2.6499,-2.6499,-2.5511,-2.5004,-2.5004,-2.4,-2.3514,-2.3514,-2.3514,-2.3514,-2.3514,-2.3927,-2.4445,-2.5052,-2.5441,-2.599,-2.6499,-2.6499,-2.6499,-2.6499,-2.6499,-2.6499,-2.6499,-2.6499,-2.6499,-2.6499,-2.6499,0.0,0.0,0.0,0.0,0.0,0.0,0.0,0.0,0.0,0.0,0.0,0.0,0.0,0.0,0.0,0.0,0.0,0.0,0.0,0.0,0.0,0.0,0.0,0.0,-1.8382,-1.8784,-1.8905,-1.9178,-1.9068,-1.8104,-1.7384,-1.7261,-1.7929,-1.6791,-1.6556,-1.7923,-1.8227,-1.8286,-1.8046,-1.8887,-1.9424,-1.9424,-1.9424,-1.9424,-1.9424,-1.9424,-1.9424,-1.9424,-1.9424,-1.9424,-1.9424,-1.9424,-1.9424,-1.9424,-1.9424,-2.0594,-2.2589,-2.3431,-2.5049,0.0,0.0,0.0,0.0,0.0,-2.8291,-2.8291,0.0,0.0,0.0,0.0,0.0,0.0,0.0,0.0,0.0,0.0,0.0,-3.5166,-3.4279,-3.4177,-3.3307,-3.1143,-3.0269,-2.9272,0.0,0.0,0.0,-2.767,-2.704,-2.6589,-2.6499,-2.5629,-2.5158,-2.5158,-2.4301,-2.3843,-2.3843,-2.3843,-2.3843,-2.3891,-2.4779,-2.5158,-2.5229,-2.6129,-2.6499,-2.6499,-2.6589,-2.6589,-2.6499,-2.6499,-2.6499,-2.6499,-2.6589,-2.6589,-2.6499,-2.6589,0.0,0.0,0.0,0.0,0.0,0.0,0.0,0.0,0.0,0.0,0.0,0.0,0.0,0.0,0.0,0.0,0.0,0.0,0.0,0.0,0.0,0.0,0.0,0.0,-1.8323,-1.8631,-1.8885,-1.9178,-1.9424,-1.9424,-1.8163,-1.7806,-1.9243,-1.6803,-1.6326,-1.9191,-1.8104,-1.7864,-1.9307,-1.9424,0.0,0.0,0.0,-1.9424,-1.9424,-1.9424,-1.9424,-1.9424,-1.9424,-1.9424,-1.9424,-1.9424,-1.9424,-1.9424,-1.9424,-2.0881,-2.3319,-2.3654,-2.5608,-2.8291,-2.8291,-2.8291,-2.8291,-2.8291,-2.8291,-2.8291,0.0,0.0,0.0,0.0,0.0,0.0,0.0,0.0,0.0,-3.5504,-3.5504,-3.5439,-3.5246,-3.5213,-3.4324,-3.2112,-3.1771,-3.0843,0.0,0.0,-2.8266,-2.7736,-2.7537,-2.7162,-2.6499,-2.6314,-2.6198,-2.6198,-2.6013,-2.5908,-2.5908,-2.5908,-2.5908,-2.5943,-2.6129,-2.6198,-2.6233,-2.6418,-2.6499,-2.6555,-2.7196,-2.7061,-2.6499,-2.6499,-2.6499,-2.6589,-2.7229,-2.704,-2.6589,-2.7263,-2.704,-2.6499,-2.6499,0.0,0.0,0.0,0.0,0.0,0.0,0.0,0.0,0.0,0.0,0.0,0.0,0.0,0.0,0.0,0.0,0.0,0.0,0.0,0.0,-1.7982,-1.8435,-1.8858,-1.8918,-1.9178,-1.9424,-1.9424,-1.9127,-1.9068,-1.9366,-1.8829,-1.8706,-1.9366,-1.9127,-1.9062,-1.9366,-1.9424,-1.9424,-1.9424,-1.9424,-1.9424,-1.9424,-1.9424,-1.9424,-1.9424,0.0,0.0,-1.9424,-1.9424,-1.9424,-1.9424,-1.9424,-1.9707,-2.0436,-2.2822,-2.5608,-2.8291,-2.8291,-2.8291,-2.8291,-2.8291,-2.8291,-2.8291,0.0,0.0,0.0,0.0,0.0,0.0,0.0,0.0,0.0,0.0,-3.5504,-3.5504,-3.5504,-3.519,-3.4418,-3.297,-3.1862,0.0,0.0,-2.9254,-2.9002,-2.9002,-2.8588,-2.8149,-2.7769,-2.7317,-2.7095,-2.7095,-2.6679,-2.6499,-2.6499,-2.6499,-2.6499,-2.6499,-2.6499,-2.6499,-2.6521,-2.6939,-2.7095,-2.7162,-2.8019,-2.8117,-2.7703,-2.7263,-2.7384,-2.7703,-2.7263,-2.7095,-2.7095,-2.7095,-2.685,-2.6499,-2.6499,-2.6876,-2.731,0.0,0.0,0.0,0.0,0.0,0.0,0.0,0.0,0.0,0.0,0.0,0.0,0.0,0.0,-1.7629,-1.7789,0.0,-1.8089,-1.8382,-1.8675,-1.8978,-1.9125,-1.9272,-1.9424,-1.9424,-1.8706,-1.8525,-1.9307,-1.8642,-1.8525,-1.9366,-1.9424,-1.9424,-1.9424,-1.9424,-1.9424,-1.9424,-1.9424,-1.9424,-1.9424,-1.9424,-1.9424,-1.9424,-1.9424,-1.9424,-1.9424,-1.9424,-1.9424,-1.9424,-1.9424,-1.9815,-2.0759,-2.371,-2.6273,-2.8291,-2.8291,-2.8291,-2.8291,-2.8291,-2.8291,-2.8291,0.0,0.0,0.0,0.0,0.0,0.0,0.0,0.0,0.0,0.0,0.0,-3.5504,-3.5504,-3.5011,-3.4352,0.0,0.0,0.0,0.0,-2.9889,-2.9721,-3.0269,-2.9628,-2.916,-2.9002,-2.8298,-2.7953,-2.7953,-2.7129,-2.6816,-2.6973,-2.6816,-2.6816,-2.7007,-2.7007,-2.7007,-2.704,-2.767,-2.7953,-2.8019,-2.8907,-2.9254,-2.9192,-2.846,-2.8524,-2.8844,-2.767,-2.7451,-2.7637,-2.7162,-2.6782,-2.6499,-2.6499,-2.6562,-2.6652,-2.6675,-2.7409,0.0,0.0,0.0,0.0,0.0,0.0,0.0,0.0,-2.0029,-1.9483,-1.7661,-1.7468,-1.7749,-1.7949,-1.8089,-1.8315,-1.8844,-1.8971,-1.9092,-1.9332,-1.9424,-1.9424,-1.9424,-1.8286,-1.7987,-1.9243,-1.8221,-1.7987,-1.9307,-1.9424,-1.9424,-1.9424,-1.9424,-1.9424,-1.9424,-1.9424,-1.9424,-1.9424,-1.9424,-1.9424,-1.9424,-1.9424,-1.9424,-1.9424,-1.9424,-1.9424,-1.9424,-1.9424,-2.0429,-2.2202,-2.4646,-2.6717,-2.8291,-2.8291,-2.8291,-2.8291,-2.8291,-2.8291,-2.8291,0.0,0.0,0.0,0.0,0.0,0.0,0.0,0.0,0.0,0.0,0.0,0.0,0.0,0.0,0.0,0.0,0.0,0.0,-3.138,-3.1278,-3.094,-3.0329,-3.0208,-2.9797,-2.9034,-2.8907,-2.8844,-2.8844,-2.7986,-2.7953,-2.8716,-2.792,-2.7986,-2.8716,-2.8716,-2.8716,-2.8716,-2.8812,-2.8844,-2.8939,-2.9797,-3.0133,-3.0133,-3.0042,-2.9597,-2.9097,-2.9659,-2.8939,-2.7802,-2.8492,-2.7736,-2.6499,-2.6499,-2.6839,-2.7218,-2.7224,0.0,-2.8347,-2.6126,-2.4525,-2.343,-2.3178,-2.2306,-2.1311,0.0,-1.9489,-1.848,-1.7728,-1.7776,-1.7949,-1.7982,-1.8422,-1.8844,-1.8911,-1.9145,-1.939,-1.9366,-1.9424,-1.9424,-1.9424,-1.9243,-1.9185,-1.9366,-1.9243,-1.9185,-1.9366,-1.9424,-1.9424,-1.9424,-1.9424,-1.9424,-1.9424,-1.9424,-1.9424,-1.9424,-1.9424,-1.9424,-1.9424,-1.9424,-1.9424,-1.9424,-1.9424,-1.9424,-1.9424,-1.9424,-2.0988,-2.3599,-2.3933,-2.5717,-2.8291,-2.8291,-2.8291,-2.8291,-2.8291,-2.8291,-2.8291,0.0,0.0,0.0,0.0,0.0,0.0,0.0,0.0,0.0,0.0,0.0,0.0,0.0,0.0,0.0,0.0,0.0,0.0,-3.1525,-3.1511,-3.1351,-3.0999,-3.0999,-3.0837,-3.045,-3.0011,-2.9766,-2.9766,-2.8876,-2.8652,-2.9002,-2.862,-2.8652,-2.9002,-2.9002,-2.9002,-2.9034,-2.9535,-2.9766,-2.9827,-3.0644,-3.0999,-3.0999,-3.0999,-3.0777,-3.0359,-2.9766,-2.9097,0.0,0.0,-2.7484,-2.6499,-2.6499,-2.665,-2.6784,-2.649,-2.6944,-2.7179,-2.5584,-2.4152,-2.3091,-2.3091,-2.2913,-2.2298,-2.0512,-2.0047,-1.9449,-1.7733,-1.7702,-1.8083,-1.827,-1.8644,-1.8978,-1.9152,-1.9285,-1.9424,-1.9424,-1.9424,-1.9424,-1.9424,-1.9424,-1.9424,-1.9424,-1.9424,-1.9424,-1.9424,-1.9424,-1.9424,-1.9424,-1.9424,-1.9424,-1.9424,-1.9424,-1.9424,-1.9424,-1.9424,-1.9424,-1.9424,-1.9424,-1.9424,-1.9424,-1.9424,-1.9424,-1.9424,-1.9424,-2.0594,-2.2589,-2.3431,-2.5049,-2.7105,-2.795,-2.8291,-2.8291,-2.8291,-2.8291,-2.8291,0.0,0.0,0.0,0.0,0.0,0.0,0.0,0.0,0.0,0.0,0.0,0.0,0.0,0.0,0.0,0.0,0.0,0.0,0.0,-3.16,-3.1511,-3.1511,-3.1511,-3.1511,-3.1511,-3.0925,-3.0614,-3.0614,-2.9797,-2.9473,-2.9659,-2.9473,-2.9473,-2.969,-2.969,-2.969,-2.9721,-3.0359,-3.0614,-3.0673,-3.1278,-3.1511,-3.1511,-3.1511,-3.1351,-3.0999,-2.9797,-2.9192,0.0,0.0,-2.7162,-2.6499,-2.6499,-2.6499,-2.6389,-2.5769,-2.5606,-2.5491,-2.4954,-2.3963,-2.3091,-2.3091,-2.3191,-2.2739,-2.0533,-2.0273,-1.9903,-1.775,-1.7736,-1.8217,-1.845,-1.8798,-1.9118,-1.9332,-1.9424,-1.9424,-1.9424,-1.9424,-1.9424,-1.9424,-1.9424,-1.9424,-1.9424,-1.9424,-1.9424,-1.9424,-1.9424,-1.9424,-1.9424,-1.9424,-1.9424,-1.9424,-1.9424,-1.9424,-1.9424,-1.9424,-1.9424,-1.9424,-1.9424,-1.9424,-1.9424,-1.9424,-1.9424,-1.9424,-1.9424,-2.0486,-2.2315,-2.3375,-2.4939,-2.6825,-2.7897,-2.8291,-2.8291,-2.8291,-2.8291,-2.8291,0.0,0.0,0.0,0.0,0.0,0.0,0.0,0.0,0.0,0.0,0.0,0.0,0.0,0.0,0.0,0.0,0.0,0.0,0.0,-3.1854,-3.1511,-3.1511,-3.1511,-3.1511,-3.1511,-3.1467,-3.1467,-3.1467,-3.0644,-3.0644,-3.1409,-3.0614,-3.0673,-3.1409,-3.1409,-3.1409,-3.1438,-3.1438,-3.1467,-3.1467,-3.1511,-3.1511,-3.1511,-3.1511,-3.1029,-3.0329,-3.0269,0.0,0.0,0.0,-2.7162,-2.6499,-2.6499,-2.6499,0.0,-2.5312,-2.4258,-2.3601,-2.4535,-2.3963,-2.3091,-2.3091,-2.2546,-2.1746,-2.0622,-1.9779,-1.8934,-1.7816,-1.8056,-1.8477,-1.849,-1.8965,-1.9417,-1.9424,-1.9424,-1.9424,-1.9424,-1.9424,-1.9424,-1.9424,-1.9424,-1.9424,0.0,-1.9424,-1.9424,-1.9424,-1.9424,-1.9424,-1.9424,-1.9424,-1.9424,-1.9424,-1.9424,-1.9424,-1.9424,-1.9424,-1.9424,-1.9424,-1.9424,-1.9424,-1.9424,-1.9424,-1.9424,-1.9424,-1.9424,-2.1045,-2.371,-2.3766,-2.5553,-2.8237,-2.8291,-2.8291,-2.8291,-2.8291,-2.8291,-2.8291,0.0,0.0,0.0,0.0,0.0,0.0,0.0,0.0,0.0,0.0,0.0,0.0,0.0,0.0,0.0,0.0,0.0,0.0,0.0,-3.3737,-3.3388,-3.2844,-3.287,-3.2691,-3.2244,-3.2216,-3.1979,-3.1511,-3.1722,-3.1962,-3.2216,-3.2415,-3.2629,-3.2891,-3.2891,-3.2891,-3.2891,-3.2891,-3.2652,-3.2216,-3.2216,-3.1923,-3.1511,-3.1511,-3.1322,-3.097,0.0,0.0,0.0,0.0,-2.7162,-2.6499,-2.6499,-2.6499,-2.6265,-2.5173,-2.3695,-2.257,-2.344,-2.3387,-2.3091,-2.3091,-2.3358,-2.3242,-2.1993,-2.1294,-2.0499,-1.9191,-1.8697,-1.849,-1.849,-1.8971,-1.9424,-1.9424,-1.9424,-1.9424,-1.9424,-1.9424,-1.9424,-1.9424,-1.9424,-1.9424,0.0,0.0,0.0,-1.9424,-1.9424,-1.9424,-1.9424,-1.9424,-1.9424,-1.9424,-1.9424,-1.9424,-1.9424,-1.9424,-1.9424,-1.9424,-1.9424,-1.9424,-1.9424,-1.9424,-1.9424,-1.9424,-1.9424,-1.9982,-2.1045,-2.2991,-2.4378,-2.5498,-2.7501,-2.8291,-2.8291,-2.8291,-2.8291,-2.8291,0.0,0.0,0.0,0.0,0.0,0.0,0.0,0.0,0.0,0.0,0.0,0.0,0.0,0.0,0.0,0.0,0.0,0.0,0.0,0.0,-3.4872,-3.4337,-3.4096,-3.3799,-3.3363,-3.2874,-3.2477,-3.2256,-3.2477,-3.2722,-3.2975,-3.3391,-3.3582,-3.3582,-3.3582,-3.3582,-3.3582,-3.3582,-3.3209,-3.2586,-3.2586,-3.2176,-3.1511,-3.1511,-3.1322,0.0,0.0,0.0,0.0,0.0,-2.6939,-2.6499,-2.6499,-2.6013,-2.5338,-2.4921,-2.3433,-2.207,-2.2867,-2.3091,-2.3091,-2.3091,-2.3744,-2.4034,-2.2708,-2.2025,-2.1296,-1.9878,-1.9013,-1.849,-1.849,-1.8971,-1.9424,-1.9424,-1.9424,-1.9424,-1.9424,-1.9424,-1.9424,-1.9424,-1.9424,-1.9424,-1.9424,-1.9424,0.0,-1.9424,-1.9424,-1.9424,-1.9424,-1.9424,-1.9424,-1.9424,-1.9424,-1.9424,-1.9424,-1.9424,-1.9424,-1.9424,-1.9424,-1.9424,-1.9424,-1.9424,-1.9424,-1.9424,-1.9424,-1.97,-2.0371,-2.2822,-2.41,-2.4875,-2.734,-2.8291,-2.8291,-2.8291,-2.8291,-2.8291,0.0,0.0,0.0,0.0,0.0,0.0,0.0,0.0,0.0,0.0,0.0,0.0,0.0,0.0,0.0,0.0,0.0,0.0,0.0,0.0,0.0,-3.5889,-3.5246,-3.4834,-3.4808,-3.348,-3.3081,-3.3672,-3.3049,-3.3044,-3.3659,-3.3684,-3.371,-3.371,-3.371,-3.371,-3.371,-3.371,-3.3287,-3.2641,-3.2641,-3.2203,-3.1511,-3.1511,0.0,0.0,0.0,0.0,0.0,0.0,-2.6512,-2.6537,-2.6468,-2.5123,-2.3746,-2.4542,-2.3435,-2.21,-2.2877,-2.3091,-2.3091,-2.3091,-2.3744,-2.4081,-2.2793,-2.2074,-2.1347,-1.9981,-1.9066,-1.849,-1.849,-1.8971,-1.9424,-1.9424,-1.9424,-1.9424,-1.9424,-1.9424,-1.9424,-1.9424,-1.9424,-1.9424,-1.9424,-1.9424,0.0,-1.9424,0.0,-1.9424,-1.9424,-1.9424,-1.9424,-1.9424,-1.9424,-1.9424,-1.9424,-1.9424,-1.9424,-1.9424,-1.9424,-1.9424,-1.9424,-1.9424,-1.9424,-1.9424,-1.9424,-2.0199,-2.1586,-2.3151,-2.4654,-2.6155,-2.7672,-2.8291,-2.8291,-2.8291,-2.8291,-2.8291,0.0,0.0,0.0,0.0,0.0,0.0,0.0,0.0,0.0,0.0,0.0,0.0,0.0,0.0,0.0,0.0,0.0,0.0,0.0,0.0,0.0,0.0,0.0,0.0,0.0,0.0,0.0,0.0,0.0,-3.4723,-3.4358,-3.4864,-3.5091,-3.5091,-3.5091,-3.5091,-3.5091,-3.5091,-3.4399,-3.3339,0.0,-3.261,-3.1511,0.0,0.0,0.0,0.0,0.0,0.0,-2.6782,-2.6763,-2.6962,-2.6093,-2.5271,-2.4542,-2.4307,-2.3318,-2.2471,-2.2955,-2.3091,-2.3091,-2.3091,-2.3744,-2.4322,-2.3988,-2.2757,-2.16,-2.1245,-1.9747,-1.849,-1.849,-1.8971,-1.9424,-1.9424,-1.9424,-1.9424,-1.9424,-1.9424,-1.9424,-1.9424,-1.9424,-1.9424,-1.9424,-1.9424,-1.9424,0.0,-1.9424,-1.9424,-1.9424,-1.9424,-1.9424,-1.9424,-1.9424,-1.9424,-1.9424,-1.9424,-1.9424,-1.9424,-1.9424,-1.9424,-1.9424,-1.9424,-1.9424,-1.9424,-1.9424,-1.9591,-2.0148,-2.2766,-2.4044,-2.4654,-2.7286,-2.8291,-2.8291,-2.8291,-2.8291,-2.8291,0.0,0.0,0.0,0.0,0.0,0.0,0.0,0.0,0.0,0.0,0.0,0.0,0.0,0.0,0.0,0.0,0.0,0.0,0.0,0.0,0.0,0.0,0.0,0.0,0.0,0.0,0.0,0.0,0.0,0.0,0.0,-3.6441,-3.6597,-3.6597,-3.6282,-3.6129,-3.6073,-3.545,0.0,0.0,0.0,0.0,0.0,0.0,0.0,0.0,0.0,0.0,0.0,-2.6416,-2.6479,-2.6846,-2.6208,-2.5192,-2.4216,-2.4041,-2.3293,-2.2607,-2.2984,-2.3091,-2.314,-2.3379,-2.3926,-2.4463,-2.4658,-2.3134,-2.1702,-2.1702,-2.0006,-1.849,-1.849,-1.8971,-1.9424,-1.9424,-1.9424,-1.9424,-1.9424,-1.9424,-1.9424,-1.9424,-1.9424,-1.9424,-1.9424,-1.9424,-1.9424,-1.9424,-1.9424,-1.9424,-1.9424,-1.9424,-1.9424,-1.9424,-1.9424,-1.9424,-1.9424,-1.9424,-1.9424,-1.9424,-1.9424,-1.9424,-1.9424,-1.9424,-1.9424,-1.9424,0.0,-1.9758,-2.0537,-2.2822,-2.4211,-2.5041,-2.7394,-2.8291,-2.8291,-2.8291,-2.8291,-2.8291,0.0,0.0,0.0,0.0,0.0,0.0,0.0,0.0,0.0,0.0,0.0,0.0,0.0,0.0,0.0,0.0,0.0,0.0,0.0,0.0,0.0,0.0,0.0,0.0,0.0,0.0,0.0,0.0,0.0,0.0,0.0,0.0,0.0,0.0,0.0,0.0,0.0,0.0,0.0,0.0,0.0,0.0,0.0,0.0,0.0,0.0,0.0,0.0,0.0,0.0,-2.6176,-2.6567,-2.625,-2.4943,-2.3553,-2.3826,-2.3247,-2.2685,-2.3071,-2.3179,-2.3286,-2.376,-2.4189,-2.46,-2.5028,-2.3345,-2.1702,-2.1702,-2.0006,-1.849,-1.849,-1.8971,-1.9424,-1.9424,-1.9424,-1.9424,-1.9424,-1.9424,-1.9424,-1.9424,-1.9424,-1.9424,-1.9424,-1.9424,-1.9424,-1.9424,-1.9424,-1.9424,-1.9424,-1.9424,-1.9424,-1.9424,-1.9424,-1.9424,-1.9424,-1.9424,-1.9424,-1.9424,-1.9424,-1.9424,-1.9424,-1.9424,-1.9424,-1.9424,-1.9424,-2.0256,-2.1692,-2.3207,-2.471,-2.6264,-2.7726,-2.8291,-2.8291,-2.8291,-2.8291,-2.8281,0.0,0.0,0.0,0.0,0.0,0.0,0.0,0.0,0.0,0.0,-4.3589,0.0,0.0,0.0,0.0,0.0,0.0,0.0,0.0,0.0,0.0,0.0,0.0,0.0,0.0,0.0,0.0,0.0,0.0,0.0,0.0,0.0,0.0,0.0,0.0,0.0,0.0,0.0,0.0,0.0,0.0,0.0,0.0,0.0,0.0,0.0,0.0,0.0,0.0,0.0,-2.707,-2.6831,-2.5018,-2.447,-2.4356,-2.3507,-2.3114,-2.3081,-2.3555,-2.3682,-2.3779,-2.4199,-2.4629,-2.5018,-2.5096,-2.3345,-2.1702,-2.1702,-2.0006,-1.849,-1.849,-1.8971,-1.9424,-1.9424,-1.9424,-1.9424,-1.9424,-1.9424,-1.9424,-1.9424,-1.9424,-1.9424,-1.9424,-1.9424,-1.9424,0.0,-1.9424,-1.9424,-1.9424,-1.9424,-1.9424,-1.9424,-1.9424,-1.9424,-1.9424,-1.9424,-1.9424,-1.9424,-1.9424,-1.9424,-1.9424,-1.9424,-1.9424,-1.9424,-1.9424,0.0,-2.1692,-2.3207,-2.471,-2.6264,-2.7726,-2.8291,-2.8291,-2.8291,-2.8291,-2.8242,0.0,0.0,0.0,0.0,0.0,0.0,0.0,0.0,0.0,0.0,-4.4248,-4.3606,0.0,0.0,0.0,0.0,0.0,0.0,0.0,0.0,0.0,0.0,0.0,0.0,0.0,0.0,-3.7789,-3.7815,0.0,0.0,0.0,-3.7857,0.0,0.0,0.0,0.0,0.0,0.0,0.0,0.0,0.0,0.0,0.0,0.0,0.0,0.0,0.0,0.0,0.0,0.0,-2.5768,-2.5806,-2.4765,-2.4174,-2.38,-2.3266,-2.3257,-2.3525,-2.373,-2.3945,-2.4219,-2.4648,-2.4912,-2.5127,-2.5361,-2.3498,-2.1702,-2.1702,-2.0006,-1.849,-1.849,-1.8971,-1.9424,-1.9424,-1.9424,-1.9424,-1.9424,-1.9424,-1.9424,-1.9424,-1.9424,-1.9424,-1.9424,-1.9424,-1.9424,-1.9424,-1.9424,-1.9424,-1.9424,-1.9424,-1.9424,-1.9424,-1.9424,-1.9424,-1.9424,-1.9424,-1.9424,-1.9424,-1.9424,-1.9424,-1.9424,-1.9424,-1.9424,-1.9424,-1.9424,-2.0651,-2.2814,-2.3487,-2.516,-2.734,-2.8014,-2.8291,-2.8291,-2.8291,-2.8154,-2.7939,0.0,0.0,0.0,0.0,0.0,0.0,0.0,-4.4615,-4.4615,-4.4615,-4.4615,-4.435,-4.3741,-4.2472,0.0,0.0,0.0,0.0,0.0,0.0,0.0,0.0,0.0,0.0,0.0,0.0,0.0,-3.7544,-3.7544,0.0,0.0,0.0,0.0,0.0,-3.7201,0.0,0.0,0.0,0.0,0.0,0.0,0.0,0.0,0.0,0.0,0.0,0.0,0.0,0.0,0.0,-2.4472,-2.4766,-2.4614,-2.3914,-2.311,-2.3208,-2.3525,-2.3828,-2.4014,-2.4307,-2.4668,-2.5098,-2.5215,-2.5303,-2.5615,-2.384,-2.208,-2.1852,-2.0256,-1.8885,-1.8626,-1.9011,-1.9424,-1.9424,-1.9424,-1.9424,-1.9424,-1.9424,-1.9424,-1.9424,-1.9424,-1.9424,-1.9424,-1.9424,0.0,-1.9424,-1.9424,-1.9424,-1.9424,-1.9424,-1.9424,-1.9424,-1.9424,-1.9424,-1.9424,-1.9424,-1.9424,-1.9424,-1.9424,-1.9424,-1.9424,-1.9424,-1.9424,-1.9424,-1.9424,-2.1045,-2.3822,-2.3822,-2.5608,-2.8291,-2.8291,-2.8291,-2.8281,-2.8193,-2.7949,-2.7689,0.0,0.0,0.0,0.0,0.0,0.0,0.0,-4.4615,-4.4615,-4.4615,-4.4615,-4.4581,-4.4513,-4.3724,0.0,0.0,0.0,0.0,0.0,0.0,0.0,0.0,0.0,0.0,0.0,0.0,0.0,-3.6691,-3.6691,0.0,0.0,0.0,0.0,0.0,0.0,-3.7697,-3.7652,0.0,0.0,0.0,0.0,0.0,0.0,0.0,0.0,0.0,0.0,-2.7977,-2.7693,-2.5471,-2.4756,-2.469,-2.4072,-2.3546,-2.3169,-2.3613,-2.376,-2.3955,-2.4783,-2.5028,-2.5117,-2.5566,-2.5625,-2.5635,-2.5674,-2.4559,-2.3232,-2.2252,-2.1154,-2.0007,-1.905,-1.9152,-1.9424,-1.9424,-1.9424,-1.9424,-1.9424,-1.9424,-1.9424,-1.9424,-1.9424,-1.9424,-1.9424,-1.9424,-1.9424,-1.9424,-1.9424,-1.9424,-1.9424,-1.9424,-1.9424,-1.9424,-1.9424,-1.9424,-1.9424,-1.9424,-1.9424,-1.9424,-1.9424,-1.9424,-1.9424,-1.9424,-1.9424,-1.9424,-1.9424,-2.1045,0.0,-2.3822,-2.5608,-2.8291,-2.8291,-2.8291,-2.8252,-2.7861,-2.7748,-2.7611,0.0,0.0,0.0,0.0,0.0,0.0,0.0,-4.4615,-4.4615,-4.4615,-4.4615,-4.4412,-4.3873,-4.3548,-4.2816,0.0,0.0,0.0,0.0,0.0,0.0,0.0,0.0,0.0,0.0,0.0,0.0,-3.5943,-3.5943,0.0,0.0,0.0,0.0,0.0,0.0,-3.6399,-3.6399,0.0,0.0,0.0,0.0,0.0,0.0,0.0,0.0,0.0,0.0,0.0,-2.5859,-2.4296,-2.3981,-2.4145,-2.3865,-2.3848,0.0,-2.4121,-2.4355,-2.4675,-2.5028,-2.5264,-2.5518,-2.5645,-2.5693,-2.5762,-2.6074,-2.5033,-2.3737,-2.267,-2.158,-2.0453,-1.9118,-1.9165,-1.9424,-1.9424,-1.9424,0.0,-1.9424,-1.9424,-1.9424,-1.9424,-1.9424,-1.9424,-1.9424,0.0,-1.9424,-1.9424,-1.9424,-1.9424,-1.9424,-1.9424,-1.9424,-1.9424,-1.9424,-1.9424,-1.9424,-1.9424,-1.9424,-1.9424,-1.9424,-1.9424,-1.9424,-1.9424,-1.9424,-1.9424,-1.9424,-2.0594,0.0,-2.3431,-2.5049,-2.7032,-2.768,-2.792,-2.7861,-2.7432,-2.7119,-2.6846,0.0,0.0,0.0,0.0,0.0,0.0,-4.4615,-4.4615,-4.4615,-4.4615,-4.4615,-4.427,-4.3413,-4.3078,-4.2604,-4.1839,0.0,0.0,0.0,0.0,0.0,0.0,0.0,0.0,0.0,0.0,0.0,-3.5504,-3.5504,-3.5504,0.0,0.0,-3.5504,-3.5504,0.0,0.0,0.0,0.0,0.0,0.0,0.0,0.0,0.0,0.0,0.0,0.0,0.0,0.0,0.0,0.0,0.0,-2.3838,-2.4082,0.0,0.0,0.0,-2.4824,-2.5145,-2.5234,-2.5498,-2.5713,-2.5849,-2.5937,-2.6045,-2.6475,-2.5819,-2.4772,-2.3735,-2.2562,-2.1289,-1.997,-1.9557,-1.9424,0.0,0.0,-1.9424,-1.9424,-1.9424,-1.9424,-1.9424,-1.9424,-1.9424,-1.9424,-1.9424,-1.9424,-1.9424,-1.9424,-1.9424,-1.9424,-1.9424,-1.9424,-1.9424,-1.9424,-1.9424,-1.9424,-1.9424,-1.9424,-1.9424,-1.9424,-1.9424,-1.9424,-1.9424,-1.9424,-1.9424,-1.9424,-2.0256,0.0,-2.3207,-2.465,-2.6009,-2.7228,-2.764,-2.7422,-2.6992,-2.6641,-2.6367,0.0,0.0,0.0,0.0,0.0,0.0,0.0,-4.4615,-4.4615,-4.4615,-4.4615,-4.427,-4.3413,-4.252,-4.1658,-4.0811,0.0,0.0,0.0,0.0,0.0,0.0,0.0,0.0,0.0,0.0,0.0,0.0,0.0,-3.5504,-3.5504,-3.5504,-3.5504,-3.5504,0.0,0.0,0.0,0.0,0.0,0.0,0.0,0.0,0.0,0.0,0.0,0.0,0.0,0.0,0.0,0.0,0.0,0.0,0.0,0.0,0.0,0.0,-2.5106,-2.5213,-2.5605,-2.5684,-2.5791,-2.6279,-2.6387,-2.6494,-2.6914,-2.6951,-2.6647,-2.5581,-2.4207,-2.2852,-2.1745,-2.0364,-1.9424,-1.9424,-1.9424,0.0,-1.9424,-1.9424,-1.9424,-1.9424,-1.9424,-1.9424,-1.9424,-1.9424,-1.9424,-1.9424,-1.9424,0.0,-1.9424,-1.9424,-1.9424,-1.9424,-1.9424,-1.9424,-1.9424,-1.9424,-1.9424,-1.9424,-1.9424,-1.9424,-1.9424,-1.9424,-1.9424,-1.9424,-1.9424,-2.0256,0.0,-2.3207,-2.4441,-2.5557,-2.7103,-2.7402,-2.6973,-2.6543,-2.6396,-2.6328,0.0,0.0,0.0,0.0,0.0,0.0,0.0,-4.4615,-4.4384,-4.3785,-4.371,-4.3169,-4.1674,-4.128,-4.0758,-3.99,0.0,0.0,0.0,0.0,0.0,0.0,0.0,0.0,0.0,0.0,0.0,0.0,0.0,0.0,0.0,0.0,-3.6178,-3.6115,-3.4997,-3.4461,0.0,0.0,0.0,0.0,0.0,0.0,0.0,0.0,0.0,0.0,0.0,0.0,0.0,0.0,0.0,0.0,0.0,0.0,0.0,0.0,0.0,-2.5625,-2.6064,-2.6182,-2.6289,-2.6709,-2.6816,-2.6924,-2.7363,-2.7461,-2.7193,-2.6108,-2.4648,-2.319,-2.1847,-2.0364,-1.9424,-1.9424,-1.9424,-1.9424,-1.9424,-1.9424,-1.9424,-1.9424,-1.9424,-1.9424,-1.9424,-1.9424,-1.9424,-1.9424,-1.9424,-1.9424,-1.9424,-1.9424,-1.9424,-1.9424,-1.9424,-1.9424,-1.9424,-1.9424,-1.9424,-1.9424,-1.9424,-1.9424,-1.9424,-1.9424,-1.9424,-1.9424,-1.9424,-1.9527,-1.9941,-2.2363,-2.3461,-2.3742,-2.5937,-2.6709,-2.6533,-2.6103,-2.5947,-2.5918,0.0,0.0,0.0,0.0,0.0,0.0,0.0,-4.4615,-4.4298,-4.3396,-4.3306,-4.2645,-4.0878,-4.069,-4.0343,-3.9481,0.0,0.0,0.0,0.0,0.0,0.0,0.0,0.0,0.0,0.0,0.0,0.0,0.0,0.0,0.0,0.0,0.0,0.0,-3.4569,0.0,0.0,0.0,0.0,0.0,0.0,0.0,-2.8556,0.0,0.0,0.0,0.0,0.0,0.0,0.0,0.0,0.0,0.0,0.0,0.0,0.0,-2.6094,-2.624,-2.6357,-2.6504,-2.6728,-2.7158,-2.7266,-2.7373,-2.7803,-2.791,-2.7747,-2.7058,-2.527,-2.3543,-2.2597,-2.0759,-1.9424,-1.9424,-1.9424,-1.9424,-1.9424,-1.9424,-1.9424,-1.9424,-1.9424,-1.9424,-1.9424,-1.9424,-1.9424,-1.9424,-1.9424,-1.9424,-1.9424,-1.9424,-1.9424,-1.9424,-1.9424,-1.9424,-1.9424,-1.9424,-1.9424,-1.9424,-1.9424,-1.9424,-1.9424,-1.9424,-1.9305,-1.9256,-1.9752,-1.9793,0.0,-2.26,-2.3566,-2.3461,-2.5591,-2.6289,-2.6113,-2.5791,-2.5693,-2.5693,0.0,0.0,0.0,0.0,0.0,0.0,0.0,0.0,0.0,0.0,-4.327,-4.2603,-4.0932,-4.0742,-4.0412,0.0,0.0,0.0,0.0,0.0,0.0,0.0,0.0,0.0,0.0,0.0,0.0,0.0,-3.4355,-3.4355,-3.4417,0.0,0.0,0.0,0.0,0.0,0.0,0.0,0.0,0.0,0.0,0.0,0.0,0.0,0.0,0.0,0.0,0.0,0.0,0.0,0.0,0.0,0.0,0.0,0.0,0.0,0.0,0.0,0.0,-2.6768,-2.7168,-2.765,-2.7767,-2.7812,-2.8203,-2.8291,0.0,-2.8291,-2.5891,-2.3822,-2.3822,-2.138,-1.9424,-1.9424,-1.9424,-1.9424,-1.9424,-1.9424,-1.9424,-1.9424,-1.9424,-1.9424,-1.9424,-1.9424,-1.9424,-1.9424,-1.9424,-1.9424,-1.9424,-1.9424,-1.9424,-1.9424,-1.9424,-1.9424,-1.9424,-1.9424,-1.9424,-1.9424,-1.9424,-1.9424,-1.9424,-1.9403,-1.9243,0.0,-2.0361,-2.0758,-2.084,-2.3606,-2.4481,-2.4233,-2.576,-2.6094,-2.5693,-2.5693,-2.5693,-2.5693,0.0,0.0,0.0,0.0,0.0,0.0,0.0,0.0,0.0,0.0,0.0,-4.2447,-4.1358,-4.1262,0.0,0.0,0.0,0.0,0.0,0.0,0.0,0.0,0.0,0.0,0.0,0.0,0.0,-3.5744,-3.4995,-3.4995,-3.5744,-3.5264,0.0,0.0,0.0,0.0,0.0,0.0,0.0,0.0,0.0,0.0,0.0,0.0,0.0,0.0,-2.5053,-2.5137,0.0,0.0,0.0,0.0,0.0,0.0,0.0,0.0,-2.7168,-2.749,-2.7444,0.0,-2.7617,-2.8037,-2.8144,-2.8174,0.0,-2.8291,-2.8291,-2.8291,-2.5891,-2.3822,-2.3822,-2.138,-1.9424,-1.9424,-1.9424,-1.9424,-1.9424,-1.9424,-1.9424,-1.9424,-1.9424,-1.9424,-1.9424,-1.9424,-1.9424,-1.9424,-1.9424,-1.9424,-1.9424,-1.9424,-1.9424,-1.9424,-1.9424,-1.9424,-1.9424,-1.9424,-1.9424,-1.9424,-1.9424,-1.9424,-1.9417,-1.9132,-1.9532,-2.0424,-2.0564,-2.1017,-2.1873,-2.3582,-2.4077,-2.3927,-2.532,-2.5781,-2.5693,-2.5693,-2.5693,-2.5693,0.0,0.0,0.0,0.0,0.0,0.0,0.0,0.0,0.0,0.0,0.0,0.0,0.0,0.0,0.0,0.0,0.0,0.0,0.0,0.0,0.0,0.0,0.0,0.0,0.0,0.0,0.0,0.0,0.0,-3.422,0.0,0.0,0.0,0.0,0.0,0.0,0.0,0.0,0.0,0.0,-2.9945,0.0,0.0,0.0,0.0,0.0,-2.5371,-2.5527,0.0,-2.5693,-2.582,-2.6074,0.0,0.0,0.0,0.0,-2.7617,-2.8002,-2.8002,-2.8002,-2.8008,-2.8232,-2.8291,-2.8291,-2.8291,-2.8291,-2.8291,-2.8291,-2.5891,-2.3822,-2.3822,-2.138,-1.9424,-1.9424,-1.9424,-1.9424,-1.9424,-1.9424,-1.9424,-1.9424,-1.9424,-1.9424,0.0,-1.9424,-1.9424,-1.9424,-1.9424,-1.9424,-1.9424,-1.9424,-1.9424,-1.9424,-1.9424,-1.9424,-1.9424,-1.9424,-1.9424,-1.9424,-1.9424,-1.9299,-1.9158,-1.8998,-1.9151,-1.9628,-2.0734,-2.1509,-2.2059,-2.4007,-2.4756,-2.4707,-2.543,-2.5693,-2.5693,-2.5693,-2.5693,-2.5693,0.0,0.0,0.0,0.0,0.0,0.0,0.0,0.0,0.0,0.0,0.0,0.0,0.0,0.0,0.0,0.0,0.0,0.0,0.0,0.0,0.0,0.0,0.0,0.0,0.0,0.0,0.0,0.0,0.0,0.0,0.0,0.0,-3.3156,0.0,0.0,0.0,0.0,0.0,0.0,0.0,-2.9899,0.0,0.0,0.0,0.0,0.0,0.0,0.0,0.0,-2.5762,-2.6084,-2.6406,-2.6543,0.0,0.0,0.0,0.0,0.0,-2.8291,-2.8291,-2.8291,-2.8291,-2.8291,-2.8291,-2.8291,0.0,0.0,0.0,0.0,0.0,-2.3822,-2.138,-1.9424,-1.9424,-1.9424,-1.9424,-1.9424,-1.9424,-1.9424,-1.9424,-1.9424,0.0,-1.9424,-1.9424,-1.9424,-1.9424,-1.9424,-1.9424,-1.9424,-1.9424,-1.9424,-1.9424,-1.9424,-1.9424,-1.9424,-1.9424,-1.9424,-1.9424,-1.9325,-1.9165,-1.8918,-1.8775,-1.8732,-1.8723,0.0,0.0,-2.2458,-2.4559,-2.5528,-2.5693,-2.5693,-2.5693,-2.5693,-2.5693,-2.5693,-2.5674,0.0,0.0,0.0,0.0,0.0,0.0,0.0,0.0,0.0,0.0,0.0,0.0,0.0,0.0,0.0,0.0,0.0,0.0,0.0,0.0,0.0,0.0,0.0,0.0,0.0,0.0,0.0,0.0,0.0,0.0,-3.4462,-3.3985,-3.352,0.0,0.0,0.0,-3.3111,-3.298,-3.3006,-3.2884,-3.0325,0.0,0.0,0.0,0.0,0.0,0.0,0.0,0.0,-2.6162,-2.6338,-2.6514,-2.7297,0.0,0.0,0.0,0.0,0.0,-2.8291,-2.8291,-2.8291,-2.8291,-2.8291,-2.8291,-2.8291,-2.8291,0.0,0.0,0.0,0.0,0.0,-2.138,-1.9424,-1.9424,-1.9424,-1.9424,-1.9424,-1.9424,-1.9424,-1.9424,0.0,-1.9424,-1.9424,-1.9424,-1.9424,-1.9424,-1.9424,-1.9424,-1.9424,-1.9424,-1.9424,-1.9424,-1.9424,-1.9424,-1.9424,-1.9424,-1.9424,-1.9424,-1.9112,-1.8965,-1.8905,-1.8355,-1.9338,-2.1422,0.0,-2.192,-2.502,-2.4304,-2.4658,-2.5693,-2.5693,-2.5693,-2.5693,-2.5693,-2.5693,-2.5635,0.0,0.0,0.0,0.0,0.0,0.0,0.0,0.0,0.0,0.0,0.0,0.0,0.0,0.0,0.0,0.0,0.0,0.0,0.0,0.0,0.0,0.0,0.0,0.0,0.0,0.0,0.0,0.0,0.0,-3.468,-3.4668,-3.4462,-3.4211,-3.396,0.0,0.0,-3.352,-3.352,-3.3345,-3.2884,0.0,0.0,0.0,0.0,0.0,0.0,0.0,0.0,0.0,0.0,-2.6885,-2.7148,-2.7591,0.0,0.0,0.0,0.0,0.0,-2.8291,-2.8291,-2.8291,-2.8291,-2.8291,-2.8291,-2.8291,-2.8291,-2.8291,0.0,0.0,0.0,-2.3822,-2.138,-1.9424,-1.9424,-1.9424,-1.9424,-1.9424,-1.9424,-1.9424,0.0,0.0,-1.9424,-1.9424,-1.9424,-1.9424,-1.9424,-1.9424,-1.9424,-1.9424,-1.9424,-1.9424,-1.9424,-1.9424,-1.9424,-1.9424,-1.9205,-1.9125,-1.9125,-1.8991,-1.8758,-1.8388,-1.8115,-1.9,-2.0721,0.0,-2.2215,-2.4609,-2.4766,-2.5118,-2.5693,-2.5693,-2.5693,-2.5664,-2.5469,-2.5225,-2.4961,0.0,0.0,0.0,0.0,0.0,0.0,0.0,0.0,0.0,0.0,0.0,0.0,0.0,0.0,0.0,0.0,0.0,0.0,0.0,0.0,0.0,0.0,0.0,0.0,0.0,0.0,-3.5102,-3.5102,-3.5102,-3.5039,-3.4868,-3.4868,-3.4806,0.0,0.0,0.0,-3.4085,-3.4085,-3.3847,-3.3271,0.0,0.0,0.0,0.0,0.0,0.0,0.0,0.0,0.0,0.0,0.0,0.0,0.0,0.0,0.0,-2.8291,-2.8291,-2.8291,-2.8291,-2.8291,-2.8291,-2.8291,-2.8291,-2.8291,-2.8291,-2.8291,-2.8291,0.0,0.0,0.0,-2.3877,-2.138,-1.9424,-1.9424,-1.9424,-1.9424,-1.9424,-1.9424,-1.9424,-1.9424,-1.9424,-1.9424,-1.9424,-1.9424,-1.9424,-1.9424,-1.9424,-1.9424,-1.9424,-1.9424,-1.9424,-1.9424,-1.9424,-1.9424,-1.9424,-1.9072,-1.8925,-1.8925,-1.8784,-1.8643,-1.8515,-1.8386,-1.9153,-2.059,-2.1347,-2.2617,-2.4196,-2.4922,-2.543,-2.5693,-2.5693,-2.5625,-2.5527,-2.5078,-2.4639,-2.4228,0.0,0.0,0.0,0.0,0.0,0.0,0.0,0.0,0.0,0.0,0.0,0.0,0.0,0.0,0.0,0.0,0.0,0.0,0.0,0.0,0.0,0.0,0.0,0.0,0.0,-3.6292,-3.6292,-3.6292,-3.6292,-3.5981,-3.5445,-3.5445,-3.5169,-3.468,0.0,0.0,-3.4618,-3.4618,-3.4638,-3.4362,-3.1831,0.0,0.0,0.0,0.0,0.0,0.0,0.0,0.0,0.0,0.0,0.0,0.0,0.0,-2.8291,-2.8291,-2.8291,-2.8291,-2.8291,-2.8291,-2.8291,-2.8291,-2.8291,-2.8291,-2.8291,-2.8291,0.0,-2.8291,0.0,0.0,-2.4044,-2.138,-1.9424,-1.9424,-1.9424,-1.9424,-1.9424,0.0,-1.9424,-1.9424,-1.9424,-1.9424,-1.9424,-1.9424,-1.9424,-1.9424,-1.9424,-1.9424,-1.9424,-1.9424,-1.9424,-1.9424,-1.9424,-1.9424,-1.9424,-1.9072,-1.8925,-1.8918,-1.8315,-1.8711,-1.9962,-1.965,-2.092,-2.3335,-2.2206,-2.3176,-2.5479,-2.4304,-2.4559,-2.5693,-2.5693,-2.5478,-2.5116,-2.4619,-2.4199,-2.3828,0.0,0.0,0.0,0.0,0.0,0.0,0.0,0.0,0.0,0.0,0.0,0.0,0.0,0.0,0.0,0.0,0.0,0.0,0.0,0.0,0.0,0.0,0.0,-3.6405,-3.6405,-3.6405,-3.6405,-3.6405,-3.6405,-3.6304,-3.6056,-3.6056,0.0,0.0,0.0,0.0,-3.5194,-3.5194,-3.4994,-3.4532,-3.2804,-3.2136,0.0,0.0,0.0,0.0,0.0,0.0,0.0,0.0,-2.8057,-2.8086,0.0,-2.8291,-2.8291,-2.8291,-2.8291,-2.8291,-2.8291,-2.8291,-2.8291,-2.8291,-2.8291,0.0,0.0,-2.8291,-2.8291,-2.8291,-2.7105,0.0,-2.287,-2.1536,-2.0479,-1.954,-1.9424,-1.9424,-1.9424,-1.9424,-1.9424,-1.9424,-1.9424,-1.9424,-1.9424,-1.9424,-1.9424,-1.9424,-1.9424,-1.9424,-1.9424,-1.9424,-1.9424,-1.9424,-1.9424,-1.9279,-1.9092,-1.9605,-1.9788,-1.9649,-1.9406,-1.9911,-2.1087,-2.0952,-2.1904,-2.3683,-2.3176,-2.3998,-2.5635,-2.5177,-2.5111,-2.5293,-2.5019,-2.4648,-2.4258,-2.4092,-2.376,-2.3344,0.0,0.0,0.0,0.0,0.0,0.0,0.0,0.0,0.0,0.0,0.0,0.0,0.0,0.0,0.0,0.0,0.0,0.0,0.0,0.0,0.0,0.0,0.0,-3.6405,-3.6405,-3.6405,-3.6405,-3.6405,-3.6405,-3.6405,-3.6405,0.0,0.0,0.0,0.0,0.0,0.0,-3.5805,-3.5579,-3.5149,-3.3893,-3.3351,0.0,0.0,0.0,0.0,0.0,0.0,0.0,0.0,0.0,0.0,0.0,0.0,0.0,0.0,-2.8291,-2.8291,-2.8291,-2.8291,-2.8291,-2.8291,0.0,0.0,-2.8291,-2.8291,-2.8291,-2.8291,-2.6717,-2.4875,-2.3311,0.0,-2.1252,-2.0256,-2.009,-1.9924,-1.9482,-1.9424,-1.9424,-1.9424,-1.9424,-1.9424,-1.9424,-1.9424,-1.9424,-1.9424,-1.9424,-1.9424,-1.9424,-1.9424,-1.9424,-1.9424,-1.9279,-1.9354,-1.952,-2.0081,-2.0712,-2.137,-2.1258,-2.1642,-2.2316,-2.2316,-2.3076,-2.4353,-2.4353,-2.4864,-2.5674,-2.5538,-2.5264,-2.4814,-2.4385,-2.4043,-2.3769,-2.3633,-2.3398,-2.3091,0.0,0.0,0.0,0.0,0.0,0.0,0.0,0.0,0.0,0.0,0.0,0.0,0.0,0.0,0.0,0.0,0.0,0.0,0.0,0.0,0.0,0.0,0.0,-3.6405,-3.6405,-3.6405,-3.6405,-3.6405,-3.6405,-3.6405,-3.6405,-3.6405,0.0,0.0,0.0,0.0,0.0,0.0,-3.6405,-3.6263,-3.4969,-3.4434,-3.4288,0.0,0.0,0.0,0.0,0.0,0.0,0.0,-2.8291,0.0,0.0,0.0,0.0,0.0,-2.8291,-2.8291,-2.8291,-2.8291,-2.8291,-2.8291,0.0,0.0,-2.8291,-2.8291,-2.8291,-2.8291,-2.5945,-2.4322,-2.5818,-2.3646,-2.1643,-2.1643,-2.1643,-2.1088,-1.9649,-1.9424,-1.9424,-1.9424,-1.9424,-1.9424,-1.9424,-1.9424,-1.9424,-1.9424,-1.9424,-1.9424,-1.9424,-1.9424,-1.9424,-1.9424,-1.9078,-1.9569,-2.0918,-2.0396,-2.1466,-2.4107,-2.3822,-2.3741,-2.3741,-2.3741,-2.4461,-2.5693,-2.5693,-2.5693,-2.5645,-2.5244,-2.4805,-2.4365,-2.3945,-2.3779,-2.373,-2.3257,-2.3091,-2.3091,0.0,0.0,0.0,0.0,0.0,0.0,0.0,0.0,0.0,0.0,0.0,0.0,0.0,0.0,0.0,0.0,0.0,0.0,0.0,0.0,0.0,0.0,0.0,0.0,0.0,0.0,-3.6405,-3.6405,-3.6405,-3.6405,0.0,0.0,0.0,-3.6405,0.0,0.0,0.0,0.0,0.0,-3.6358,-3.5966,-3.581,-3.5667,0.0,0.0,0.0,0.0,0.0,0.0,0.0,0.0,0.0,0.0,0.0,0.0,-2.8291,-2.8291,-2.8291,-2.8291,-2.8291,-2.8291,-2.8291,-2.8291,0.0,0.0,-2.8291,0.0,0.0,-2.7565,-2.678,-2.6209,-2.5371,-2.4425,-2.3319,-2.3151,-2.2983,-2.2548,-2.1593,-2.0923,-2.0923,-2.0923,-2.0923,-2.0923,-2.1877,-2.204,-2.1031,-2.1934,-2.1601,-1.954,-2.0364,-2.0822,-2.0485,-2.0384,-2.0766,-2.174,-2.252,-2.3201,-2.3813,-2.4665,-2.5128,-2.5128,-2.5128,-2.5323,-2.5693,-2.5693,-2.5557,-2.5215,-2.4473,-2.4092,-2.3935,-2.3496,-2.3286,-2.3276,-2.314,-2.3091,-2.3091,0.0,0.0,0.0,0.0,0.0,0.0,0.0,0.0,0.0,0.0,0.0,0.0,0.0,0.0,0.0,0.0,0.0,0.0,0.0,0.0,0.0,0.0,0.0,0.0,0.0,-3.6405,-3.6405,0.0,0.0,0.0,0.0,0.0,0.0,-3.6405,0.0,-3.6405,0.0,0.0,0.0,-3.6405,-3.6405,-3.6405,-3.631,0.0,0.0,0.0,0.0,0.0,0.0,0.0,0.0,0.0,0.0,0.0,0.0,-2.9102,-2.8698,-2.8291,-2.8291,-2.8291,-2.8291,-2.8291,-2.8291,-2.8291,-2.8291,0.0,0.0,0.0,-2.7843,-2.733,-2.7051,-2.649,0.0,-2.4875,-2.471,-2.4488,-2.3877,-2.3039,-2.2476,-2.2476,-2.2476,-2.2476,-2.2476,-2.3263,-2.3431,-2.2533,-2.3319,-2.3047,-2.1266,-2.1983,-2.2265,-2.182,-2.1673,-2.2041,-2.2885,-2.36,-2.4126,-2.451,-2.5323,-2.5693,-2.5693,-2.5693,-2.5693,-2.5674,-2.5547,-2.5127,-2.4521,-2.4004,-2.3691,-2.3506,-2.3198,-2.3091,-2.3091,-2.3091,-2.3091,-2.3091,0.0,0.0,0.0,0.0,0.0,0.0,0.0,0.0,0.0,0.0,0.0,0.0,0.0,0.0,0.0,0.0,0.0,0.0,0.0,0.0,0.0,0.0,0.0,0.0,0.0,0.0,0.0,0.0,0.0,0.0,0.0,0.0,-3.6405,-3.6405,0.0,-3.6405,0.0,0.0,0.0,0.0,-3.6405,-3.6405,0.0,0.0,0.0,0.0,0.0,0.0,0.0,0.0,0.0,0.0,-3.228,-3.148,-3.0463,-3.0463,-2.9513,-2.8495,-2.8495,-2.8388,-2.8291,-2.8291,-2.8291,-2.8291,-2.8291,-2.8291,-2.8291,-2.8291,0.0,-2.6717,-2.8067,-2.7222,-2.6318,-2.6318,-2.6318,-2.5818,-2.4433,-2.41,-2.3989,-2.3989,-2.3989,-2.3989,-2.3989,-2.4156,-2.4156,-2.4044,-2.4156,-2.41,-2.3822,-2.39,-2.3773,-2.3361,-2.2996,-2.3252,-2.4224,-2.4022,-2.4501,-2.5693,-2.5693,-2.5693,-2.5693,-2.5693,-2.5664,-2.5596,-2.5166,-2.4512,-2.3789,-2.375,-2.3496,-2.3091,-2.3091,-2.3091,-2.3091,-2.3091,-2.3091,-2.3091,0.0,0.0,0.0,0.0,0.0,0.0,0.0,0.0,0.0,0.0,0.0,0.0,0.0,0.0,0.0,0.0,0.0,0.0,0.0,0.0,0.0,0.0,0.0,0.0,0.0,0.0,0.0,0.0,0.0,0.0,0.0,0.0,0.0,-3.6405,0.0,-3.6405,0.0,0.0,0.0,0.0,-3.6405,-3.6405,-3.6405,0.0,0.0,0.0,0.0,0.0,0.0,0.0,0.0,0.0,-3.228,-3.2079,-3.1876,-3.1876,-3.0927,-2.9859,-2.9859,-2.9102,-2.8291,-2.8291,-2.8291,-2.8291,-2.8291,-2.8291,-2.8291,-2.8291,-2.8067,-2.7897,-2.8237,-2.8067,-2.7843,-2.7843,-2.7843,-2.7726,-2.7394,-2.6327,-2.5599,-2.5599,-2.5599,-2.5599,-2.5599,-2.6662,-2.6834,-2.5709,-2.6662,-2.6273,-2.3933,-2.4591,-2.4854,-2.4474,-2.4025,-2.4316,-2.5369,-2.5322,-2.543,-2.5693,-2.5693,-2.5693,-2.5693,-2.5693,-2.5547,-2.5166,-2.4394,-2.3955,-2.3769,-2.3418,-2.3179,-2.3091,-2.3091,-2.3091,-2.3091,-2.3091,-2.3091,-2.3091,0.0,0.0,0.0,0.0,0.0,0.0,0.0,0.0,0.0,0.0,0.0,0.0,0.0,0.0,0.0,0.0,0.0,0.0,0.0,0.0,0.0,0.0,0.0,0.0,0.0,0.0,0.0,0.0,0.0,0.0,0.0,0.0,0.0,-3.6405,0.0,-3.6405,0.0,0.0,0.0,0.0,0.0,0.0,0.0,0.0,0.0,-3.6405,-3.6405,0.0,0.0,0.0,0.0,0.0,0.0,0.0,-3.3304,-3.3304,-3.2342,-3.1276,-3.1276,-3.0266,-2.9102,-2.8441,-2.8291,-2.8291,-2.8291,-2.8291,-2.8291,-2.8291,-2.8291,-2.8291,-2.8291,-2.8291,-2.8291,-2.8291,-2.8291,-2.8291,-2.8291,-2.7618,-2.7159,-2.7159,-2.7159,-2.7159,-2.7159,-2.7843,-2.8004,-2.7222,-2.7843,-2.7533,-2.5784,-2.6183,-2.6224,-2.5563,-2.5339,-2.5339,-2.5693,-2.5693,-2.5693,-2.5693,-2.5693,-2.5577,-2.542,-2.542,-2.5176,-2.4717,-2.4072,-2.3672,-2.3457,-2.3188,-2.3091,-2.3091,-2.3091,-2.3091,-2.3091,-2.3091,-2.3091,-2.3091,0.0,0.0,0.0,0.0,0.0,0.0,0.0,0.0,0.0,0.0,0.0,0.0,0.0,0.0,0.0,0.0,0.0,0.0,0.0,0.0,0.0,0.0,0.0,0.0,0.0,0.0,0.0,0.0,0.0,0.0,0.0,0.0,0.0,-3.6405,0.0,0.0,0.0,0.0,0.0,0.0,0.0,0.0,0.0,0.0,0.0,-3.6405,-3.6405,-3.6405,-3.6405,-3.6405,0.0,0.0,0.0,0.0,-3.4727,-3.4727,-3.3761,-3.2644,-3.2644,-3.1531,-3.0016,-2.89,-2.8441,-2.8291,-2.8291,-2.8291,-2.8291,-2.8291,-2.8291,-2.8291,-2.8291,-2.8291,-2.8291,-2.8291,-2.8291,-2.8291,-2.8291,-2.8291,-2.8291,-2.8291,-2.8291,-2.8291,-2.8291,-2.8291,-2.8291,-2.8291,-2.8223,-2.8027,-2.7738,-2.7581,-2.717,-2.6406,-2.6318,-2.6103,-2.5693,-2.5693,-2.5693,-2.5693,-2.5615,-2.543,-2.5106,-2.4959,-2.4648,-2.4287,-2.3857,-2.3467,-2.3091,-2.3091,-2.3091,-2.3091,-2.3091,-2.3091,-2.3091,-2.3091,-2.3091,-2.3091,0.0,0.0,0.0,0.0,0.0,0.0,0.0,0.0,0.0,0.0,0.0,0.0,0.0,0.0,0.0,0.0,0.0,0.0,0.0,0.0,0.0,0.0,0.0,0.0,0.0,0.0,0.0,0.0,0.0,0.0,0.0,0.0,0.0,-3.6405,0.0,0.0,0.0,0.0,0.0,0.0,0.0,0.0,0.0,0.0,0.0,-3.6405,-3.6405,-3.6405,-3.6405,-3.6405,-3.6405,0.0,0.0,0.0,-3.6108,-3.6108,-3.5174,-3.4129,-3.4129,0.0,-3.0266,0.0,-2.9154,-2.8291,0.0,0.0,-2.8291,0.0,-2.8291,-2.8291,-2.8291,-2.8291,-2.8291,-2.8291,-2.8291,-2.8291,-2.8291,-2.8291,-2.8291,-2.8291,-2.8291,-2.8291,-2.8291,-2.8291,-2.8291,-2.8291,-2.7959,-2.7777,-2.7718,-2.6963,-2.6504,-2.6396,-2.6025,-2.5742,-2.5693,-2.5693,-2.5693,-2.5684,-2.5342,-2.5174,-2.5086,-2.4297,-2.3926,-2.3848,-2.3374,-2.3149,-2.3091,-2.3091,-2.3091,-2.3091,-2.3091,-2.3091,-2.3091,-2.3091,-2.3091,-2.3091,0.0,0.0,0.0,0.0,0.0,0.0,0.0,0.0,0.0,0.0,0.0,0.0,0.0,0.0,0.0,0.0,0.0,0.0,0.0,0.0,0.0,0.0,-3.6405,0.0,0.0,0.0,0.0,0.0,0.0,0.0,0.0,-3.6405,-3.6405,0.0,0.0,0.0,0.0,0.0,0.0,0.0,0.0,0.0,0.0,0.0,0.0,0.0,-3.6405,-3.6405,-3.6405,-3.6405,-3.6405,-3.6405,-3.6405,0.0,0.0,0.0,-3.5966,-3.5367,-3.4581,-3.3514,-3.2404,0.0,-3.0421,-2.9408,-2.9408,-2.8847,-2.8291,-2.8291,-2.8291,-2.8291,-2.8291,-2.8291,-2.8291,-2.8291,-2.8291,-2.8291,-2.8291,-2.8291,-2.8291,-2.8291,-2.8291,-2.8291,-2.8291,-2.8291,-2.8193,-2.7959,-2.7826,-2.7513,-2.6973,-2.6592,-2.6279,-2.6035,-2.5791,-2.5693,-2.5693,-2.5693,-2.5605,-2.5361,-2.5166,-2.4861,-2.4346,-2.3965,-2.3789,-2.3769,-2.3286,-2.3091,-2.3091,-2.3091,-2.3091,-2.3091,-2.3091,-2.3091,-2.3091,-2.3091,-2.3091,-2.3091,0.0,0.0,0.0,0.0,0.0,0.0,0.0,0.0,0.0,0.0,0.0,0.0,0.0,0.0,0.0,0.0,0.0,0.0,0.0,0.0,0.0,-3.6405,-3.6405,-3.6405,-3.6405,0.0,0.0,0.0,0.0,0.0,-3.6405,-3.6405,-3.6405,0.0,-3.6405,-3.6405,0.0,0.0,0.0,0.0,0.0,0.0,0.0,0.0,0.0,0.0,0.0,-3.6405,-3.6405,-3.6405,-3.6405,-3.6405,-3.6405,-3.6405,0.0,0.0,0.0,-3.6156,-3.5174,0.0,-3.4129,-3.3105,-3.1836,-3.0824,0.0,0.0,-2.9303,0.0,-2.9303,-2.9207,-2.8847,-2.8548,-2.8291,-2.8291,-2.8291,-2.8291,-2.8291,-2.8291,-2.8291,-2.8291,-2.8291,-2.8291,-2.8291,-2.8193,-2.7998,-2.7738,-2.7513,-2.7112,-2.6426,-2.6279,-2.6074,-2.5703,-2.5693,-2.5693,-2.5693,-2.5693,-2.5518,-2.5116,-2.4998,-2.4512,-2.3789,-2.3682,-2.3623,-2.3603,-2.3237,-2.3091,-2.3091,-2.3091,-2.3091,-2.3091,-2.3091,-2.3091,-2.3091,-2.3091,-2.3091,-2.3081,0.0,0.0,0.0,0.0,0.0,0.0,0.0,0.0,0.0,0.0,0.0,0.0,-4.0029,-3.8872,-3.7723,-3.6499,0.0,0.0,0.0,0.0,0.0,-3.6405,-3.6405,0.0,-3.6405,0.0,0.0,0.0,0.0,0.0,-3.6405,-3.6405,-3.6405,-3.6405,-3.6405,-3.6405,-3.6405,0.0,0.0,0.0,0.0,0.0,0.0,0.0,0.0,0.0,-3.6405,-3.6405,-3.6405,-3.6405,-3.6405,-3.6405,-3.6405,-3.6405,-3.6405,0.0,0.0,0.0,-3.631,-3.5367,0.0,-3.4337,-3.3254,-3.218,0.0,0.0,-3.2079,-3.2079,-3.2079,-3.1673,-3.0421,-2.9154,-2.8291,-2.8291,-2.8291,-2.8291,-2.8291,-2.8291,-2.8291,-2.8291,-2.8291,-2.8291,-2.8291,-2.7939,-2.7738,-2.7718,-2.6914,-2.6435,-2.6387,-2.5996,-2.5713,-2.5693,-2.5693,-2.5693,-2.5693,-2.5693,-2.5518,-2.5106,-2.4648,-2.4219,-2.3779,-2.3315,-2.313,-2.313,-2.311,-2.3091,-2.3091,-2.3091,-2.3091,-2.3091,-2.3091,-2.3091,-2.3091,-2.3091,-2.3091,-2.3042,0.0,0.0,0.0,0.0,0.0,0.0,0.0,0.0,0.0,0.0,0.0,0.0,0.0,-3.8827,-3.7632,-3.6499,-3.6405,0.0,0.0,0.0,0.0,-3.6405,-3.6405,-3.6405,-3.6405,0.0,0.0,0.0,0.0,-3.6405,-3.6405,-3.6405,-3.6405,-3.6405,-3.6405,-3.6405,-3.6405,-3.6405,0.0,0.0,-3.6405,0.0,0.0,-3.6405,-3.6405,-3.6405,-3.6405,-3.6405,-3.6405,-3.6405,-3.6405,-3.6405,-3.6405,-3.6405,-3.6405,-3.6405,-3.6405,-3.6405,-3.6405,0.0,0.0,-3.5667,-3.4666,-3.3662,-3.3662,-3.2955,-3.228,-3.228,-3.228,-3.2129,-3.1673,-3.0473,-2.9303,-2.8441,-2.8291,-2.8291,-2.8291,-2.8291,-2.8291,-2.8291,-2.8291,-2.8184,-2.792,-2.7754,-2.7493,-2.6885,-2.6562,-2.6269,-2.5986,-2.5771,-2.5693,-2.5693,-2.5693,-2.5693,-2.5693,-2.5449,-2.5088,-2.4648,-2.4219,-2.3789,-2.3369,-2.3169,-2.3091,-2.3091,-2.3091,-2.3091,-2.3091,-2.3091,-2.3091,-2.3091,-2.3091,-2.3091,-2.3091,-2.3091,-2.3091,-2.3033,0.0,0.0,0.0,0.0,0.0,0.0,0.0,0.0,0.0,-4.329,0.0,0.0,0.0,0.0,-3.7632,-3.6499,-3.6405,-3.6405,-3.6405,-3.6405,-3.6405,-3.6405,-3.6405,-3.6405,0.0,0.0,0.0,0.0,0.0,0.0,0.0,-3.6405,-3.6405,-3.6405,-3.6405,-3.6405,0.0,0.0,-3.6405,-3.6405,-3.6405,-3.6405,-3.6405,-3.6405,-3.6405,-3.6405,-3.6405,-3.6405,-3.6405,-3.6405,-3.6405,-3.6405,-3.6405,-3.6405,-3.6405,-3.6405,-3.6405,-3.6405,-3.6405,0.0,0.0,0.0,-3.5715,-3.5078,-3.5078,-3.4362,-3.3688,-3.3688,-3.3688,-3.354,-3.3105,-3.2292,-3.1081,-2.926,-2.8953,-2.8794,-2.8344,-2.8291,-2.8291,-2.8291,-2.8164,-2.7969,-2.7748,-2.7454,-2.7002,-2.6426,-2.625,0.0,-2.5703,-2.5693,-2.5693,-2.5693,-2.5693,-2.5693,-2.5693,-2.5293,-2.4844,-2.4414,-2.3984,-2.3555,-2.3091,-2.3091,-2.3091,-2.3091,-2.3091,-2.3091,-2.3091,-2.3091,-2.3091,-2.3091,-2.3091,-2.3091,-2.3091,-2.3091,-2.3003,-2.2828,0.0,0.0,0.0,0.0,0.0,0.0,0.0,0.0,-4.329,-4.329,0.0,0.0,0.0,0.0,0.0,-3.6499,-3.6405,-3.6405,-3.6405,-3.6405,-3.6405,-3.6405,0.0,0.0,0.0,0.0,0.0,0.0,0.0,0.0,0.0,0.0,-3.6405,-3.6405,-3.6405,-3.6405,-3.6405,0.0,-3.6405,-3.6405,-3.6405,-3.6405,-3.6405,-3.643,-3.643,-3.643,-3.6455,-3.6455,-3.6455,-3.6443,-3.643,-3.643,-3.6417,-3.6405,-3.6405,-3.6405,-3.6405,-3.6405,0.0,0.0,0.0,-3.6405,0.0,0.0,-3.6405,0.0,-3.6405,-3.6405,-3.6405,-3.6013,-3.4678,-3.4434,-3.3563,-3.0876,-3.0369,-2.9911,-2.8601,-2.8398,-2.8344,-2.8344,-2.7973,-2.7708,-2.7699,-2.6885,-2.6387,-2.6367,-2.5977,-2.5693,-2.5693,-2.5693,-2.5693,-2.5693,-2.5693,-2.5693,-2.5693,-2.5283,-2.4834,-2.4414,-2.3975,-2.3545,-2.3091,-2.3091,-2.3091,-2.3091,-2.3091,-2.3091,-2.3091,-2.3091,-2.3091,-2.3091,-2.3091,-2.3091,-2.3091,-2.3091,-2.2828,-2.2451,0.0,0.0,0.0,0.0,0.0,0.0,-4.329,-4.329,-4.329,0.0,0.0,0.0,-4.0029,-3.8088,-3.6756,-3.6452,-3.6405,-3.6405,-3.6405,-3.6405,-3.6405,-3.6405,-3.6405,-3.6405,-3.6405,0.0,0.0,0.0,0.0,0.0,0.0,0.0,0.0,0.0,-3.6405,-3.6405,-3.6405,-3.6405,0.0,-3.6405,-3.6405,-3.6405,-3.6455,-3.6857,-3.7008,-3.701,-3.7412,-3.755,-3.7487,-3.7098,-3.7008,-3.6885,-3.6531,-3.6405,-3.6405,-3.6405,-3.6405,-3.6405,-3.6405,0.0,0.0,0.0,0.0,0.0,-3.6405,0.0,-3.6405,-3.6405,-3.6405,-3.631,-3.5918,-3.5858,-3.5259,-3.3563,-3.2392,-3.1633,-3.1224,-3.0369,-2.9765,-2.9765,-2.853,-2.7591,-2.7226,-2.6709,-2.626,0.0,-2.5762,-2.5693,-2.5693,-2.5693,-2.5693,-2.5693,-2.5693,-2.5693,-2.5693,-2.498,-2.4531,-2.4404,-2.3672,-2.3218,-2.3091,-2.3091,-2.3091,-2.3091,-2.3091,-2.3091,-2.3091,-2.3091,-2.3091,-2.3091,-2.3091,-2.3091,-2.3091,-2.3091,-2.2828,-2.2451,0.0,0.0,0.0,0.0,0.0,0.0,-4.329,-4.329,-4.329,0.0,0.0,0.0,-3.9316,-3.7507,-3.6405,-3.6405,-3.6405,-3.6405,-3.6405,-3.6405,-3.6405,-3.6405,-3.6405,-3.6405,-3.6405,0.0,0.0,0.0,0.0,0.0,0.0,0.0,0.0,0.0,0.0,0.0,0.0,0.0,0.0,-3.6405,-3.6405,-3.6405,-3.6468,-3.7021,-3.7186,-3.7262,-3.7814,-3.8002,-3.7927,-3.7374,-3.7023,-3.6832,-3.6505,-3.6405,-3.6405,-3.6405,-3.6405,-3.6405,-3.6405,-3.6405,-3.6405,-3.6405,0.0,0.0,-3.6405,-3.6405,-3.6405,0.0,-3.6405,-3.6405,-3.6405,-3.6405,-3.6156,-3.5367,-3.4557,-3.3589,-3.2431,-3.1633,-3.1046,-3.0852,-2.9787,-2.8833,-2.8317,-2.7454,-2.6806,-2.6496,-2.6014,-2.5693,-2.5693,-2.5693,-2.5693,-2.5693,-2.5693,-2.5693,-2.5693,-2.4863,-2.4414,-2.4404,-2.35,-2.3091,-2.3091,-2.3091,-2.3091,-2.3091,-2.3091,-2.3091,-2.3091,-2.3091,-2.3091,-2.3091,-2.3091,-2.3091,-2.3071,-2.2896,-2.2607,-2.2197,0.0,0.0,0.0,-4.329,-4.329,-4.329,-4.329,-4.329,-4.329,0.0,-4.2208,-4.0632,-3.8545,-3.715,-3.6405,-3.6405,-3.6405,-3.6405,-3.6405,-3.6405,-3.6405,-3.6405,-3.6405,-3.6405,-3.6405,-3.6405,0.0,0.0,0.0,0.0,0.0,0.0,0.0,0.0,0.0,0.0,0.0,0.0,0.0,-3.6405,-3.6405,-3.6405,-3.648,-3.7048,-3.7274,-3.7362,-3.7965,-3.8191,-3.8103,-3.7475,-3.691,-3.6493,-3.643,-3.6405,-3.6405,-3.6405,-3.6405,-3.6405,-3.6405,-3.6405,-3.6405,-3.6405,-3.6405,0.0,-3.6405,-3.6405,-3.6405,0.0,-3.6405,-3.6405,-3.6405,-3.6405,-3.6405,-3.6405,-3.6355,-3.5485,-3.3082,-3.2587,-3.2245,-3.1806,-3.1181,-3.0569,-3.0075,-2.8683,-2.7731,-2.7589,-2.6438,-2.5693,-2.5693,-2.5693,-2.5693,-2.5693,-2.5693,-2.5693,-2.5693,-2.4863,-2.4414,-2.4404,-2.35,-2.3091,-2.3091,-2.3091,-2.3091,-2.3091,-2.3091,-2.3091,-2.3091,-2.3091,-2.3091,-2.3091,-2.3091,-2.3091,-2.3042,-2.2666,-2.232,-2.1971,0.0,0.0,0.0,-4.329,-4.329,-4.329,-4.329,-4.329,-4.329,-4.329,-4.1532,-4.0059,-3.9579,-3.7645,-3.6405,-3.6405,-3.6405,-3.6405,-3.6405,-3.6405,-3.6405,-3.6405,-3.6405,-3.6405,-3.6405,-3.6405,-3.6849,0.0,0.0,0.0,0.0,0.0,0.0,0.0,0.0,0.0,0.0,0.0,0.0,-3.6405,-3.6405,-3.6405,-3.6518,-3.7462,-3.7839,-3.7977,-3.9007,-3.9371,-3.9207,-3.8191,-3.7475,-3.6996,-3.6556,-3.6405,-3.6405,-3.6405,-3.6405,-3.6405,-3.6405,-3.6405,-3.6405,-3.6405,-3.6405,0.0,-3.6405,-3.6405,-3.6405,0.0,-3.6405,-3.6405,-3.6405,-3.6405,-3.6405,-3.6405,-3.5994,-3.5656,-3.5593,-3.4234,-3.324,-3.3134,-3.1381,-3.013,-2.9983,-2.9409,-2.8634,-2.7683,-2.6438,-2.5693,-2.5693,-2.5693,-2.5693,-2.5693,-2.5693,-2.5693,-2.5693,-2.4863,-2.4414,-2.4404,-2.35,-2.3091,-2.3091,-2.3091,-2.3091,-2.3091,-2.3091,-2.3091,-2.3091,-2.3091,-2.3091,-2.3091,-2.3091,-2.3091,-2.3042,-2.2666,-2.2709,-2.2959,-4.329,-4.329,-4.329,-4.329,-4.329,-4.329,-4.329,-4.329,-4.329,-4.329,-4.1823,-4.0386,-3.95,-3.8326,-3.7548,-3.7197,-3.6923,-3.682,-3.682,-3.6568,-3.6405,-3.6405,-3.6405,-3.6405,-3.6405,-3.6977,-3.754,-3.8107,0.0,0.0,0.0,0.0,0.0,0.0,0.0,0.0,0.0,0.0,-3.6405,-3.6405,-3.6405,0.0,-3.6531,-3.7588,-3.8002,-3.8153,-3.9283,-3.9521,-3.9195,-3.863,-3.7877,-3.7136,-3.6908,-3.6631,-3.6405,-3.6405,-3.6405,-3.6405,-3.6405,-3.6405,-3.6405,-3.6405,-3.6405,0.0,0.0,-3.6405,-3.6405,-3.6405,-3.6405,-3.6405,-3.6405,-3.6405,-3.6317,-3.5994,-3.5683,-3.5495,-3.5542,-3.4712,-3.4013,-3.3744,-3.2661,-3.1855,-3.1549,-3.0783,-2.9818,-2.8588,-2.7352,-2.6668,-2.6668,-2.6062,-2.5693,-2.5693,-2.5693,-2.5693,-2.5693,-2.4863,-2.4414,-2.4404,-2.35,-2.3091,-2.3091,-2.3091,-2.3091,-2.3091,-2.3091,-2.3091,-2.3091,-2.3091,-2.3091,-2.3091,-2.3091,-2.3091,-2.31,-2.294,-2.3053,-2.3257,-4.329,-4.329,-4.329,0.0,0.0,-4.329,-4.329,-4.329,-4.3349,0.0,-4.2521,-4.1269,-3.9932,-3.9587,-3.9275,-3.8794,-3.8326,-3.7974,-3.7746,-3.7552,-3.7245,-3.6874,-3.7143,-3.7172,-3.7083,-3.7984,-3.8545,-3.8769,0.0,0.0,0.0,0.0,0.0,0.0,0.0,0.0,0.0,0.0,0.0,-3.6417,0.0,-3.6568,-3.6669,-3.7626,-3.8078,-3.8304,-3.9333,-3.9408,-3.9057,-3.8957,-3.8191,-3.7324,-3.7211,-3.6857,-3.6405,-3.6405,-3.6405,-3.6405,-3.6405,-3.6405,-3.6405,-3.6405,-3.6405,-3.6405,0.0,0.0,0.0,-3.6405,-3.6405,-3.6405,-3.6405,0.0,0.0,-3.5596,0.0,0.0,0.0,-3.4474,0.0,-3.3935,-3.3809,-3.3571,-3.3162,-3.1965,-3.081,-2.9818,-2.8634,-2.7955,-2.7955,-2.6754,-2.6062,-2.6062,-2.583,-2.5693,-2.5693,-2.4863,-2.4414,-2.4404,-2.35,-2.3091,-2.3091,-2.3091,-2.3091,-2.3091,-2.3091,-2.3091,-2.3091,-2.3091,-2.3222,-2.343,-2.3178,-2.3222,-2.3398,-2.335,-2.3562,-2.3899,-4.329,-4.329,-4.329,0.0,0.0,0.0,-4.329,-4.329,0.0,0.0,0.0,-4.2624,-4.3011,-4.2111,-4.1434,-4.1366,-4.1311,-4.0779,-3.9696,-4.0572,-4.0394,-3.8667,-3.9717,-4.0056,-3.9519,-3.9637,-4.0189,-4.1197,0.0,0.0,0.0,0.0,0.0,0.0,-4.1462,0.0,0.0,0.0,-3.7322,0.0,-3.6945,-3.7098,0.0,-3.7776,-3.8329,-3.8906,-3.9471,-3.9647,-3.9534,0.0,-3.8442,-3.7826,-3.7337,-3.6857,-3.6405,-3.6405,-3.6405,-3.6405,-3.6405,-3.6405,-3.6405,-3.6405,-3.6405,-3.6405,-3.6405,0.0,-3.6405,-3.6405,0.0,-3.6405,-3.6405,0.0,0.0,0.0,0.0,0.0,-3.4073,-3.3571,-3.342,-3.3847,-3.347,-3.3187,-3.3124,-3.1965,-3.1122,-3.0989,-2.9863,-2.9177,-2.9177,-2.8038,-2.7352,-2.7352,-2.6294,-2.5693,-2.5693,-2.4863,-2.4414,-2.4404,-2.35,-2.3091,-2.3091,-2.3091,-2.3091,-2.3091,-2.3091,-2.3091,-2.3091,-2.3091,-2.3714,-2.45,-2.3507,-2.3714,-2.4513,-2.3626,-2.4513,-2.6004,-4.329,-4.329,-4.329,-4.329,0.0,0.0,0.0,0.0,0.0,0.0,0.0,-4.4144,-4.408,-4.3592,-4.3181,-4.2828,-4.2491,-4.2113,-4.1556,-4.1723,-4.1452,-4.0613,-4.0711,-4.0675,-4.044,-4.0744,-4.1127,-4.1587,-4.2249,0.0,0.0,0.0,0.0,0.0,-4.1891,0.0,-4.0017,0.0,-3.7998,0.0,0.0,-3.7575,0.0,-3.8417,-3.8856,-3.9383,-3.9609,-3.9697,-3.9609,0.0,-3.8479,0.0,0.0,0.0,0.0,-3.6405,-3.6405,-3.6405,-3.6405,-3.6405,-3.6405,-3.6405,-3.6405,-3.6405,-3.6405,-3.6405,-3.6405,-3.6405,0.0,0.0,0.0,0.0,0.0,0.0,-3.4831,-3.4412,0.0,0.0,-3.3156,-3.3395,0.0,0.0,-3.3124,-3.2612,-3.2283,-3.2283,-3.1134,-3.0451,-3.0451,-2.8634,-2.7589,-2.7589,-2.6342,-2.5693,-2.5693,-2.4863,-2.4414,-2.4404,-2.35,-2.3091,-2.3091,-2.3091,-2.3091,-2.3135,-2.38,-2.4082,-2.4125,-2.4808,-2.5347,-2.5724,-2.5263,-2.5347,-2.5729,-2.5312,-2.5751,-2.6431,-4.329,-4.329,-4.329,-4.329,0.0,0.0,0.0,0.0,0.0,0.0,0.0,-4.5461,-4.52,-4.5185,-4.5003,-4.4599,-4.4185,-4.3825,-4.3458,-4.3342,-4.3048,-4.2565,-4.2396,-4.2133,-4.1779,-4.2119,-4.2245,-4.207,-4.29,0.0,0.0,0.0,0.0,0.0,0.0,-4.1891,-4.1504,0.0,-3.9195,-3.9335,-3.8708,-3.8923,-3.9612,-3.9234,-3.9346,-3.9697,-3.9697,-3.9597,-3.9408,-3.9057,-3.8379,0.0,-3.7312,-3.6857,-3.6405,0.0,0.0,0.0,-3.6405,0.0,0.0,0.0,0.0,0.0,-3.6405,-3.6405,-3.6405,-3.6405,-3.6405,0.0,0.0,0.0,-3.6053,-3.4901,0.0,-3.4336,0.0,-3.3124,0.0,-3.3124,0.0,0.0,0.0,-3.3124,-3.3124,-3.3124,-3.2239,-3.1721,-3.1721,-2.9727,-2.8459,-2.8085,-2.6897,-2.6062,-2.5693,-2.498,-2.4531,-2.4404,-2.3672,-2.3208,-2.3091,-2.3091,-2.3256,-2.3594,-2.4457,-2.4957,-2.5336,-2.6141,-2.6678,-2.6924,-2.6924,-2.7139,-2.7359,-2.6877,-2.6806,-2.6904,-4.329,-4.329,-4.329,-4.329,0.0,0.0,0.0,0.0,0.0,0.0,0.0,-4.6503,-4.7146,-4.7236,-4.7193,-4.7164,-4.7149,-4.6653,-4.5374,-4.6447,-4.6299,-4.4408,-4.5475,-4.5508,-4.421,-4.4206,-4.3892,-4.325,-4.329,0.0,0.0,0.0,0.0,0.0,-4.325,-4.2629,-4.1587,-4.1504,-4.1213,-4.081,-4.1328,-4.1558,-4.1379,0.0,-3.9685,-3.9697,-3.9697,0.0,0.0,-3.8932,-3.8128,0.0,0.0,0.0,0.0,0.0,0.0,0.0,0.0,0.0,0.0,-3.6405,0.0,0.0,0.0,0.0,-3.6405,-3.6405,-3.6405,-3.6405,-3.6405,-3.6405,-3.6053,-3.4901,-3.468,0.0,0.0,-3.3124,-3.3124,-3.3124,-3.3124,0.0,0.0,-3.3124,-3.3124,-3.3124,-3.3081,-3.3025,-3.3025,-3.1821,-3.0541,-2.9361,-2.8179,-2.6945,-2.5684,-2.5283,-2.4834,-2.4414,-2.3975,-2.3545,-2.3091,-2.3091,-2.3714,-2.4745,-2.4787,-2.542,-2.6431,-2.6472,-2.7128,-2.8056,-2.8056,-2.8727,-2.951,-2.7864,-2.7612,-2.7985,0.0,-4.329,-4.329,-4.329,0.0,0.0,0.0,-4.4541,0.0,0.0,-4.6561,-4.7055,-4.7279,-4.7309,-4.7309,-4.7309,-4.7309,-4.7121,-4.6682,-4.7062,-4.7016,-4.6372,-4.6317,-4.607,-4.5648,-4.4766,-4.4212,-4.3947,-4.3499,0.0,0.0,0.0,0.0,0.0,0.0,-4.3076,0.0,0.0,0.0,0.0,0.0,-4.1113,-4.0313,0.0,-3.9697,-3.9647,-3.9283,-3.9032,0.0,-3.8015,-3.75,-3.7123,-3.6807,-3.6556,-3.6405,-3.6405,-3.693,-3.754,0.0,0.0,-3.8527,-3.7723,0.0,0.0,0.0,0.0,0.0,0.0,-3.754,-3.754,-3.754,-3.8166,-3.8318,-3.7083,-3.6909,-3.6536,0.0,-3.5143,-3.4884,-3.4233,-3.3513,-3.3124,0.0,0.0,-3.3124,-3.3124,-3.3124,-3.3124,-3.3124,-3.1865,-3.0989,-3.0586,-2.8634,-2.74,-2.6945,-2.5702,-2.4844,-2.4414,-2.3984,-2.3555,-2.3091,-2.3091,-2.3714,-2.483,-2.5588,-2.6543,-2.7614,-2.8371,-2.891,-2.9236,-2.9236,-2.9456,-2.9678,-2.8733,-2.8263,-2.7971,-4.329,-4.329,-4.329,0.0,0.0,0.0,0.0,0.0,0.0,0.0,-4.689,0.0,-4.7309,-4.7309,-4.7309,-4.7309,-4.7309,-4.7309,-4.7309,-4.7309,-4.7309,-4.7309,-4.6905,-4.6518,-4.6337,-4.5229,-4.4541,-4.4317,-4.3618,-4.329,0.0,0.0,0.0,0.0,0.0,-4.329,-4.325,-4.2508,-4.2806,0.0,0.0,-4.1491,0.0,0.0,-3.9601,-3.9358,0.0,-3.8655,-3.8165,-3.7425,-3.7048,-3.6883,-3.6518,-3.6675,-3.7023,-3.7023,-3.7815,-3.8738,-3.8738,-3.9316,0.0,-3.8917,-3.8738,0.0,-3.8738,0.0,-3.7861,0.0,0.0,0.0,-3.8738,-3.9373,-3.9498,-3.8255,-3.8076,-3.7662,0.0,-3.6198,-3.5974,-3.5319,-3.4304,-3.3513,-3.3154,-3.3124,-3.3124,-3.3124,-3.3124,-3.3124,-3.3124,-3.2326,-3.1677,-3.1223,-2.9681,-2.868,-2.8226,-2.6732,-2.5765,-2.5267,-2.4437,-2.3959,-2.3911,-2.3794,-2.4542,-2.6025,-2.6748,-2.7695,-2.8767,-2.9495,-2.9792,-2.9792,-2.9792,-2.9792,-2.9741,-2.9365,-2.875,-2.7946,0.0,0.0,0.0,0.0,-4.3319,0.0,0.0,0.0,-4.5589,0.0,-4.692,-4.7309,-4.7309,-4.7309,-4.7309,-4.7309,-4.7309,-4.7309,-4.7309,-4.7309,-4.7309,-4.7309,-4.7309,-4.701,-4.6339,-4.5663,-4.499,-4.4362,-4.3633,0.0,0.0,0.0,0.0,0.0,-4.329,0.0,-4.329,-4.329,-4.3623,-4.4158,-4.363,-4.2713,-4.1558,-4.0335,-3.9508,-3.8969,-3.8831,-3.809,-3.7174,-3.7149,-3.6845,-3.6499,-3.6499,-3.7276,-3.8198,-3.8198,-3.905,-3.9986,-3.9986,-4.0029,-4.0073,-3.9986,-3.9986,0.0,0.0,0.0,-3.9899,0.0,0.0,0.0,0.0,-4.0029,-3.9657,-3.8464,-3.82,-3.7742,-3.6536,-3.6369,-3.633,-3.629,-3.544,-3.4428,-3.3283,-3.3197,-3.3154,-3.3124,-3.3124,-3.3124,0.0,-3.3124,-3.2568,-3.1311,-3.1223,-3.0631,-2.9498,-2.8272,-2.7452,-2.6978,-2.5293,-2.4852,-2.549,-2.5007,-2.6025,-2.8096,-2.8096,-2.8767,-2.9792,-2.9792,-2.9792,-2.9792,-2.9792,-2.9792,-2.9779,-2.9729,-2.9026,-2.7946,-4.329,-4.329,-4.329,0.0,-4.3693,-4.4287,0.0,0.0,0.0,0.0,-4.7189,-4.7309,-4.7309,-4.7309,-4.7309,-4.7309,-4.7309,-4.7309,-4.7309,-4.7309,-4.7309,-4.7309,-4.7309,-4.7234,-4.7055,-4.5903,-4.5214,-4.5035,-4.3858,0.0,-4.329,0.0,0.0,0.0,0.0,0.0,-4.329,-4.329,-4.3149,-4.2906,-4.3257,-4.2655,-4.153,0.0,-4.0711,-4.0006,-3.8255,-3.7425,-3.7123,-3.6757,-3.7092,-3.7678,-3.7678,-3.8469,-3.9461,-3.9461,-4.0261,-4.1169,-4.1169,-4.1782,-4.2208,-4.1393,-4.1169,-4.1169,0.0,0.0,0.0,0.0,0.0,0.0,0.0,0.0,-4.2016,-4.0764,-3.9712,-3.8964,-3.8612,-3.8583,-3.8294,-3.7458,-3.7151,-3.6292,-3.447,-3.4275,-3.3953,-3.3154,-3.3124,-3.3124,-3.3124,0.0,-3.2939,-3.2612,-3.1677,-3.1033,-3.0721,-2.9544,-2.8715,-2.8275,-2.6618,-2.6153,-2.6764,-2.5423,-2.6025,-2.8096,-2.8096,-2.8767,-2.9792,-2.9792,-2.9792,-2.9792,-2.9792,-2.9792,-2.9691,-2.885,-2.836,-2.7946,-4.329,0.0,0.0,-4.329,0.0,0.0,-4.5229,-4.5873,0.0,-4.7219,-4.7309,0.0,-4.7309,-4.7309,-4.7309,-4.7309,-4.7309,0.0,-4.7309,-4.7309,-4.7309,-4.7309,-4.7309,-4.7174,-4.689,-4.5843,-4.5155,-4.487,-4.3798,0.0,-4.329,0.0,0.0,0.0,0.0,-4.329,-4.329,-4.329,-4.3108,-4.2819,-4.3211,-4.2653,0.0,-4.1529,-4.107,-4.0161,-3.8838,-3.8392,-3.8339,-3.8024,-3.8347,-3.8872,-3.8872,-3.9697,-4.0661,-4.0661,-4.1435,-4.233,-4.233,-4.2805,-4.3155,-4.2508,-4.233,-4.233,-4.233,-4.1864,-4.1574,0.0,-4.233,-4.233,0.0,0.0,-4.2871,-4.1594,-4.0277,-3.9388,-3.9388,-3.9388,-3.9177,-3.8583,-3.8509,-3.7866,-3.6213,-3.5224,-3.447,-3.3839,-3.3356,0.0,0.0,0.0,-3.3124,-3.3124,-3.2382,-3.2052,-3.2052,-3.0822,-3.0076,-2.9844,-2.8177,-2.7689,-2.828,-2.7113,-2.7434,-2.8858,-2.8858,-2.9197,-2.9792,-2.9792,-2.9792,-2.9792,-2.9792,-2.9792,-2.9654,-2.8524,-2.8109,-2.7946,0.0,0.0,0.0,0.0,0.0,0.0,0.0,-4.5903,0.0,-4.7234,0.0,-4.7309,-4.7309,-4.7309,-4.7309,-4.7309,-4.7309,-4.7309,-4.7309,-4.7309,-4.7309,-4.7309,-4.7219,-4.692,-4.6294,-4.5559,-4.4885,-4.4317,-4.3618,-4.329,-4.329,0.0,0.0,0.0,0.0,0.0,0.0,-4.329,-4.329,-4.329,-4.329,-4.2725,-4.1809,-4.1809,-4.1225,-4.0332,-4.0332,-4.0159,-3.9899,-3.9899,-3.9986,-4.0102,-4.0102,-4.0916,-4.1809,-4.1809,-4.2508,-4.329,-4.329,-4.329,-4.329,-4.329,-4.329,-4.329,-4.329,-4.329,-4.329,-4.329,-4.329,-4.329,-4.329,0.0,0.0,-4.1564,-4.0277,-3.9388,-3.9388,-3.9388,-3.9388,-3.9388,-3.9388,0.0,-3.8107,-3.6253,-3.5061,-3.4897,-3.3911,0.0,0.0,0.0,-3.3124,-3.3124,-3.3124,-3.3124,-3.3124,-3.2008,-3.1456,-3.1444,-2.9819,-2.9311,-2.981,-2.9189,-2.9225,-2.9792,-2.9792,-2.9792,-2.9792,-2.9792,-2.9792,-2.9792,-2.9792,-2.9792,-2.9654,-2.8524,-2.8109,-2.7946,0.0,0.0,0.0,0.0,0.0,-4.4481,-4.4481,-4.5992,-4.7174,-4.7294,-4.7309,-4.7309,-4.7309,-4.7309,-4.7309,-4.7309,-4.7309,0.0,0.0,0.0,0.0,-4.7309,-4.6785,-4.6399,-4.6279,-4.5125,-4.4421,-4.4317,-4.3618,-4.329,-4.329,0.0,0.0,0.0,0.0,0.0,-4.329,-4.329,0.0,-4.329,-4.329,-4.317,-4.2981,-4.2981,-4.286,-4.2684,-4.2684,-4.1491,-3.9899,-3.9899,-4.0532,-4.1295,-4.1295,-4.207,-4.2981,-4.2981,-4.3155,-4.329,-4.329,-4.329,-4.329,-4.329,-4.329,-4.329,-4.329,-4.329,-4.329,-4.329,-4.329,-4.329,-4.329,0.0,0.0,0.0,0.0,-3.9388,-3.9388,-3.9388,-3.9388,-3.9388,-3.9388,-3.9337,-3.9141,-3.7994,-3.6866,-3.6013,-3.5007,0.0,0.0,0.0,-3.3124,0.0,-3.3124,0.0,0.0,0.0,-3.2754,-3.2742,-3.1072,-3.0585,-3.1034,-2.9584,-2.9225,-2.9792,-2.9792,-2.9792,-2.9792,-2.9792,-2.9792,-2.9792,-2.9792,-2.9792,-2.9654,-2.8524,-2.8109,-2.7946,0.0,0.0,0.0,0.0,0.0,0.0,0.0,-4.5424,-4.6396,-4.6756,-4.68,-4.692,-4.7264,-4.7309,-4.7174,-4.683,-4.68,-4.6636,-4.6292,-4.6262,-4.6262,-4.6262,-4.5963,-4.5633,-4.5289,-4.4646,-4.4152,-4.3768,-4.3454,-4.329,-4.329,-4.329,0.0,0.0,0.0,-4.329,0.0,0.0,0.0,-4.329,-4.329,-4.329,-4.329,-4.329,-4.329,-4.329,-4.329,-4.2603,-4.1657,-4.1657,-4.2044,-4.2467,-4.2467,-4.286,-4.329,-4.329,-4.329,-4.329,-4.329,-4.329,-4.329,-4.329,-4.329,-4.329,-4.329,-4.329,-4.329,-4.329,-4.329,-4.3185,-4.2895,-4.2043,0.0,0.0,0.0,0.0,0.0,-3.9388,-3.9388,-3.9388,-3.9388,-3.9388,-3.9388,-3.8943,-3.8182,-3.7098,-3.6067,0.0,0.0,0.0,-3.367,0.0,0.0,0.0,-3.3124,0.0,-3.3124,-3.3068,-3.2265,-3.1727,-3.1373,-3.0556,-3.0041,-2.9792,-2.9792,-2.9792,-2.9792,-2.9792,-2.9792,-2.9792,-2.9792,-2.9792,-2.9654,-2.8524,-2.8109,-2.7946,0.0,-4.329,0.0,0.0,-4.3723,0.0,-4.4107,-4.4541,-4.517,-4.5992,-4.6112,-4.6307,-4.6815,-4.6875,-4.6666,-4.6157,-4.6112,-4.5873,-4.5334,-4.5289,-4.5289,-4.5289,-4.5155,-4.484,-4.4332,-4.4182,-4.3813,-4.329,-4.329,-4.329,-4.329,-4.329,0.0,0.0,0.0,0.0,0.0,0.0,-4.329,-4.329,-4.329,-4.329,-4.329,-4.329,-4.329,-4.329,-4.329,-4.329,-4.329,-4.329,-4.329,-4.329,-4.329,-4.329,-4.329,-4.329,-4.329,-4.329,-4.329,-4.329,-4.329,-4.329,-4.329,-4.329,-4.329,-4.329,-4.329,-4.329,-4.3185,-4.297,-4.25,-4.1752,0.0,0.0,0.0,0.0,0.0,-3.9388,-3.9388,-3.9388,-3.9388,-3.9388,-3.9388,-3.9388,-3.9068,-3.8196,0.0,0.0,-3.5047,0.0,0.0,0.0,0.0,-3.3124,-3.3124,0.0,-3.3124,-3.3124,-3.3124,-3.2478,-3.1386,-3.1386,-3.0796,-2.9792,-2.9792,-2.9792,-2.9792,-2.9792,-2.9792,-2.9792,-2.9792,-2.9716,-2.9529,-2.8682,-2.8299,-2.8081,0.0,0.0,0.0,0.0,0.0,0.0,-4.3379,-4.3439,-4.3932,-4.5229,-4.5394,-4.5409,-4.5469,-4.5484,-4.5454,-4.5394,-4.5394,-4.5364,-4.5289,-4.5289,-4.5289,-4.5289,-4.4721,-4.4377,-4.4317,-4.3678,-4.3349,0.0,0.0,-4.329,-4.329,-4.329,0.0,0.0,0.0,0.0,0.0,-4.329,-4.329,-4.329,-4.329,-4.329,-4.329,-4.329,-4.329,-4.329,-4.329,-4.329,-4.329,-4.329,-4.329,-4.329,-4.329,-4.329,-4.329,-4.329,-4.329,-4.329,-4.329,-4.329,-4.329,-4.329,-4.329,-4.329,-4.329,-4.329,-4.329,-4.329,-4.2865,-4.247,-4.241,-4.1377,-4.0472,0.0,0.0,0.0,0.0,0.0,-3.9388,-3.9388,-3.9388,-3.9388,-3.9388,-3.9388,-3.9337,0.0,-3.7367,0.0,0.0,0.0,0.0,-3.3124,-3.3124,-3.3124,-3.3124,-3.3124,-3.3124,-3.3124,-3.3124,-3.2478,-3.1386,-3.1386,-3.0796,-2.9792,-2.9792,-2.9792,-2.9792,-2.9792,-2.9792,-2.9792,-2.9792,-2.9478,-2.9001,-2.9217,-2.8935,-2.8486,0.0,0.0,0.0,0.0,0.0,0.0,0.0,-4.329,-4.3484,-4.4047,-4.4466,-4.4855,-4.5244,-4.5289,-4.514,-4.4736,-4.4706,-4.4541,-4.4152,-4.4122,-4.4122,-4.4122,-4.3828,-4.3678,-4.3678,-4.3424,-4.329,0.0,0.0,-4.329,-4.329,-4.329,0.0,0.0,0.0,-4.329,-4.329,-4.329,-4.329,-4.329,-4.329,-4.329,-4.329,-4.329,-4.329,-4.329,-4.329,-4.329,-4.329,-4.329,-4.329,-4.329,-4.329,-4.329,-4.329,-4.329,-4.329,-4.329,-4.329,-4.329,-4.329,-4.329,-4.329,-4.329,-4.329,-4.329,-4.329,-4.329,-4.2821,-4.2156,-4.1324,-4.0756,-4.0277,-3.9873,0.0,0.0,0.0,0.0,0.0,-3.9388,-3.9388,-3.9388,-3.9388,-3.9388,-3.9388,0.0,0.0,0.0,0.0,0.0,0.0,-3.4108,0.0,-3.3755,-3.3124,-3.3124,-3.3124,-3.3124,-3.2717,-3.2152,-3.1386,-3.1072,-3.0507,-2.9792,-2.9792,-2.9792,-2.9792,-2.9792,-2.9792,-2.9792,-2.9792,-2.944,-2.8925,-2.9262,-2.9,-2.853,-4.329,0.0,-4.329,0.0,-4.329,-4.329,-4.329,-4.329,-4.329,-4.329,-4.3693,-4.4212,-4.4661,-4.4721,-4.4526,-4.4062,-4.4032,-4.3823,-4.3319,-4.329,-4.329,-4.329,-4.329,0.0,-4.329,-4.329,-4.329,-4.329,-4.329,-4.329,-4.329,-4.329,0.0,0.0,-4.329,-4.329,-4.329,-4.329,-4.329,-4.329,-4.329,-4.329,-4.329,-4.329,-4.329,-4.329,-4.329,-4.329,-4.329,-4.329,-4.329,-4.329,-4.329,-4.329,-4.329,-4.329,-4.329,-4.329,-4.329,-4.329,-4.329,-4.329,-4.329,-4.329,-4.329,-4.329,-4.3245,-4.309,-4.2372,-4.1542,-4.0561,-4.0247,-3.9963,-3.9499,0.0,0.0,0.0,-3.9388,0.0,-3.9388,-3.9388,-3.9388,-3.9388,-3.9388,-3.9388,0.0,0.0,0.0,0.0,0.0,0.0,0.0,0.0,0.0,-3.3598,-3.3283,-3.3124,-3.3111,-3.2491,-3.1926,-3.1361,-3.0683,-3.0168,-2.9792,-2.9792,-2.9792,-2.983,-3.0113,-3.0216,-3.0241,-3.0533,-3.0143,-2.9541,-3.0003,-2.97,-2.91,-4.329,-4.329,-4.329,-4.329,-4.329,-4.329,-4.329,-4.329,-4.329,-4.329,-4.3305,-4.3305,-4.3319,-4.3319,-4.3319,-4.3305,-4.3305,-4.3305,-4.329,-4.329,-4.329,0.0,0.0,-4.329,-4.329,-4.329,-4.329,-4.329,0.0,0.0,-4.329,0.0,-4.329,-4.329,-4.329,-4.329,-4.329,-4.329,-4.329,-4.329,-4.329,-4.329,-4.329,-4.329,-4.329,-4.329,-4.329,-4.329,-4.329,-4.329,-4.329,-4.329,-4.329,-4.329,-4.329,-4.329,-4.329,-4.329,-4.329,-4.329,-4.329,-4.329,-4.329,-4.329,-4.329,-4.329,-4.315,-4.2545,-4.1324,-4.0427,-4.0397,-3.9873,-3.9388,-3.9388,0.0,0.0,0.0,-3.9388,0.0,-3.9388,-3.9388,-3.9388,-3.9388,-3.9388,0.0,0.0,0.0,0.0,0.0,0.0,0.0,-3.6158,-3.521,0.0,-3.4664,-3.3641,-3.3124,-3.3111,-3.2491,-3.1926,-3.1348,-3.0294,-2.9804,-2.9792,-2.9792,-2.9792,-2.9856,-3.0796,-3.118,-3.1291,-3.2213,-3.1826,-3.0879,-3.1752,-3.1317,-3.0404,-4.329,-4.329,-4.329,-4.329,-4.329,-4.329,-4.329,-4.329,-4.329,-4.329,-4.329,-4.329,-4.329,-4.329,-4.329,0.0,-4.329,-4.329,0.0,-4.329,-4.329,-4.329,-4.329,-4.329,-4.329,-4.329,-4.329,-4.329,0.0,0.0,0.0,-4.329,-4.329,-4.329,-4.329,-4.329,-4.329,-4.329,-4.329,-4.329,-4.329,-4.329,-4.329,-4.329,-4.329,-4.329,-4.329,-4.329,-4.329,-4.329,-4.329,-4.329,-4.329,-4.329,-4.329,-4.329,-4.329,-4.329,-4.329,-4.329,-4.329,-4.329,-4.329,-4.317,-4.2776,-4.2327,-4.1818,-4.116,-4.0696,-4.0262,-3.9813,-3.9523,-3.9388,-3.9388,-3.9388,0.0,-3.9388,0.0,-3.9388,-3.9388,-3.9388,-3.9388,-3.9388,-3.9388,0.0,0.0,0.0,0.0,0.0,0.0,0.0,0.0,-3.6996,0.0,-3.5734,-3.5386,-3.4884,-3.4178,-3.3216,-3.187,-3.0294,-2.9942,-3.0139,-3.0758,-3.0758,-3.1119,-3.1719,-3.2033,-3.2141,-3.2136,-3.1975,-3.1468,-3.0857,-3.1269,-3.0943,-3.0419,-4.329,-4.329,-4.329,-4.329,-4.329,-4.329,-4.329,-4.329,-4.329,-4.329,-4.329,-4.329,-4.329,-4.329,0.0,-4.329,-4.329,-4.329,-4.329,-4.329,-4.329,-4.329,-4.329,-4.329,-4.329,-4.329,0.0,-4.329,-4.329,-4.329,-4.329,-4.329,-4.329,-4.329,-4.329,-4.329,-4.329,-4.329,-4.329,-4.329,-4.329,-4.329,-4.329,-4.329,-4.329,-4.329,-4.329,-4.329,-4.329,-4.329,-4.329,-4.329,-4.329,-4.329,-4.329,-4.329,-4.329,-4.329,-4.329,-4.329,-4.3245,-4.303,-4.297,-4.2806,-4.2186,-4.1527,-4.0891,-4.0487,-4.0202,-3.9903,-3.9499,-3.9388,-3.9388,-3.9388,-3.9388,-3.9388,-3.9388,0.0,-3.9388,-3.9388,-3.9388,-3.9388,0.0,-3.9388,-3.9388,0.0,0.0,0.0,0.0,0.0,0.0,-3.842,-3.7994,-3.7472,-3.6813,-3.6408,-3.5585,-3.4348,-3.3199,-3.2002,-3.0846,-3.0846,-3.1156,-3.1742,-3.1742,-3.2069,-3.2629,-3.2996,-3.301,-3.2771,-3.2718,-3.2184,-3.145,-3.1582,-3.1258,-3.0807,-4.329,-4.329,-4.329,0.0,-4.329,0.0,-4.329,-4.329,-4.329,-4.329,-4.329,-4.329,-4.329,-4.329,-4.329,-4.329,0.0,0.0,0.0,-4.329,-4.329,-4.329,-4.329,-4.329,-4.329,-4.329,-4.329,-4.329,-4.329,-4.329,-4.329,-4.329,-4.329,-4.329,-4.329,-4.329,-4.329,-4.329,-4.329,-4.329,-4.329,-4.329,-4.329,-4.329,-4.329,-4.329,-4.329,-4.329,-4.329,-4.329,-4.329,-4.329,-4.329,-4.326,-4.3245,-4.329,-4.329,-4.329,-4.3245,-4.323,-4.3105,-4.2485,-4.2306,-4.2111,-4.1444,-4.0801,-4.0337,-4.0337,-3.9843,-3.9388,-3.9388,-3.9388,-3.9388,-3.9388,-3.9388,-3.9388,-3.9388,-3.9388,-3.9388,-3.9388,0.0,0.0,-3.9388,-3.9388,-3.9388,0.0,0.0,0.0,0.0,0.0,-3.9388,-3.9388,-3.8435,-3.7919,-3.7919,-3.6887,-3.5497,-3.3861,-3.2655,-3.227,-3.2593,-3.2593,-3.2629,-3.2713,-3.2713,-3.2749,-3.2855,-3.3739,-3.3749,-3.3266,-3.4127,-3.3634,-3.2482,-3.2437,-3.2034,-3.1511,0.0,0.0,-4.329,-4.329,-4.329,-4.329,-4.329,-4.329,-4.329,-4.329,-4.329,-4.329,-4.329,-4.329,-4.329,-4.329,-4.329,-4.329,-4.329,-4.329,-4.329,-4.329,-4.329,-4.329,-4.329,-4.329,-4.329,-4.329,-4.329,-4.329,-4.329,-4.329,-4.329,-4.329,-4.329,-4.329,-4.329,-4.329,-4.329,-4.329,-4.329,-4.329,-4.329,-4.329,-4.329,-4.329,-4.329,-4.329,-4.329,-4.329,-4.329,-4.329,-4.329,-4.2985,-4.2686,-4.314,-4.329,-4.3185,-4.2731,-4.262,-4.247,-4.1811,-4.1235,-4.0831,-4.0666,-4.0127,-3.9649,-3.9649,-3.9493,-3.9388,-3.9388,-3.9388,-3.9388,-3.9388,-3.9388,-3.9388,-3.9388,-3.9388,-3.9388,0.0,-3.9388,-3.9388,-3.9388,-3.9388,-3.9388,0.0,0.0,-3.9388,-3.9388,-3.9388,-3.9388,-3.9388,-3.9141,-3.9017,-3.9017,-3.8266,-3.6809,-3.4701,-3.3606,-3.2896,-3.2593,-3.2593,-3.2996,-3.3671,-3.3671,-3.4109,-3.482,-3.5052,-3.4747,-3.4159,-3.3856,-3.323,-3.2452,-3.1929,-3.1645,-3.1511,-4.329,-4.329,-4.329,-4.329,-4.329,-4.329,-4.329,-4.329,-4.329,-4.329,-4.329,-4.329,-4.329,-4.329,-4.329,-4.329,-4.329,-4.329,-4.329,-4.329,-4.329,-4.329,-4.329,-4.329,-4.329,-4.329,-4.329,-4.329,-4.329,-4.329,-4.329,-4.329,-4.329,-4.329,-4.329,-4.329,-4.329,-4.329,-4.329,-4.329,-4.329,-4.329,-4.329,-4.329,-4.329,-4.329,-4.329,-4.3135,-4.2895,-4.2895,-4.2686,-4.2432,-4.2432,-4.2207,-4.2021,-4.2342,-4.2432,-4.2357,-4.2051,-4.1946,-4.1796,-4.11,-4.0442,-3.9948,-3.9948,-3.9679,-3.9388,-3.9388,-3.9388,-3.9388,-3.9388,-3.9388,-3.9388,-3.9388,-3.9388,-3.9388,-3.9388,-3.9388,-3.9388,-3.9388,-3.9388,-3.9388,-3.9388,-3.9388,-3.9388,-3.9388,-3.9388,0.0,-3.9388,-3.9388,-3.9388,-3.9388,-3.9388,-3.9388,-3.9388,-3.8017,-3.6766,-3.5678,-3.4312,-3.3754,-3.3939,-3.3939,-3.4192,-3.4691,-3.4691,-3.4986,-3.5489,-3.516,-3.4637,-3.3994,-3.3305,-3.2647,-3.1989,-3.163,-3.1511,-3.1511,-4.329,-4.329,-4.329,-4.329,-4.329,-4.329,-4.329,-4.329,-4.329,-4.329,-4.329,-4.329,-4.329,-4.329,-4.329,-4.329,-4.329,-4.329,-4.329,-4.329,-4.329,-4.329,-4.329,-4.329,-4.329,-4.329,-4.329,-4.329,-4.329,-4.329,-4.329,-4.329,-4.329,-4.329,-4.329,-4.329,-4.329,-4.329,-4.329,-4.329,-4.3185,-4.314,-4.314,-4.3035,-4.2991,-4.2991,-4.2991,-4.2686,-4.2246,-4.2246,-4.1886,-4.1422,-4.1422,-4.1347,-4.1235,-4.1235,-4.116,-4.1115,-4.1205,-4.116,-4.095,-4.0382,-3.9828,-3.9388,-3.9388,-3.9388,-3.9388,-3.9388,-3.9388,-3.9388,-3.9388,-3.9388,-3.9388,-3.9388,-3.9388,-3.9388,-3.9388,0.0,-3.9388,-3.9388,-3.9388,-3.9388,-3.9388,-3.9388,-3.9388,-3.9388,-3.9388,-3.9388,-3.9388,-3.932,-3.926,-3.926,-3.926,-3.917,-3.8975,-3.7042,-3.6177,-3.6327,-3.4921,-3.4691,-3.5504,-3.5504,-3.5504,-3.5504,-3.5504,-3.5504,-3.5444,-3.4788,-3.4114,-3.3425,-3.2766,-3.2079,-3.1511,-3.1511,-3.1511,-3.1511,-4.329,-4.329,-4.329,-4.329,-4.329,-4.329,-4.329,-4.329,-4.329,-4.329,-4.329,-4.329,-4.329,-4.329,-4.329,-4.329,-4.329,-4.329,-4.329,-4.329,-4.329,-4.329,-4.329,-4.329,-4.329,-4.329,-4.329,-4.329,-4.329,-4.329,-4.329,-4.329,-4.329,-4.329,-4.329,-4.329,-4.329,-4.329,-4.329,-4.3245,-4.2731,-4.2545,-4.2485,-4.1893,-4.1683,-4.1683,-4.1683,-4.1609,-4.1572,-4.1572,-4.1512,-4.1422,-4.1422,-4.0995,-4.0546,-4.0546,-4.0157,-3.9843,-4.0397,-4.0142,-3.9709,-3.9589,-3.9499,-3.9388,-3.9388,-3.9388,-3.9388,-3.9388,-3.9388,-3.9388,-3.9388,-3.9388,-3.9388,-3.9388,-3.9388,-3.9388,-3.9388,0.0,-3.9388,-3.9388,-3.9388,-3.9388,-3.9388,-3.9388,-3.9388,-3.9388,-3.9388,-3.9388,-3.9388,-3.8871,-3.8556,-3.8556,-3.8556,-3.8033,-3.6956,-3.6581,-3.6149,-3.5654,-3.5404,-3.5359,-3.5504,-3.5504,-3.5504,-3.5504,-3.5504,-3.5504,-3.5444,-3.4788,-3.4114,-3.3425,-3.2766,-3.2079,-3.1511,-3.1511,-3.1511,-3.1511,-4.329,-4.329,-4.329,-4.329,-4.329,-4.329,-4.329,-4.329,-4.329,-4.329,-4.329,-4.329,-4.329,-4.329,-4.329,-4.329,-4.329,-4.329,-4.329,-4.329,-4.329,-4.329,-4.329,-4.329,-4.329,-4.329,-4.329,-4.329,-4.329,-4.329,-4.329,-4.329,-4.329,-4.329,-4.297,-4.2821,-4.2791,-4.2432,-4.2282,-4.2252,-4.1953,-4.1871,-4.1841,-4.1527,-4.1422,-4.1422,-4.1422,-4.1145,-4.0846,-4.0846,-4.0621,-4.0322,-4.0322,-4.0113,-3.9873,-3.9873,-3.9649,-3.9484,-3.9783,-3.9649,-3.9388,-3.9388,-3.9388,-3.9388,-3.9388,-3.9388,-3.9388,-3.9388,-3.9388,-3.9388,-3.9388,-3.9388,-3.9388,-3.9388,-3.9388,0.0,-3.9388,-3.9388,-3.9388,-3.9388,-3.9388,-3.9388,-3.9388,-3.9388,-3.9388,-3.9388,-3.908,-3.8871,-3.8871,-3.8227,-3.7853,-3.7853,-3.7853,-3.7419,-3.6492,-3.6492,-3.6148,-3.5504,-3.5504,-3.5504,-3.5504,-3.5504,-3.5504,-3.5504,-3.5504,-3.5295,-3.4906,-3.4218,-3.3559,-3.2901,-3.2213,-3.1765,-3.1511,-3.1511,-3.1511,-3.1511,-4.329,-4.329,-4.329,-4.329,-4.329,-4.329,-4.329,-4.329,-4.329,-4.329,-4.329,-4.329,-4.329,-4.329,-4.329,-4.329,-4.329,-4.329,-4.329,-4.329,-4.329,-4.329,-4.329,-4.329,-4.329,-4.329,-4.329,-4.329,-4.329,-4.3215,-4.3105,-4.3105,-4.303,-4.2851,-4.2357,-4.2171,-4.2141,-4.1632,-4.1422,-4.1407,-4.1205,-4.1145,-4.113,-4.098,-4.0935,-4.0935,-4.0935,-4.0591,-4.0172,-4.0172,-3.9843,-3.9388,-3.9388,-3.9388,-3.9388,-3.9388,-3.9388,-3.9388,-3.9388,-3.9388,-3.9388,-3.9388,-3.9388,-3.9388,-3.9388,-3.9388,-3.9388,-3.9388,-3.9388,-3.9388,-3.9388,-3.9388,-3.9388,-3.9388,0.0,-3.9388,-3.9388,-3.9388,-3.9388,-3.9388,-3.9388,-3.9349,-3.9185,-3.9185,-3.911,-3.896,-3.8467,-3.8167,-3.8167,-3.7554,-3.712,-3.6971,-3.712,-3.6896,-3.6267,-3.6252,-3.6013,-3.5504,-3.5504,-3.5504,-3.5504,-3.5504,-3.5504,-3.5489,-3.534,-3.4966,-3.4444,-3.3604,-3.2961,-3.2422,-3.1765,-3.1511,-3.1511,-3.1511,-3.1511,-3.1511,-4.329,-4.329,-4.329,-4.329,-4.329,-4.329,-4.329,-4.329,-4.329,-4.329,-4.329,-4.329,-4.329,-4.329,-4.329,-4.329,-4.329,-4.329,-4.329,-4.329,-4.329,-4.329,-4.329,-4.329,-4.329,-4.329,-4.329,-4.329,-4.329,-4.3015,-4.247,-4.247,-4.2141,-4.1519,-4.1474,-4.1444,-4.1444,-4.1399,-4.1422,-4.1324,-4.0711,-4.0472,-4.0412,-3.9798,-3.9574,-3.9574,-3.9574,-3.9529,-3.9448,-3.9448,-3.9454,-3.9388,-3.9388,-3.9388,-3.9388,-3.9388,-3.9388,-3.9388,-3.9388,-3.9388,-3.9388,-3.9388,-3.9388,-3.9388,-3.9388,-3.9388,-3.9388,-3.9388,-3.9388,-3.9388,-3.9388,-3.9388,-3.9388,-3.9388,0.0,0.0,-3.9388,-3.9388,-3.9388,-3.9388,-3.9388,-3.917,-3.8527,-3.8467,-3.8212,-3.7599,-3.7509,-3.7479,-3.7479,-3.6896,-3.6267,-3.5669,-3.6237,-3.6237,-3.5579,-3.5579,-3.5549,-3.5504,-3.5504,-3.5504,-3.5504,-3.5504,-3.5504,-3.5474,-3.4831,-3.4563,-3.4414,-3.311,-3.2527,-3.2422,-3.1765,-3.1511,-3.1511,-3.1511,-3.1511,-3.1511,-4.329,-4.329,-4.329,-4.329,-4.329,-4.329,-4.329,-4.329,-4.329,-4.329,-4.329,-4.329,-4.329,-4.329,-4.329,-4.329,-4.329,-4.329,-4.329,-4.329,-4.329,-4.329,-4.329,-4.329,-4.329,-4.294,-4.2731,-4.2731,-4.2327,-4.1998,-4.1796,-4.1796,-4.1662,-4.1369,-4.095,-4.0771,-4.0741,-4.0337,-4.0172,-4.0142,-3.9888,-3.9783,-3.9768,-3.9514,-3.9388,-3.9388,-3.9388,-3.9388,-3.9388,-3.9388,-3.9388,-3.9388,-3.9388,-3.9388,-3.9388,-3.9388,-3.9388,-3.9388,-3.9388,-3.9388,-3.9388,-3.9388,-3.9388,-3.9388,-3.9388,-3.9388,-3.9388,-3.9388,-3.9388,-3.9388,-3.9388,-3.9388,-3.9388,-3.9388,0.0,-3.9388,-3.9388,-3.9388,-3.926,-3.8841,-3.8781,-3.8512,-3.7838,-3.7778,-3.7674,-3.7434,-3.7045,-3.6836,-3.6836,-3.6222,-3.5759,-3.5519,-3.5744,-3.5759,-3.5504,-3.5504,-3.5504,-3.5504,-3.5504,-3.5504,-3.5504,-3.5504,-3.5504,-3.5474,-3.4771,-3.4279,-3.3799,-3.2886,-3.2243,-3.1854,-3.16,-3.1511,-3.1511,-3.1511,-3.1511,-3.1511,-4.329,-4.329,-4.329,-4.329,-4.329,-4.329,-4.329,-4.329,-4.329,-4.329,-4.329,-4.329,-4.329,-4.329,-4.329,-4.329,-4.315,-4.303,-4.303,-4.2836,-4.2806,-4.3015,-4.2836,-4.2677,-4.2677,-4.2282,-4.2096,-4.2096,-4.1647,-4.1265,-4.107,-4.107,-4.0965,-4.0741,-4.0292,-4.0098,-4.0068,-3.9619,-3.9388,-3.9388,-3.9388,-3.9388,-3.9388,-3.9388,-3.9388,-3.9388,-3.9388,-3.9388,-3.9388,-3.9388,-3.9388,-3.9388,-3.9388,-3.9388,-3.9388,-3.9388,-3.9388,-3.9388,-3.9388,-3.9388,-3.9388,-3.9388,-3.9388,-3.9388,-3.9388,-3.9388,-3.9388,-3.9388,-3.9388,-3.9388,-3.9388,-3.9388,-3.9313,-3.9125,-3.9095,-3.902,-3.8811,-3.876,-3.8616,-3.8138,-3.8078,-3.7823,-3.718,-3.712,-3.703,-3.6821,-3.6417,-3.6178,-3.6178,-3.5744,-3.5504,-3.5504,-3.5504,-3.5504,-3.5504,-3.5504,-3.5504,-3.5504,-3.5504,-3.5504,-3.5504,-3.5504,-3.5385,-3.5145,-3.4488,-3.3799,-3.314,-3.2452,-3.1914,-3.1511,-3.1511,-3.1511,-3.1511,-3.1511,-3.1511,-3.1511,-4.329,-4.329,-4.329,-4.329,-4.329,-4.329,-4.329,-4.329,-4.329,-4.329,-4.329,-4.329,-4.329,-4.329,-4.329,-4.329,-4.2731,-4.2396,-4.2396,-4.1767,-4.1707,-4.2351,-4.1767,-4.1422,-4.1422,-4.1369,-4.1407,-4.1407,-4.1407,-4.1025,-4.0382,-4.0382,-4.0053,-3.9388,-3.9388,-3.9388,-3.9388,-3.9388,-3.9388,-3.9388,-3.9388,-3.9388,-3.9388,-3.9388,-3.9388,-3.9388,-3.9388,-3.9388,-3.9388,-3.9388,-3.9388,-3.9388,-3.9388,-3.9388,-3.9388,-3.9388,-3.9388,-3.9388,-3.9388,-3.9388,-3.9388,-3.9388,-3.9388,-3.9388,-3.9388,-3.9388,-3.9388,-3.9373,-3.9373,-3.9373,-3.9373,-3.9373,-3.9185,-3.8497,-3.8377,-3.8153,-3.7494,-3.7404,-3.7404,-3.7404,-3.7404,-3.7165,-3.6537,-3.6477,-3.6207,-3.5549,-3.5504,-3.5504,-3.5504,-3.5504,-3.5504,-3.5504,-3.5504,-3.5504,-3.5504,-3.5504,-3.5504,-3.5504,-3.5504,-3.5504,-3.5504,-3.5504,-3.513,-3.4474,-3.3784,-3.311,-3.2437,-3.178,-3.1511,-3.1511,-3.1511,-3.1511,-3.1511,-3.1511,-3.1511,-3.1511,-4.329,-4.329,-4.329,-4.329,-4.329,-4.329,-4.329,-4.329,-4.3125,-4.2701,-4.2656,-4.2476,-4.2013,-4.1968,-4.1968,-4.1968,-4.1788,-4.1707,-4.1707,-4.1055,-4.0786,-4.098,-4.1272,-4.1422,-4.1422,-4.0935,-4.0696,-4.0696,-4.0232,-3.9903,-3.9709,-3.9709,-3.9604,-3.9388,-3.9388,-3.9388,-3.9388,-3.9388,-3.9388,-3.9388,-3.9388,-3.9388,-3.9388,-3.9388,-3.9388,-3.9388,-3.9388,-3.9388,-3.9388,-3.9388,-3.9388,-3.9388,-3.9388,-3.9388,-3.9388,-3.9388,-3.9388,-3.9388,-3.9388,-3.9388,-3.9388,-3.9388,-3.9388,-3.9388,-3.9388,-3.9388,-3.929,-3.8796,-3.8691,-3.8556,-3.8093,-3.8018,-3.7943,-3.7734,-3.7704,-3.7629,-3.7434,-3.7404,-3.724,-3.6806,-3.6761,-3.6507,-3.5863,-3.5804,-3.5714,-3.5519,-3.5504,-3.5504,-3.5504,-3.5504,-3.5504,-3.5504,-3.5504,-3.5504,-3.5504,-3.5504,-3.5504,-3.5504,-3.5504,-3.5504,-3.5489,-3.4996,-3.4698,-3.4444,-3.329,-3.2691,-3.2437,-3.178,-3.1511,-3.1511,-3.1511,-3.1511,-3.1511,-3.1511,-3.1511,-3.1511,-4.2566,-4.2566,-4.2566,-4.2566,-4.2566,-4.2566,-4.2566,-4.2566,-4.2417,-4.2066,-4.2006,-4.1856,-4.1429,-4.1422,-4.1422,-4.1422,-4.1145,-4.0876,-4.0621,-4.0232,-4.0008,-4.0008,-4.0382,-4.0606,-4.0606,-4.0217,-4.0008,-4.0008,-3.9619,-3.9388,-3.9388,-3.9388,-3.9388,-3.9388,-3.9388,-3.9388,-3.9388,-3.9388,-3.9388,-3.9388,-3.9388,-3.9388,-3.9388,-3.9388,-3.9388,-3.9388,-3.9388,-3.9388,-3.9388,-3.9388,-3.9388,-3.9388,-3.9388,-3.9388,-3.9388,-3.9388,-3.9388,-3.9328,-3.9095,-3.9005,-3.8945,-3.8691,-3.8826,-3.9005,-3.9005,-3.8811,-3.8497,-3.8093,-3.8003,-3.7883,-3.7479,-3.7404,-3.733,-3.709,-3.7045,-3.6956,-3.6701,-3.6656,-3.6522,-3.6148,-3.6088,-3.5953,-3.5549,-3.5504,-3.5504,-3.5504,-3.5504,-3.5504,-3.5504,-3.5504,-3.5504,-3.5504,-3.5504,-3.5504,-3.5504,-3.5504,-3.5504,-3.5504,-3.5504,-3.5355,-3.5085,-3.4666,-3.4219,-3.3649,-3.2856,-3.2333,-3.2064,-3.1675,-3.1511,-3.1511,-3.1511,-3.1511,-3.1511,-3.1511,-3.1511,-3.1511,-4.1422,-4.1422,-4.1422,-4.1422,-4.1422,-4.1422,-4.1422,-4.1422,-4.1392,-4.1332,-4.1294,-4.1265,-4.1205,-4.1205,-4.1205,-4.1205,-4.0651,-4.0053,-3.9454,-3.9388,-3.9388,-3.9388,-3.9388,-3.9388,-3.9388,-3.9388,-3.9388,-3.9388,-3.9388,-3.9388,-3.9388,-3.9388,-3.9388,-3.9388,-3.9388,-3.9388,-3.9388,-3.9388,-3.9388,-3.9388,-3.9388,-3.9388,-3.9388,-3.9388,-3.9388,-3.9388,-3.9388,-3.9388,-3.9388,-3.9388,-3.9388,-3.9388,-3.9388,-3.9388,-3.9373,-3.9313,-3.9334,-3.917,-3.8482,-3.8302,-3.8153,-3.7554,-3.7823,-3.8227,-3.8287,-3.7838,-3.7389,-3.7345,-3.733,-3.73,-3.7255,-3.724,-3.706,-3.6492,-3.6402,-3.6193,-3.5594,-3.5504,-3.5504,-3.5504,-3.5504,-3.5504,-3.5504,-3.5504,-3.5504,-3.5504,-3.5504,-3.5504,-3.5504,-3.5504,-3.5504,-3.5504,-3.5504,-3.5504,-3.5504,-3.5444,-3.5415,-3.5415,-3.5415,-3.5055,-3.4414,-3.4354,-3.3649,-3.2512,-3.2452,-3.2049,-3.1511,-3.1511,-3.1511,-3.1511,-3.1511,-3.1511,-3.1511,-3.1511,-3.1511,-3.1511,-4.1422,-4.1422,-4.1422,-4.1422,-4.1422,-4.1422,-4.1422,-4.1422,-4.119,-4.0681,-4.0606,-4.0412,-3.9903,-3.9843,-3.9843,-3.9843,-3.9709,-3.9574,-3.9388,-3.9388,-3.9388,-3.9388,-3.9388,-3.9388,-3.9388,-3.9388,-3.9388,-3.9388,-3.9388,-3.9388,-3.9388,-3.9388,-3.9388,-3.9388,-3.9388,-3.9388,-3.9388,-3.9388,-3.9388,-3.9388,-3.9388,-3.9388,-3.9388,-3.9388,-3.9388,-3.9388,-3.9388,-3.9388,-3.9388,-3.9388,-3.9388,-3.9388,-3.9388,-3.9388,-3.932,-3.8766,-3.8616,-3.8467,-3.7808,-3.7629,-3.7584,-3.7449,-3.715,-3.703,-3.7509,-3.7509,-3.727,-3.6791,-3.6686,-3.6522,-3.6013,-3.5923,-3.5878,-3.5744,-3.5714,-3.5669,-3.5534,-3.5504,-3.5504,-3.5504,-3.5504,-3.5504,-3.5504,-3.5504,-3.5504,-3.5504,-3.5504,-3.5504,-3.5504,-3.5504,-3.5504,-3.5504,-3.5504,-3.5504,-3.5504,-3.4966,-3.4728,-3.4728,-3.4728,-3.4352,-3.3694,-3.317,-3.2781,-3.2452,-3.1944,-3.163,-3.1511,-3.1511,-3.1511,-3.1511,-3.1511,-3.1511,-3.1511,-3.1511,-3.1511,-3.1511,-4.0442,-4.0442,-4.0442,-4.0442,-4.0442,-4.0442,-4.0442,-4.0442,-4.0322,-3.9978,-3.9933,-3.9798,-3.9454,-3.9388,-3.9388,-3.9388,-3.9388,-3.9388,-3.9388,-3.9388,-3.9388,-3.9388,-3.9388,-3.9388,-3.9388,-3.9388,-3.9388,-3.9388,-3.9388,-3.9388,-3.9388,-3.9388,-3.9388,-3.9388,-3.9388,-3.9388,-3.9388,-3.9388,-3.9388,-3.9388,-3.9388,-3.9388,-3.9388,-3.9388,-3.9388,-3.9388,-3.9388,-3.92,-3.8931,-3.8931,-3.8721,-3.8467,-3.8467,-3.8467,-3.8392,-3.8033,-3.7913,-3.7778,-3.7135,-3.6971,-3.6896,-3.6582,-3.6267,-3.6193,-3.6821,-3.6731,-3.6402,-3.6088,-3.6013,-3.5908,-3.5564,-3.5504,-3.5504,-3.5504,-3.5504,-3.5504,-3.5504,-3.5504,-3.5504,-3.5504,-3.5504,-3.5504,-3.5504,-3.5504,-3.5504,-3.5504,-3.5504,-3.5504,-3.5504,-3.5504,-3.5504,-3.5504,-3.5504,-3.5355,-3.5026,-3.4698,-3.4189,-3.3544,-3.3858,-3.3664,-3.3021,-3.2677,-3.2318,-3.1989,-3.1645,-3.1511,-3.1511,-3.1511,-3.1511,-3.1511,-3.1511,-3.1511,-3.1511,-3.1511,-3.1511,-3.1511,-3.9388,-3.9388,-3.9388,-3.9388,-3.9388,-3.9388,-3.9388,-3.9388,-3.9388,-3.9388,-3.9388,-3.9388,-3.9388,-3.9388,-3.9388,-3.9388,-3.9388,-3.9388,-3.9388,-3.9388,-3.9388,-3.9388,-3.9388,-3.9388,-3.9388,-3.9388,-3.9388,-3.9388,-3.9388,-3.9388,-3.9388,-3.9388,-3.9388,-3.9388,-3.9388,-3.9388,-3.9388,-3.9388,-3.9388,-3.9388,-3.9388,-3.9313,-3.9245,-3.9245,-3.917,-3.908,-3.908,-3.8706,-3.8227,-3.8227,-3.7853,-3.7404,-3.7404,-3.7404,-3.7389,-3.7285,-3.7255,-3.712,-3.6492,-3.6312,-3.6193,-3.5639,-3.5504,-3.5654,-3.6193,-3.5893,-3.5504,-3.5504,-3.5504,-3.5504,-3.5504,-3.5504,-3.5504,-3.5504,-3.5504,-3.5504,-3.5504,-3.5504,-3.5504,-3.5504,-3.5504,-3.5504,-3.5504,-3.5504,-3.5504,-3.5504,-3.5504,-3.5504,-3.5504,-3.5504,-3.5504,-3.5504,-3.5385,-3.5055,-3.4518,-3.4279,-3.3589,-3.2527,-3.2961,-3.2871,-3.2318,-3.2318,-3.2019,-3.1511,-3.1511,-3.1511,-3.1511,-3.1511,-3.1511,-3.1511,-3.1511,-3.1511,-3.1511,-3.1511,-3.1511,-3.1511,-3.9388,-3.9388,-3.9388,-3.9388,-3.9388,-3.9388,-3.9388,-3.9388,-3.9388,-3.9388,-3.9388,-3.9388,-3.9388,-3.9388,-3.9388,-3.9388,-3.9388,-3.9388,-3.9388,-3.9388,-3.9388,-3.9388,-3.9388,-3.9388,-3.9388,-3.9388,-3.9388,-3.9388,-3.9388,-3.9388,-3.9388,-3.9388,-3.9388,-3.9388,-3.9388,-3.9388,-3.9388,-3.9388,-3.9388,-3.9388,-3.9388,-3.9065,-3.8527,-3.8527,-3.8182,-3.7674,-3.7674,-3.7614,-3.7539,-3.7539,-3.7479,-3.7404,-3.7404,-3.7404,-3.73,-3.6761,-3.6611,-3.6477,-3.5804,-3.5639,-3.5609,-3.5534,-3.5504,-3.5534,-3.5609,-3.5564,-3.5504,-3.5504,-3.5504,-3.5504,-3.5504,-3.5504,-3.5504,-3.5504,-3.5504,-3.5504,-3.5504,-3.5504,-3.5504,-3.5504,-3.5504,-3.5504,-3.5504,-3.5504,-3.5504,-3.5504,-3.5504,-3.5504,-3.5504,-3.5504,-3.5504,-3.5504,-3.4921,-3.4593,-3.4503,-3.335,-3.2691,-3.2482,-3.1989,-3.172,-3.1645,-3.1645,-3.1585,-3.1511,-3.1511,-3.1511,-3.1511,-3.1511,-3.1511,-3.1511,-3.1511,-3.1511,-3.1511,-3.1511,-3.1511,-3.1511,-3.9388,-3.9388,-3.9388,-3.9388,-3.9388,-3.9388,-3.9388,-3.9388,-3.9388,-3.9388,-3.9388,-3.9388,-3.9388,-3.9388,-3.9388,-3.9388,-3.9388,-3.9388,-3.9388,-3.9388,-3.9388,-3.9388,-3.9388,-3.9388,-3.9388,-3.9388,-3.9388,-3.9388,-3.9388,-3.9388,-3.9388,-3.9388,-3.9388,-3.9373,-3.902,-3.8841,-3.8826,-3.8452,-3.8287,-3.8287,-3.8287,-3.8123,-3.7838,-3.7838,-3.7659,-3.7404,-3.7404,-3.718,-3.6896,-3.6896,-3.6641,-3.6342,-3.6342,-3.6342,-3.6297,-3.6013,-3.5938,-3.5878,-3.5579,-3.5504,-3.5504,-3.5504,-3.5504,-3.5504,-3.5504,-3.5504,-3.5504,-3.5504,-3.5504,-3.5504,-3.5504,-3.5504,-3.5504,-3.5504,-3.5504,-3.5504,-3.5504,-3.5504,-3.5504,-3.5504,-3.5504,-3.5504,-3.5504,-3.5504,-3.5504,-3.5504,-3.5504,-3.5504,-3.5504,-3.5504,-3.5325,-3.4936,-3.4668,-3.4159,-3.338,-3.2811,-3.2303,-3.1929,-3.1645,-3.1511,-3.1511,-3.1511,-3.1511,-3.1511,-3.1511,-3.1511,-3.1511,-3.1511,-3.1511,-3.1511,-3.1511,-3.1511,-3.1511,-3.1511,-3.1511,-3.1511]}]]